<?xml version="1.0" encoding="UTF-8" standalone="no" ?>
<gpx xmlns="http://www.topografix.com/GPX/1/1" xmlns:xsi="http://www.w3.org/2001/XMLSchema-instance" xsi:schemaLocation="http://www.topografix.com/GPX/1/1 http://www.topografix.com/GPX/1/1/gpx.xsd" version="1.1" creator="VisuGPX - https://www.visugpx.com">
  <metadata>
    <name>VTT 03/05/2014</name>
    <desc><![CDATA[parcour tres boueux]]></desc>
  </metadata>
  <trk>
    <name><![CDATA[Sportrate Track]]></name>
    <trkseg>
      <trkpt lat="46.39328" lon="5.70307">
        <ele>706.8</ele>
        <time>2014-05-03T15:30:32.399Z</time>
      </trkpt>
      <trkpt lat="46.39331" lon="5.70308">
        <ele>710.4</ele>
        <time>2014-05-03T15:30:35.330Z</time>
      </trkpt>
      <trkpt lat="46.39332" lon="5.70308">
        <ele>708.7</ele>
        <time>2014-05-03T15:30:36.284Z</time>
      </trkpt>
      <trkpt lat="46.39333" lon="5.70307">
        <ele>705.7</ele>
        <time>2014-05-03T15:30:43.274Z</time>
      </trkpt>
      <trkpt lat="46.39333" lon="5.70307">
        <ele>705.7</ele>
        <time>2014-05-03T15:30:46.448Z</time>
      </trkpt>
      <trkpt lat="46.39333" lon="5.70305">
        <ele>703.3</ele>
        <time>2014-05-03T15:30:49.315Z</time>
      </trkpt>
      <trkpt lat="46.39332" lon="5.70303">
        <ele>702.5</ele>
        <time>2014-05-03T15:30:52.413Z</time>
      </trkpt>
      <trkpt lat="46.39331" lon="5.70302">
        <ele>702.7</ele>
        <time>2014-05-03T15:30:55.353Z</time>
      </trkpt>
      <trkpt lat="46.39331" lon="5.70301">
        <ele>702.8</ele>
        <time>2014-05-03T15:30:58.326Z</time>
      </trkpt>
      <trkpt lat="46.39331" lon="5.70301">
        <ele>702.9</ele>
        <time>2014-05-03T15:31:01.390Z</time>
      </trkpt>
      <trkpt lat="46.39331" lon="5.70301">
        <ele>702.8</ele>
        <time>2014-05-03T15:31:04.268Z</time>
      </trkpt>
      <trkpt lat="46.3933" lon="5.70301">
        <ele>703.6</ele>
        <time>2014-05-03T15:31:07.445Z</time>
      </trkpt>
      <trkpt lat="46.3933" lon="5.70299">
        <ele>704.2</ele>
        <time>2014-05-03T15:31:10.278Z</time>
      </trkpt>
      <trkpt lat="46.39328" lon="5.70292">
        <ele>703</ele>
        <time>2014-05-03T15:31:13.472Z</time>
      </trkpt>
      <trkpt lat="46.39325" lon="5.70282">
        <ele>702</ele>
        <time>2014-05-03T15:31:16.275Z</time>
      </trkpt>
      <trkpt lat="46.39306" lon="5.70269">
        <ele>702</ele>
        <time>2014-05-03T15:31:19.443Z</time>
      </trkpt>
      <trkpt lat="46.3929" lon="5.70255">
        <ele>700.5</ele>
        <time>2014-05-03T15:31:22.316Z</time>
      </trkpt>
      <trkpt lat="46.39273" lon="5.70236">
        <ele>699.1</ele>
        <time>2014-05-03T15:31:25.350Z</time>
      </trkpt>
      <trkpt lat="46.39256" lon="5.70211">
        <ele>696.8</ele>
        <time>2014-05-03T15:31:28.405Z</time>
      </trkpt>
      <trkpt lat="46.3924" lon="5.7019">
        <ele>696.5</ele>
        <time>2014-05-03T15:31:31.267Z</time>
      </trkpt>
      <trkpt lat="46.39221" lon="5.70172">
        <ele>694.7</ele>
        <time>2014-05-03T15:31:34.322Z</time>
      </trkpt>
      <trkpt lat="46.3921" lon="5.70164">
        <ele>693.7</ele>
        <time>2014-05-03T15:31:37.269Z</time>
      </trkpt>
      <trkpt lat="46.39202" lon="5.70156">
        <ele>691.9</ele>
        <time>2014-05-03T15:31:40.438Z</time>
      </trkpt>
      <trkpt lat="46.39189" lon="5.7014">
        <ele>690.7</ele>
        <time>2014-05-03T15:31:43.271Z</time>
      </trkpt>
      <trkpt lat="46.39172" lon="5.70128">
        <ele>688.6</ele>
        <time>2014-05-03T15:31:46.437Z</time>
      </trkpt>
      <trkpt lat="46.39164" lon="5.7012">
        <ele>688.7</ele>
        <time>2014-05-03T15:31:49.286Z</time>
      </trkpt>
      <trkpt lat="46.3916" lon="5.70115">
        <ele>690.9</ele>
        <time>2014-05-03T15:31:52.411Z</time>
      </trkpt>
      <trkpt lat="46.39152" lon="5.70107">
        <ele>694.5</ele>
        <time>2014-05-03T15:31:55.343Z</time>
      </trkpt>
      <trkpt lat="46.39141" lon="5.70099">
        <ele>695.1</ele>
        <time>2014-05-03T15:31:58.319Z</time>
      </trkpt>
      <trkpt lat="46.39123" lon="5.70082">
        <ele>693.8</ele>
        <time>2014-05-03T15:32:01.373Z</time>
      </trkpt>
      <trkpt lat="46.3911" lon="5.70064">
        <ele>691.8</ele>
        <time>2014-05-03T15:32:04.267Z</time>
      </trkpt>
      <trkpt lat="46.39097" lon="5.70045">
        <ele>691.4</ele>
        <time>2014-05-03T15:32:07.445Z</time>
      </trkpt>
      <trkpt lat="46.39086" lon="5.70022">
        <ele>689.9</ele>
        <time>2014-05-03T15:32:10.268Z</time>
      </trkpt>
      <trkpt lat="46.39074" lon="5.69996">
        <ele>688.8</ele>
        <time>2014-05-03T15:32:13.383Z</time>
      </trkpt>
      <trkpt lat="46.39059" lon="5.69972">
        <ele>688.4</ele>
        <time>2014-05-03T15:32:16.280Z</time>
      </trkpt>
      <trkpt lat="46.39043" lon="5.69952">
        <ele>687.8</ele>
        <time>2014-05-03T15:32:19.443Z</time>
      </trkpt>
      <trkpt lat="46.39024" lon="5.69933">
        <ele>687.2</ele>
        <time>2014-05-03T15:32:22.293Z</time>
      </trkpt>
      <trkpt lat="46.39001" lon="5.69918">
        <ele>686.8</ele>
        <time>2014-05-03T15:32:25.372Z</time>
      </trkpt>
      <trkpt lat="46.3898" lon="5.69909">
        <ele>686.3</ele>
        <time>2014-05-03T15:32:28.352Z</time>
      </trkpt>
      <trkpt lat="46.38963" lon="5.69907">
        <ele>685</ele>
        <time>2014-05-03T15:32:31.285Z</time>
      </trkpt>
      <trkpt lat="46.38944" lon="5.69909">
        <ele>685.4</ele>
        <time>2014-05-03T15:32:34.399Z</time>
      </trkpt>
      <trkpt lat="46.38922" lon="5.69915">
        <ele>686.5</ele>
        <time>2014-05-03T15:32:37.267Z</time>
      </trkpt>
      <trkpt lat="46.38898" lon="5.6992">
        <ele>686.4</ele>
        <time>2014-05-03T15:32:40.307Z</time>
      </trkpt>
      <trkpt lat="46.38876" lon="5.69919">
        <ele>686.3</ele>
        <time>2014-05-03T15:32:43.270Z</time>
      </trkpt>
      <trkpt lat="46.38854" lon="5.69921">
        <ele>684.8</ele>
        <time>2014-05-03T15:32:46.464Z</time>
      </trkpt>
      <trkpt lat="46.38832" lon="5.69924">
        <ele>683.9</ele>
        <time>2014-05-03T15:32:49.285Z</time>
      </trkpt>
      <trkpt lat="46.38816" lon="5.69917">
        <ele>683.2</ele>
        <time>2014-05-03T15:32:52.352Z</time>
      </trkpt>
      <trkpt lat="46.3881" lon="5.69899">
        <ele>679.5</ele>
        <time>2014-05-03T15:32:55.311Z</time>
      </trkpt>
      <trkpt lat="46.38804" lon="5.69887">
        <ele>677.6</ele>
        <time>2014-05-03T15:32:58.342Z</time>
      </trkpt>
      <trkpt lat="46.38797" lon="5.69877">
        <ele>677.1</ele>
        <time>2014-05-03T15:33:01.395Z</time>
      </trkpt>
      <trkpt lat="46.3879" lon="5.69868">
        <ele>676</ele>
        <time>2014-05-03T15:33:04.267Z</time>
      </trkpt>
      <trkpt lat="46.38782" lon="5.69859">
        <ele>673.4</ele>
        <time>2014-05-03T15:33:07.396Z</time>
      </trkpt>
      <trkpt lat="46.38775" lon="5.69849">
        <ele>672.5</ele>
        <time>2014-05-03T15:33:10.269Z</time>
      </trkpt>
      <trkpt lat="46.38769" lon="5.69842">
        <ele>672.5</ele>
        <time>2014-05-03T15:33:13.421Z</time>
      </trkpt>
      <trkpt lat="46.38764" lon="5.69837">
        <ele>673.2</ele>
        <time>2014-05-03T15:33:16.275Z</time>
      </trkpt>
      <trkpt lat="46.3876" lon="5.69832">
        <ele>674.4</ele>
        <time>2014-05-03T15:33:19.444Z</time>
      </trkpt>
      <trkpt lat="46.38759" lon="5.69824">
        <ele>674.8</ele>
        <time>2014-05-03T15:33:22.310Z</time>
      </trkpt>
      <trkpt lat="46.38757" lon="5.69814">
        <ele>676.1</ele>
        <time>2014-05-03T15:33:25.393Z</time>
      </trkpt>
      <trkpt lat="46.38753" lon="5.69809">
        <ele>678.4</ele>
        <time>2014-05-03T15:33:28.364Z</time>
      </trkpt>
      <trkpt lat="46.38749" lon="5.69805">
        <ele>680.6</ele>
        <time>2014-05-03T15:33:31.305Z</time>
      </trkpt>
      <trkpt lat="46.38747" lon="5.69804">
        <ele>687.5</ele>
        <time>2014-05-03T15:33:34.372Z</time>
      </trkpt>
      <trkpt lat="46.38746" lon="5.69798">
        <ele>687.6</ele>
        <time>2014-05-03T15:33:37.267Z</time>
      </trkpt>
      <trkpt lat="46.38746" lon="5.69788">
        <ele>687.5</ele>
        <time>2014-05-03T15:33:40.402Z</time>
      </trkpt>
      <trkpt lat="46.38747" lon="5.69778">
        <ele>687.2</ele>
        <time>2014-05-03T15:33:43.269Z</time>
      </trkpt>
      <trkpt lat="46.38747" lon="5.69769">
        <ele>687</ele>
        <time>2014-05-03T15:33:46.425Z</time>
      </trkpt>
      <trkpt lat="46.38745" lon="5.69761">
        <ele>688.5</ele>
        <time>2014-05-03T15:33:49.288Z</time>
      </trkpt>
      <trkpt lat="46.38743" lon="5.69753">
        <ele>691.1</ele>
        <time>2014-05-03T15:33:52.436Z</time>
      </trkpt>
      <trkpt lat="46.3874" lon="5.69747">
        <ele>695.3</ele>
        <time>2014-05-03T15:33:55.314Z</time>
      </trkpt>
      <trkpt lat="46.38739" lon="5.6974">
        <ele>696.6</ele>
        <time>2014-05-03T15:33:58.360Z</time>
      </trkpt>
      <trkpt lat="46.38739" lon="5.69732">
        <ele>697.6</ele>
        <time>2014-05-03T15:34:01.405Z</time>
      </trkpt>
      <trkpt lat="46.38741" lon="5.69722">
        <ele>700.9</ele>
        <time>2014-05-03T15:34:04.271Z</time>
      </trkpt>
      <trkpt lat="46.38742" lon="5.69714">
        <ele>700</ele>
        <time>2014-05-03T15:34:07.378Z</time>
      </trkpt>
      <trkpt lat="46.38743" lon="5.69703">
        <ele>702.1</ele>
        <time>2014-05-03T15:34:10.268Z</time>
      </trkpt>
      <trkpt lat="46.38744" lon="5.69698">
        <ele>706.6</ele>
        <time>2014-05-03T15:34:13.443Z</time>
      </trkpt>
      <trkpt lat="46.38745" lon="5.6969">
        <ele>706.3</ele>
        <time>2014-05-03T15:34:16.273Z</time>
      </trkpt>
      <trkpt lat="46.38747" lon="5.69676">
        <ele>703</ele>
        <time>2014-05-03T15:34:19.314Z</time>
      </trkpt>
      <trkpt lat="46.38751" lon="5.69665">
        <ele>702.9</ele>
        <time>2014-05-03T15:34:22.297Z</time>
      </trkpt>
      <trkpt lat="46.38755" lon="5.69656">
        <ele>703.9</ele>
        <time>2014-05-03T15:34:25.411Z</time>
      </trkpt>
      <trkpt lat="46.38759" lon="5.69646">
        <ele>703.6</ele>
        <time>2014-05-03T15:34:28.307Z</time>
      </trkpt>
      <trkpt lat="46.38763" lon="5.69635">
        <ele>703.8</ele>
        <time>2014-05-03T15:34:31.317Z</time>
      </trkpt>
      <trkpt lat="46.38765" lon="5.69624">
        <ele>703.8</ele>
        <time>2014-05-03T15:34:34.365Z</time>
      </trkpt>
      <trkpt lat="46.38766" lon="5.69612">
        <ele>702.4</ele>
        <time>2014-05-03T15:34:37.271Z</time>
      </trkpt>
      <trkpt lat="46.38767" lon="5.69601">
        <ele>704</ele>
        <time>2014-05-03T15:34:40.320Z</time>
      </trkpt>
      <trkpt lat="46.38766" lon="5.6959">
        <ele>703.8</ele>
        <time>2014-05-03T15:34:43.271Z</time>
      </trkpt>
      <trkpt lat="46.38764" lon="5.69578">
        <ele>703.7</ele>
        <time>2014-05-03T15:34:46.445Z</time>
      </trkpt>
      <trkpt lat="46.38764" lon="5.69567">
        <ele>703.3</ele>
        <time>2014-05-03T15:34:49.275Z</time>
      </trkpt>
      <trkpt lat="46.38764" lon="5.69558">
        <ele>708</ele>
        <time>2014-05-03T15:34:52.314Z</time>
      </trkpt>
      <trkpt lat="46.38763" lon="5.69551">
        <ele>707.4</ele>
        <time>2014-05-03T15:34:55.286Z</time>
      </trkpt>
      <trkpt lat="46.38764" lon="5.69545">
        <ele>709.4</ele>
        <time>2014-05-03T15:34:58.368Z</time>
      </trkpt>
      <trkpt lat="46.38766" lon="5.69538">
        <ele>708.7</ele>
        <time>2014-05-03T15:35:01.349Z</time>
      </trkpt>
      <trkpt lat="46.38766" lon="5.6953">
        <ele>712.1</ele>
        <time>2014-05-03T15:35:04.266Z</time>
      </trkpt>
      <trkpt lat="46.38763" lon="5.69523">
        <ele>714.2</ele>
        <time>2014-05-03T15:35:07.330Z</time>
      </trkpt>
      <trkpt lat="46.38759" lon="5.69516">
        <ele>716.5</ele>
        <time>2014-05-03T15:35:10.267Z</time>
      </trkpt>
      <trkpt lat="46.38755" lon="5.69509">
        <ele>720.1</ele>
        <time>2014-05-03T15:35:13.396Z</time>
      </trkpt>
      <trkpt lat="46.38753" lon="5.69503">
        <ele>723.6</ele>
        <time>2014-05-03T15:35:16.270Z</time>
      </trkpt>
      <trkpt lat="46.38751" lon="5.69494">
        <ele>723.4</ele>
        <time>2014-05-03T15:35:19.348Z</time>
      </trkpt>
      <trkpt lat="46.38751" lon="5.69482">
        <ele>723.7</ele>
        <time>2014-05-03T15:35:22.276Z</time>
      </trkpt>
      <trkpt lat="46.38752" lon="5.6947">
        <ele>722.5</ele>
        <time>2014-05-03T15:35:25.342Z</time>
      </trkpt>
      <trkpt lat="46.38752" lon="5.69461">
        <ele>721.6</ele>
        <time>2014-05-03T15:35:28.309Z</time>
      </trkpt>
      <trkpt lat="46.38752" lon="5.69451">
        <ele>722.1</ele>
        <time>2014-05-03T15:35:31.336Z</time>
      </trkpt>
      <trkpt lat="46.38754" lon="5.6944">
        <ele>719.5</ele>
        <time>2014-05-03T15:35:34.354Z</time>
      </trkpt>
      <trkpt lat="46.38757" lon="5.6943">
        <ele>718.4</ele>
        <time>2014-05-03T15:35:37.267Z</time>
      </trkpt>
      <trkpt lat="46.38759" lon="5.69424">
        <ele>723.1</ele>
        <time>2014-05-03T15:35:40.320Z</time>
      </trkpt>
      <trkpt lat="46.38758" lon="5.69416">
        <ele>724.8</ele>
        <time>2014-05-03T15:35:43.268Z</time>
      </trkpt>
      <trkpt lat="46.38758" lon="5.69407">
        <ele>725.3</ele>
        <time>2014-05-03T15:35:46.373Z</time>
      </trkpt>
      <trkpt lat="46.38759" lon="5.69399">
        <ele>725.1</ele>
        <time>2014-05-03T15:35:49.283Z</time>
      </trkpt>
      <trkpt lat="46.38758" lon="5.69386">
        <ele>725.9</ele>
        <time>2014-05-03T15:35:52.468Z</time>
      </trkpt>
      <trkpt lat="46.38757" lon="5.69372">
        <ele>728.1</ele>
        <time>2014-05-03T15:35:55.307Z</time>
      </trkpt>
      <trkpt lat="46.38757" lon="5.69356">
        <ele>728.4</ele>
        <time>2014-05-03T15:35:58.391Z</time>
      </trkpt>
      <trkpt lat="46.38759" lon="5.69334">
        <ele>728.4</ele>
        <time>2014-05-03T15:36:01.329Z</time>
      </trkpt>
      <trkpt lat="46.38766" lon="5.6929">
        <ele>726.9</ele>
        <time>2014-05-03T15:36:04.297Z</time>
      </trkpt>
      <trkpt lat="46.38769" lon="5.69253">
        <ele>723</ele>
        <time>2014-05-03T15:36:07.326Z</time>
      </trkpt>
      <trkpt lat="46.38766" lon="5.69228">
        <ele>719.5</ele>
        <time>2014-05-03T15:36:10.270Z</time>
      </trkpt>
      <trkpt lat="46.38766" lon="5.69208">
        <ele>717.7</ele>
        <time>2014-05-03T15:36:13.402Z</time>
      </trkpt>
      <trkpt lat="46.38763" lon="5.69185">
        <ele>715.9</ele>
        <time>2014-05-03T15:36:16.271Z</time>
      </trkpt>
      <trkpt lat="46.3877" lon="5.69157">
        <ele>711.8</ele>
        <time>2014-05-03T15:36:19.428Z</time>
      </trkpt>
      <trkpt lat="46.38762" lon="5.69136">
        <ele>709.3</ele>
        <time>2014-05-03T15:36:22.288Z</time>
      </trkpt>
      <trkpt lat="46.38752" lon="5.69126">
        <ele>708.2</ele>
        <time>2014-05-03T15:36:25.406Z</time>
      </trkpt>
      <trkpt lat="46.38742" lon="5.6911">
        <ele>708.4</ele>
        <time>2014-05-03T15:36:28.323Z</time>
      </trkpt>
      <trkpt lat="46.38736" lon="5.69102">
        <ele>709.8</ele>
        <time>2014-05-03T15:36:31.359Z</time>
      </trkpt>
      <trkpt lat="46.38728" lon="5.69095">
        <ele>710</ele>
        <time>2014-05-03T15:36:34.325Z</time>
      </trkpt>
      <trkpt lat="46.3872" lon="5.69084">
        <ele>709.9</ele>
        <time>2014-05-03T15:36:37.267Z</time>
      </trkpt>
      <trkpt lat="46.38715" lon="5.6908">
        <ele>708.4</ele>
        <time>2014-05-03T15:36:40.318Z</time>
      </trkpt>
      <trkpt lat="46.38714" lon="5.6908">
        <ele>708.3</ele>
        <time>2014-05-03T15:36:43.270Z</time>
      </trkpt>
      <trkpt lat="46.38712" lon="5.69078">
        <ele>712.4</ele>
        <time>2014-05-03T15:36:46.316Z</time>
      </trkpt>
      <trkpt lat="46.38709" lon="5.69072">
        <ele>712.7</ele>
        <time>2014-05-03T15:36:49.270Z</time>
      </trkpt>
      <trkpt lat="46.38706" lon="5.69067">
        <ele>714.6</ele>
        <time>2014-05-03T15:36:52.431Z</time>
      </trkpt>
      <trkpt lat="46.38701" lon="5.69064">
        <ele>717.8</ele>
        <time>2014-05-03T15:36:55.270Z</time>
      </trkpt>
      <trkpt lat="46.38696" lon="5.69062">
        <ele>719.3</ele>
        <time>2014-05-03T15:36:58.411Z</time>
      </trkpt>
      <trkpt lat="46.3869" lon="5.69056">
        <ele>721.8</ele>
        <time>2014-05-03T15:37:01.301Z</time>
      </trkpt>
      <trkpt lat="46.38684" lon="5.69051">
        <ele>724.6</ele>
        <time>2014-05-03T15:37:04.320Z</time>
      </trkpt>
      <trkpt lat="46.38679" lon="5.69045">
        <ele>729.4</ele>
        <time>2014-05-03T15:37:07.393Z</time>
      </trkpt>
      <trkpt lat="46.38674" lon="5.69039">
        <ele>732.4</ele>
        <time>2014-05-03T15:37:10.269Z</time>
      </trkpt>
      <trkpt lat="46.38668" lon="5.69034">
        <ele>735.9</ele>
        <time>2014-05-03T15:37:13.351Z</time>
      </trkpt>
      <trkpt lat="46.38662" lon="5.69029">
        <ele>738.6</ele>
        <time>2014-05-03T15:37:16.270Z</time>
      </trkpt>
      <trkpt lat="46.38657" lon="5.69023">
        <ele>739.5</ele>
        <time>2014-05-03T15:37:19.448Z</time>
      </trkpt>
      <trkpt lat="46.38653" lon="5.69017">
        <ele>739.3</ele>
        <time>2014-05-03T15:37:22.273Z</time>
      </trkpt>
      <trkpt lat="46.38648" lon="5.69008">
        <ele>737.8</ele>
        <time>2014-05-03T15:37:25.453Z</time>
      </trkpt>
      <trkpt lat="46.38643" lon="5.69002">
        <ele>743</ele>
        <time>2014-05-03T15:37:28.310Z</time>
      </trkpt>
      <trkpt lat="46.38638" lon="5.68993">
        <ele>739.4</ele>
        <time>2014-05-03T15:37:31.377Z</time>
      </trkpt>
      <trkpt lat="46.38632" lon="5.68986">
        <ele>741.6</ele>
        <time>2014-05-03T15:37:34.397Z</time>
      </trkpt>
      <trkpt lat="46.38629" lon="5.68979">
        <ele>741.5</ele>
        <time>2014-05-03T15:37:37.292Z</time>
      </trkpt>
      <trkpt lat="46.38626" lon="5.68969">
        <ele>739</ele>
        <time>2014-05-03T15:37:40.328Z</time>
      </trkpt>
      <trkpt lat="46.3862" lon="5.68957">
        <ele>735.4</ele>
        <time>2014-05-03T15:37:43.269Z</time>
      </trkpt>
      <trkpt lat="46.38611" lon="5.68944">
        <ele>732.3</ele>
        <time>2014-05-03T15:37:46.486Z</time>
      </trkpt>
      <trkpt lat="46.38599" lon="5.68938">
        <ele>732</ele>
        <time>2014-05-03T15:37:49.279Z</time>
      </trkpt>
      <trkpt lat="46.38592" lon="5.68933">
        <ele>732.4</ele>
        <time>2014-05-03T15:37:52.472Z</time>
      </trkpt>
      <trkpt lat="46.38588" lon="5.68928">
        <ele>734</ele>
        <time>2014-05-03T15:37:55.286Z</time>
      </trkpt>
      <trkpt lat="46.38584" lon="5.68921">
        <ele>732.4</ele>
        <time>2014-05-03T15:37:58.435Z</time>
      </trkpt>
      <trkpt lat="46.3858" lon="5.68906">
        <ele>731.7</ele>
        <time>2014-05-03T15:38:01.315Z</time>
      </trkpt>
      <trkpt lat="46.38577" lon="5.6889">
        <ele>730.7</ele>
        <time>2014-05-03T15:38:04.344Z</time>
      </trkpt>
      <trkpt lat="46.38576" lon="5.68872">
        <ele>731.7</ele>
        <time>2014-05-03T15:38:07.398Z</time>
      </trkpt>
      <trkpt lat="46.38575" lon="5.68856">
        <ele>729.2</ele>
        <time>2014-05-03T15:38:10.270Z</time>
      </trkpt>
      <trkpt lat="46.38574" lon="5.6884">
        <ele>724.7</ele>
        <time>2014-05-03T15:38:13.445Z</time>
      </trkpt>
      <trkpt lat="46.38572" lon="5.68823">
        <ele>722.9</ele>
        <time>2014-05-03T15:38:16.269Z</time>
      </trkpt>
      <trkpt lat="46.3857" lon="5.68806">
        <ele>721.3</ele>
        <time>2014-05-03T15:38:19.404Z</time>
      </trkpt>
      <trkpt lat="46.38568" lon="5.68795">
        <ele>720.4</ele>
        <time>2014-05-03T15:38:22.278Z</time>
      </trkpt>
      <trkpt lat="46.38565" lon="5.68789">
        <ele>718.7</ele>
        <time>2014-05-03T15:38:25.432Z</time>
      </trkpt>
      <trkpt lat="46.3856" lon="5.68784">
        <ele>717.7</ele>
        <time>2014-05-03T15:38:28.310Z</time>
      </trkpt>
      <trkpt lat="46.38551" lon="5.68769">
        <ele>720</ele>
        <time>2014-05-03T15:38:31.382Z</time>
      </trkpt>
      <trkpt lat="46.38542" lon="5.68748">
        <ele>717.6</ele>
        <time>2014-05-03T15:38:34.383Z</time>
      </trkpt>
      <trkpt lat="46.38537" lon="5.68727">
        <ele>715.5</ele>
        <time>2014-05-03T15:38:37.278Z</time>
      </trkpt>
      <trkpt lat="46.38538" lon="5.68715">
        <ele>715.3</ele>
        <time>2014-05-03T15:38:40.393Z</time>
      </trkpt>
      <trkpt lat="46.38541" lon="5.68708">
        <ele>718.1</ele>
        <time>2014-05-03T15:38:43.270Z</time>
      </trkpt>
      <trkpt lat="46.38542" lon="5.68696">
        <ele>714.7</ele>
        <time>2014-05-03T15:38:46.417Z</time>
      </trkpt>
      <trkpt lat="46.38538" lon="5.68688">
        <ele>712.4</ele>
        <time>2014-05-03T15:38:49.278Z</time>
      </trkpt>
      <trkpt lat="46.38527" lon="5.68682">
        <ele>715.9</ele>
        <time>2014-05-03T15:38:52.463Z</time>
      </trkpt>
      <trkpt lat="46.38517" lon="5.68672">
        <ele>717.8</ele>
        <time>2014-05-03T15:38:55.290Z</time>
      </trkpt>
      <trkpt lat="46.38507" lon="5.68654">
        <ele>722</ele>
        <time>2014-05-03T15:38:58.445Z</time>
      </trkpt>
      <trkpt lat="46.38499" lon="5.68641">
        <ele>722.9</ele>
        <time>2014-05-03T15:39:01.311Z</time>
      </trkpt>
      <trkpt lat="46.38497" lon="5.68632">
        <ele>725.1</ele>
        <time>2014-05-03T15:39:04.355Z</time>
      </trkpt>
      <trkpt lat="46.38499" lon="5.68625">
        <ele>719.9</ele>
        <time>2014-05-03T15:39:07.352Z</time>
      </trkpt>
      <trkpt lat="46.38498" lon="5.6862">
        <ele>715.1</ele>
        <time>2014-05-03T15:39:10.274Z</time>
      </trkpt>
      <trkpt lat="46.38493" lon="5.68618">
        <ele>712.2</ele>
        <time>2014-05-03T15:39:13.322Z</time>
      </trkpt>
      <trkpt lat="46.38486" lon="5.68617">
        <ele>712.1</ele>
        <time>2014-05-03T15:39:16.270Z</time>
      </trkpt>
      <trkpt lat="46.38482" lon="5.68612">
        <ele>711.7</ele>
        <time>2014-05-03T15:39:19.409Z</time>
      </trkpt>
      <trkpt lat="46.38481" lon="5.68607">
        <ele>712.2</ele>
        <time>2014-05-03T15:39:22.272Z</time>
      </trkpt>
      <trkpt lat="46.38482" lon="5.68602">
        <ele>709.8</ele>
        <time>2014-05-03T15:39:25.410Z</time>
      </trkpt>
      <trkpt lat="46.38484" lon="5.68589">
        <ele>701.5</ele>
        <time>2014-05-03T15:39:28.291Z</time>
      </trkpt>
      <trkpt lat="46.38484" lon="5.68572">
        <ele>698.9</ele>
        <time>2014-05-03T15:39:31.414Z</time>
      </trkpt>
      <trkpt lat="46.38484" lon="5.68561">
        <ele>697.4</ele>
        <time>2014-05-03T15:39:34.330Z</time>
      </trkpt>
      <trkpt lat="46.38484" lon="5.68555">
        <ele>694.5</ele>
        <time>2014-05-03T15:39:37.325Z</time>
      </trkpt>
      <trkpt lat="46.38484" lon="5.68552">
        <ele>693</ele>
        <time>2014-05-03T15:39:40.405Z</time>
      </trkpt>
      <trkpt lat="46.38484" lon="5.68544">
        <ele>693.6</ele>
        <time>2014-05-03T15:39:43.270Z</time>
      </trkpt>
      <trkpt lat="46.38483" lon="5.68537">
        <ele>694.5</ele>
        <time>2014-05-03T15:39:46.484Z</time>
      </trkpt>
      <trkpt lat="46.38481" lon="5.6853">
        <ele>692.8</ele>
        <time>2014-05-03T15:39:49.272Z</time>
      </trkpt>
      <trkpt lat="46.3848" lon="5.68526">
        <ele>691.7</ele>
        <time>2014-05-03T15:39:52.322Z</time>
      </trkpt>
      <trkpt lat="46.3848" lon="5.68524">
        <ele>691.2</ele>
        <time>2014-05-03T15:39:55.278Z</time>
      </trkpt>
      <trkpt lat="46.3848" lon="5.68522">
        <ele>690.1</ele>
        <time>2014-05-03T15:39:58.490Z</time>
      </trkpt>
      <trkpt lat="46.3848" lon="5.68521">
        <ele>689.7</ele>
        <time>2014-05-03T15:40:01.371Z</time>
      </trkpt>
      <trkpt lat="46.38479" lon="5.68521">
        <ele>689.8</ele>
        <time>2014-05-03T15:40:04.314Z</time>
      </trkpt>
      <trkpt lat="46.38477" lon="5.6852">
        <ele>691.2</ele>
        <time>2014-05-03T15:40:07.325Z</time>
      </trkpt>
      <trkpt lat="46.38472" lon="5.68516">
        <ele>692.5</ele>
        <time>2014-05-03T15:40:10.279Z</time>
      </trkpt>
      <trkpt lat="46.38465" lon="5.68507">
        <ele>688.7</ele>
        <time>2014-05-03T15:40:13.456Z</time>
      </trkpt>
      <trkpt lat="46.38458" lon="5.68494">
        <ele>690.9</ele>
        <time>2014-05-03T15:40:16.270Z</time>
      </trkpt>
      <trkpt lat="46.38451" lon="5.68488">
        <ele>691.4</ele>
        <time>2014-05-03T15:40:19.415Z</time>
      </trkpt>
      <trkpt lat="46.38443" lon="5.68485">
        <ele>692.5</ele>
        <time>2014-05-03T15:40:22.271Z</time>
      </trkpt>
      <trkpt lat="46.38435" lon="5.68479">
        <ele>691.3</ele>
        <time>2014-05-03T15:40:25.454Z</time>
      </trkpt>
      <trkpt lat="46.38425" lon="5.68469">
        <ele>689</ele>
        <time>2014-05-03T15:40:28.297Z</time>
      </trkpt>
      <trkpt lat="46.3842" lon="5.68456">
        <ele>687.1</ele>
        <time>2014-05-03T15:40:31.323Z</time>
      </trkpt>
      <trkpt lat="46.38418" lon="5.68436">
        <ele>682.5</ele>
        <time>2014-05-03T15:40:34.334Z</time>
      </trkpt>
      <trkpt lat="46.38413" lon="5.6842">
        <ele>685.2</ele>
        <time>2014-05-03T15:40:37.345Z</time>
      </trkpt>
      <trkpt lat="46.38404" lon="5.68416">
        <ele>683</ele>
        <time>2014-05-03T15:40:40.429Z</time>
      </trkpt>
      <trkpt lat="46.38396" lon="5.68413">
        <ele>681.3</ele>
        <time>2014-05-03T15:40:43.271Z</time>
      </trkpt>
      <trkpt lat="46.3839" lon="5.6841">
        <ele>680.2</ele>
        <time>2014-05-03T15:40:46.434Z</time>
      </trkpt>
      <trkpt lat="46.38388" lon="5.6841">
        <ele>677.3</ele>
        <time>2014-05-03T15:40:49.269Z</time>
      </trkpt>
      <trkpt lat="46.38388" lon="5.68408">
        <ele>675.8</ele>
        <time>2014-05-03T15:40:52.400Z</time>
      </trkpt>
      <trkpt lat="46.38387" lon="5.68406">
        <ele>675.8</ele>
        <time>2014-05-03T15:40:55.274Z</time>
      </trkpt>
      <trkpt lat="46.38386" lon="5.68406">
        <ele>674.6</ele>
        <time>2014-05-03T15:40:58.496Z</time>
      </trkpt>
      <trkpt lat="46.38386" lon="5.68405">
        <ele>673.8</ele>
        <time>2014-05-03T15:41:01.342Z</time>
      </trkpt>
      <trkpt lat="46.38385" lon="5.68405">
        <ele>673.6</ele>
        <time>2014-05-03T15:41:04.405Z</time>
      </trkpt>
      <trkpt lat="46.38385" lon="5.68405">
        <ele>673.4</ele>
        <time>2014-05-03T15:41:07.408Z</time>
      </trkpt>
      <trkpt lat="46.38385" lon="5.68405">
        <ele>673.4</ele>
        <time>2014-05-03T15:41:10.292Z</time>
      </trkpt>
      <trkpt lat="46.38385" lon="5.68404">
        <ele>672.1</ele>
        <time>2014-05-03T15:41:13.446Z</time>
      </trkpt>
      <trkpt lat="46.38384" lon="5.68404">
        <ele>671.7</ele>
        <time>2014-05-03T15:41:16.271Z</time>
      </trkpt>
      <trkpt lat="46.38382" lon="5.68402">
        <ele>670.4</ele>
        <time>2014-05-03T15:41:19.448Z</time>
      </trkpt>
      <trkpt lat="46.3838" lon="5.68399">
        <ele>668.4</ele>
        <time>2014-05-03T15:41:22.274Z</time>
      </trkpt>
      <trkpt lat="46.38375" lon="5.68392">
        <ele>671</ele>
        <time>2014-05-03T15:41:25.458Z</time>
      </trkpt>
      <trkpt lat="46.3837" lon="5.68381">
        <ele>669.3</ele>
        <time>2014-05-03T15:41:28.276Z</time>
      </trkpt>
      <trkpt lat="46.38369" lon="5.68368">
        <ele>668.3</ele>
        <time>2014-05-03T15:41:31.446Z</time>
      </trkpt>
      <trkpt lat="46.38368" lon="5.68362">
        <ele>665.8</ele>
        <time>2014-05-03T15:41:34.316Z</time>
      </trkpt>
      <trkpt lat="46.38366" lon="5.68354">
        <ele>662.3</ele>
        <time>2014-05-03T15:41:37.359Z</time>
      </trkpt>
      <trkpt lat="46.38364" lon="5.6834">
        <ele>659.9</ele>
        <time>2014-05-03T15:41:40.323Z</time>
      </trkpt>
      <trkpt lat="46.38362" lon="5.68325">
        <ele>653.1</ele>
        <time>2014-05-03T15:41:43.269Z</time>
      </trkpt>
      <trkpt lat="46.38359" lon="5.68306">
        <ele>650</ele>
        <time>2014-05-03T15:41:46.319Z</time>
      </trkpt>
      <trkpt lat="46.38353" lon="5.6829">
        <ele>647.2</ele>
        <time>2014-05-03T15:41:49.271Z</time>
      </trkpt>
      <trkpt lat="46.3835" lon="5.68277">
        <ele>644.8</ele>
        <time>2014-05-03T15:41:52.446Z</time>
      </trkpt>
      <trkpt lat="46.3835" lon="5.68267">
        <ele>643.8</ele>
        <time>2014-05-03T15:41:55.275Z</time>
      </trkpt>
      <trkpt lat="46.3835" lon="5.68259">
        <ele>642.2</ele>
        <time>2014-05-03T15:41:58.452Z</time>
      </trkpt>
      <trkpt lat="46.38352" lon="5.68249">
        <ele>640.4</ele>
        <time>2014-05-03T15:42:01.298Z</time>
      </trkpt>
      <trkpt lat="46.38355" lon="5.68236">
        <ele>639.6</ele>
        <time>2014-05-03T15:42:04.413Z</time>
      </trkpt>
      <trkpt lat="46.38355" lon="5.68227">
        <ele>640.1</ele>
        <time>2014-05-03T15:42:07.314Z</time>
      </trkpt>
      <trkpt lat="46.38354" lon="5.68217">
        <ele>640.3</ele>
        <time>2014-05-03T15:42:10.327Z</time>
      </trkpt>
      <trkpt lat="46.38349" lon="5.68205">
        <ele>640.1</ele>
        <time>2014-05-03T15:42:13.357Z</time>
      </trkpt>
      <trkpt lat="46.38345" lon="5.68193">
        <ele>639.4</ele>
        <time>2014-05-03T15:42:16.271Z</time>
      </trkpt>
      <trkpt lat="46.38341" lon="5.68182">
        <ele>639.5</ele>
        <time>2014-05-03T15:42:19.408Z</time>
      </trkpt>
      <trkpt lat="46.38334" lon="5.6817">
        <ele>638.3</ele>
        <time>2014-05-03T15:42:22.273Z</time>
      </trkpt>
      <trkpt lat="46.38326" lon="5.6815">
        <ele>638</ele>
        <time>2014-05-03T15:42:25.426Z</time>
      </trkpt>
      <trkpt lat="46.38324" lon="5.68131">
        <ele>635.5</ele>
        <time>2014-05-03T15:42:28.287Z</time>
      </trkpt>
      <trkpt lat="46.38324" lon="5.68111">
        <ele>635.6</ele>
        <time>2014-05-03T15:42:31.453Z</time>
      </trkpt>
      <trkpt lat="46.3832" lon="5.681">
        <ele>637.6</ele>
        <time>2014-05-03T15:42:34.318Z</time>
      </trkpt>
      <trkpt lat="46.38316" lon="5.68096">
        <ele>634.9</ele>
        <time>2014-05-03T15:42:37.380Z</time>
      </trkpt>
      <trkpt lat="46.38315" lon="5.68094">
        <ele>633.8</ele>
        <time>2014-05-03T15:42:40.352Z</time>
      </trkpt>
      <trkpt lat="46.38315" lon="5.68093">
        <ele>633.6</ele>
        <time>2014-05-03T15:42:43.283Z</time>
      </trkpt>
      <trkpt lat="46.38315" lon="5.68092">
        <ele>633.7</ele>
        <time>2014-05-03T15:42:46.407Z</time>
      </trkpt>
      <trkpt lat="46.38314" lon="5.68091">
        <ele>633.6</ele>
        <time>2014-05-03T15:42:49.268Z</time>
      </trkpt>
      <trkpt lat="46.38313" lon="5.68089">
        <ele>632.8</ele>
        <time>2014-05-03T15:42:52.428Z</time>
      </trkpt>
      <trkpt lat="46.38311" lon="5.68086">
        <ele>633.3</ele>
        <time>2014-05-03T15:42:55.279Z</time>
      </trkpt>
      <trkpt lat="46.38305" lon="5.6808">
        <ele>636.1</ele>
        <time>2014-05-03T15:42:58.422Z</time>
      </trkpt>
      <trkpt lat="46.38295" lon="5.68074">
        <ele>635</ele>
        <time>2014-05-03T15:43:01.276Z</time>
      </trkpt>
      <trkpt lat="46.38283" lon="5.68069">
        <ele>632</ele>
        <time>2014-05-03T15:43:04.429Z</time>
      </trkpt>
      <trkpt lat="46.38274" lon="5.68066">
        <ele>632.1</ele>
        <time>2014-05-03T15:43:07.324Z</time>
      </trkpt>
      <trkpt lat="46.38266" lon="5.68066">
        <ele>629.4</ele>
        <time>2014-05-03T15:43:10.341Z</time>
      </trkpt>
      <trkpt lat="46.38258" lon="5.68068">
        <ele>627</ele>
        <time>2014-05-03T15:43:13.319Z</time>
      </trkpt>
      <trkpt lat="46.3825" lon="5.68068">
        <ele>621.9</ele>
        <time>2014-05-03T15:43:16.270Z</time>
      </trkpt>
      <trkpt lat="46.3824" lon="5.68064">
        <ele>615.5</ele>
        <time>2014-05-03T15:43:19.291Z</time>
      </trkpt>
      <trkpt lat="46.38237" lon="5.68066">
        <ele>613.6</ele>
        <time>2014-05-03T15:43:22.271Z</time>
      </trkpt>
      <trkpt lat="46.38239" lon="5.68072">
        <ele>609.3</ele>
        <time>2014-05-03T15:43:25.427Z</time>
      </trkpt>
      <trkpt lat="46.3824" lon="5.68079">
        <ele>606.3</ele>
        <time>2014-05-03T15:43:28.281Z</time>
      </trkpt>
      <trkpt lat="46.3824" lon="5.68085">
        <ele>604.8</ele>
        <time>2014-05-03T15:43:31.455Z</time>
      </trkpt>
      <trkpt lat="46.3824" lon="5.68091">
        <ele>604.3</ele>
        <time>2014-05-03T15:43:34.297Z</time>
      </trkpt>
      <trkpt lat="46.3824" lon="5.68097">
        <ele>604</ele>
        <time>2014-05-03T15:43:37.388Z</time>
      </trkpt>
      <trkpt lat="46.3824" lon="5.68104">
        <ele>605.6</ele>
        <time>2014-05-03T15:43:40.315Z</time>
      </trkpt>
      <trkpt lat="46.38238" lon="5.6811">
        <ele>607.6</ele>
        <time>2014-05-03T15:43:43.312Z</time>
      </trkpt>
      <trkpt lat="46.38237" lon="5.68115">
        <ele>609.2</ele>
        <time>2014-05-03T15:43:46.392Z</time>
      </trkpt>
      <trkpt lat="46.38237" lon="5.6812">
        <ele>610.3</ele>
        <time>2014-05-03T15:43:49.271Z</time>
      </trkpt>
      <trkpt lat="46.38238" lon="5.68126">
        <ele>612</ele>
        <time>2014-05-03T15:43:52.486Z</time>
      </trkpt>
      <trkpt lat="46.38238" lon="5.68133">
        <ele>611.3</ele>
        <time>2014-05-03T15:43:55.277Z</time>
      </trkpt>
      <trkpt lat="46.38239" lon="5.68139">
        <ele>613</ele>
        <time>2014-05-03T15:43:58.465Z</time>
      </trkpt>
      <trkpt lat="46.38241" lon="5.68144">
        <ele>613.9</ele>
        <time>2014-05-03T15:44:01.291Z</time>
      </trkpt>
      <trkpt lat="46.38242" lon="5.6815">
        <ele>614.5</ele>
        <time>2014-05-03T15:44:04.453Z</time>
      </trkpt>
      <trkpt lat="46.38243" lon="5.68158">
        <ele>615.2</ele>
        <time>2014-05-03T15:44:07.319Z</time>
      </trkpt>
      <trkpt lat="46.38244" lon="5.68166">
        <ele>616</ele>
        <time>2014-05-03T15:44:10.349Z</time>
      </trkpt>
      <trkpt lat="46.38245" lon="5.68174">
        <ele>616.5</ele>
        <time>2014-05-03T15:44:13.367Z</time>
      </trkpt>
      <trkpt lat="46.38246" lon="5.68181">
        <ele>617.3</ele>
        <time>2014-05-03T15:44:16.273Z</time>
      </trkpt>
      <trkpt lat="46.38246" lon="5.68189">
        <ele>617.9</ele>
        <time>2014-05-03T15:44:19.451Z</time>
      </trkpt>
      <trkpt lat="46.38245" lon="5.68196">
        <ele>619.1</ele>
        <time>2014-05-03T15:44:22.271Z</time>
      </trkpt>
      <trkpt lat="46.38243" lon="5.68205">
        <ele>618.7</ele>
        <time>2014-05-03T15:44:25.479Z</time>
      </trkpt>
      <trkpt lat="46.38236" lon="5.68217">
        <ele>616.9</ele>
        <time>2014-05-03T15:44:28.278Z</time>
      </trkpt>
      <trkpt lat="46.38227" lon="5.68226">
        <ele>616.6</ele>
        <time>2014-05-03T15:44:31.435Z</time>
      </trkpt>
      <trkpt lat="46.3822" lon="5.68236">
        <ele>614.9</ele>
        <time>2014-05-03T15:44:34.309Z</time>
      </trkpt>
      <trkpt lat="46.38219" lon="5.68248">
        <ele>612.6</ele>
        <time>2014-05-03T15:44:37.420Z</time>
      </trkpt>
      <trkpt lat="46.38223" lon="5.68263">
        <ele>610.9</ele>
        <time>2014-05-03T15:44:40.324Z</time>
      </trkpt>
      <trkpt lat="46.3823" lon="5.68278">
        <ele>610.2</ele>
        <time>2014-05-03T15:44:43.312Z</time>
      </trkpt>
      <trkpt lat="46.38238" lon="5.68288">
        <ele>609.8</ele>
        <time>2014-05-03T15:44:46.409Z</time>
      </trkpt>
      <trkpt lat="46.38244" lon="5.68295">
        <ele>609.4</ele>
        <time>2014-05-03T15:44:49.271Z</time>
      </trkpt>
      <trkpt lat="46.3825" lon="5.68303">
        <ele>608.4</ele>
        <time>2014-05-03T15:44:52.457Z</time>
      </trkpt>
      <trkpt lat="46.38257" lon="5.68315">
        <ele>607.1</ele>
        <time>2014-05-03T15:44:55.271Z</time>
      </trkpt>
      <trkpt lat="46.38265" lon="5.68328">
        <ele>606.5</ele>
        <time>2014-05-03T15:44:58.446Z</time>
      </trkpt>
      <trkpt lat="46.38272" lon="5.6834">
        <ele>607</ele>
        <time>2014-05-03T15:45:01.278Z</time>
      </trkpt>
      <trkpt lat="46.38276" lon="5.68352">
        <ele>608</ele>
        <time>2014-05-03T15:45:04.438Z</time>
      </trkpt>
      <trkpt lat="46.38277" lon="5.68364">
        <ele>607</ele>
        <time>2014-05-03T15:45:07.310Z</time>
      </trkpt>
      <trkpt lat="46.38271" lon="5.68386">
        <ele>607.2</ele>
        <time>2014-05-03T15:45:10.340Z</time>
      </trkpt>
      <trkpt lat="46.38273" lon="5.68404">
        <ele>605.7</ele>
        <time>2014-05-03T15:45:13.318Z</time>
      </trkpt>
      <trkpt lat="46.38275" lon="5.6842">
        <ele>605.9</ele>
        <time>2014-05-03T15:45:16.286Z</time>
      </trkpt>
      <trkpt lat="46.38276" lon="5.68436">
        <ele>603.3</ele>
        <time>2014-05-03T15:45:19.437Z</time>
      </trkpt>
      <trkpt lat="46.38274" lon="5.68449">
        <ele>599.9</ele>
        <time>2014-05-03T15:45:22.270Z</time>
      </trkpt>
      <trkpt lat="46.38271" lon="5.68465">
        <ele>596.5</ele>
        <time>2014-05-03T15:45:25.429Z</time>
      </trkpt>
      <trkpt lat="46.38269" lon="5.68483">
        <ele>594.7</ele>
        <time>2014-05-03T15:45:28.277Z</time>
      </trkpt>
      <trkpt lat="46.38264" lon="5.68496">
        <ele>593.6</ele>
        <time>2014-05-03T15:45:31.335Z</time>
      </trkpt>
      <trkpt lat="46.38249" lon="5.68499">
        <ele>595.4</ele>
        <time>2014-05-03T15:45:34.285Z</time>
      </trkpt>
      <trkpt lat="46.38239" lon="5.68512">
        <ele>592.5</ele>
        <time>2014-05-03T15:45:37.431Z</time>
      </trkpt>
      <trkpt lat="46.38242" lon="5.68535">
        <ele>591.2</ele>
        <time>2014-05-03T15:45:40.283Z</time>
      </trkpt>
      <trkpt lat="46.38245" lon="5.68556">
        <ele>590.5</ele>
        <time>2014-05-03T15:45:43.335Z</time>
      </trkpt>
      <trkpt lat="46.38242" lon="5.68576">
        <ele>588</ele>
        <time>2014-05-03T15:45:46.353Z</time>
      </trkpt>
      <trkpt lat="46.38237" lon="5.68587">
        <ele>587</ele>
        <time>2014-05-03T15:45:49.270Z</time>
      </trkpt>
      <trkpt lat="46.38239" lon="5.68595">
        <ele>585.6</ele>
        <time>2014-05-03T15:45:52.433Z</time>
      </trkpt>
      <trkpt lat="46.38241" lon="5.68602">
        <ele>586.3</ele>
        <time>2014-05-03T15:45:55.271Z</time>
      </trkpt>
      <trkpt lat="46.38241" lon="5.68608">
        <ele>588.7</ele>
        <time>2014-05-03T15:45:58.398Z</time>
      </trkpt>
      <trkpt lat="46.3824" lon="5.68612">
        <ele>591.2</ele>
        <time>2014-05-03T15:46:01.278Z</time>
      </trkpt>
      <trkpt lat="46.38237" lon="5.68617">
        <ele>591.6</ele>
        <time>2014-05-03T15:46:04.391Z</time>
      </trkpt>
      <trkpt lat="46.38232" lon="5.68619">
        <ele>595.1</ele>
        <time>2014-05-03T15:46:07.305Z</time>
      </trkpt>
      <trkpt lat="46.38227" lon="5.68619">
        <ele>595.7</ele>
        <time>2014-05-03T15:46:10.382Z</time>
      </trkpt>
      <trkpt lat="46.38223" lon="5.68619">
        <ele>595.3</ele>
        <time>2014-05-03T15:46:13.352Z</time>
      </trkpt>
      <trkpt lat="46.38222" lon="5.68619">
        <ele>596.1</ele>
        <time>2014-05-03T15:46:16.293Z</time>
      </trkpt>
      <trkpt lat="46.3822" lon="5.68613">
        <ele>595.3</ele>
        <time>2014-05-03T15:46:19.324Z</time>
      </trkpt>
      <trkpt lat="46.38219" lon="5.68604">
        <ele>598.3</ele>
        <time>2014-05-03T15:46:22.271Z</time>
      </trkpt>
      <trkpt lat="46.38219" lon="5.68597">
        <ele>598</ele>
        <time>2014-05-03T15:46:25.391Z</time>
      </trkpt>
      <trkpt lat="46.38216" lon="5.68594">
        <ele>599.4</ele>
        <time>2014-05-03T15:46:28.271Z</time>
      </trkpt>
      <trkpt lat="46.38213" lon="5.68592">
        <ele>600.6</ele>
        <time>2014-05-03T15:46:31.460Z</time>
      </trkpt>
      <trkpt lat="46.38208" lon="5.68593">
        <ele>602.1</ele>
        <time>2014-05-03T15:46:34.288Z</time>
      </trkpt>
      <trkpt lat="46.38203" lon="5.68596">
        <ele>604.5</ele>
        <time>2014-05-03T15:46:37.453Z</time>
      </trkpt>
      <trkpt lat="46.38196" lon="5.68598">
        <ele>610</ele>
        <time>2014-05-03T15:46:40.330Z</time>
      </trkpt>
      <trkpt lat="46.38187" lon="5.68595">
        <ele>611.8</ele>
        <time>2014-05-03T15:46:43.360Z</time>
      </trkpt>
      <trkpt lat="46.38183" lon="5.68594">
        <ele>611.5</ele>
        <time>2014-05-03T15:46:46.440Z</time>
      </trkpt>
      <trkpt lat="46.38181" lon="5.68592">
        <ele>612.9</ele>
        <time>2014-05-03T15:46:49.269Z</time>
      </trkpt>
      <trkpt lat="46.38176" lon="5.6859">
        <ele>613.5</ele>
        <time>2014-05-03T15:46:52.412Z</time>
      </trkpt>
      <trkpt lat="46.3817" lon="5.6859">
        <ele>613.4</ele>
        <time>2014-05-03T15:46:55.271Z</time>
      </trkpt>
      <trkpt lat="46.38167" lon="5.6859">
        <ele>615.2</ele>
        <time>2014-05-03T15:46:58.474Z</time>
      </trkpt>
      <trkpt lat="46.38159" lon="5.68592">
        <ele>613.8</ele>
        <time>2014-05-03T15:47:01.277Z</time>
      </trkpt>
      <trkpt lat="46.38152" lon="5.68595">
        <ele>613</ele>
        <time>2014-05-03T15:47:04.463Z</time>
      </trkpt>
      <trkpt lat="46.38145" lon="5.68596">
        <ele>612.1</ele>
        <time>2014-05-03T15:47:07.345Z</time>
      </trkpt>
      <trkpt lat="46.38144" lon="5.68596">
        <ele>612.6</ele>
        <time>2014-05-03T15:47:10.320Z</time>
      </trkpt>
      <trkpt lat="46.38142" lon="5.68595">
        <ele>613</ele>
        <time>2014-05-03T15:47:13.374Z</time>
      </trkpt>
      <trkpt lat="46.38142" lon="5.68595">
        <ele>613.2</ele>
        <time>2014-05-03T15:47:16.345Z</time>
      </trkpt>
      <trkpt lat="46.3814" lon="5.68597">
        <ele>612.8</ele>
        <time>2014-05-03T15:47:19.376Z</time>
      </trkpt>
      <trkpt lat="46.38138" lon="5.68604">
        <ele>611</ele>
        <time>2014-05-03T15:47:22.272Z</time>
      </trkpt>
      <trkpt lat="46.38133" lon="5.68614">
        <ele>610.9</ele>
        <time>2014-05-03T15:47:25.448Z</time>
      </trkpt>
      <trkpt lat="46.38128" lon="5.68622">
        <ele>616.1</ele>
        <time>2014-05-03T15:47:28.273Z</time>
      </trkpt>
      <trkpt lat="46.38123" lon="5.68625">
        <ele>617.9</ele>
        <time>2014-05-03T15:47:31.318Z</time>
      </trkpt>
      <trkpt lat="46.38118" lon="5.68622">
        <ele>618.3</ele>
        <time>2014-05-03T15:47:34.275Z</time>
      </trkpt>
      <trkpt lat="46.38113" lon="5.68613">
        <ele>624.4</ele>
        <time>2014-05-03T15:47:37.463Z</time>
      </trkpt>
      <trkpt lat="46.38111" lon="5.68605">
        <ele>626.4</ele>
        <time>2014-05-03T15:47:40.313Z</time>
      </trkpt>
      <trkpt lat="46.38109" lon="5.68598">
        <ele>628.2</ele>
        <time>2014-05-03T15:47:43.380Z</time>
      </trkpt>
      <trkpt lat="46.38106" lon="5.68593">
        <ele>629.7</ele>
        <time>2014-05-03T15:47:46.386Z</time>
      </trkpt>
      <trkpt lat="46.38101" lon="5.68587">
        <ele>630.2</ele>
        <time>2014-05-03T15:47:49.281Z</time>
      </trkpt>
      <trkpt lat="46.38096" lon="5.6858">
        <ele>632.8</ele>
        <time>2014-05-03T15:47:52.453Z</time>
      </trkpt>
      <trkpt lat="46.3809" lon="5.68573">
        <ele>635</ele>
        <time>2014-05-03T15:47:55.272Z</time>
      </trkpt>
      <trkpt lat="46.38084" lon="5.68569">
        <ele>635.9</ele>
        <time>2014-05-03T15:47:58.450Z</time>
      </trkpt>
      <trkpt lat="46.38079" lon="5.68564">
        <ele>635.4</ele>
        <time>2014-05-03T15:48:01.273Z</time>
      </trkpt>
      <trkpt lat="46.38073" lon="5.6856">
        <ele>636</ele>
        <time>2014-05-03T15:48:04.427Z</time>
      </trkpt>
      <trkpt lat="46.38065" lon="5.68554">
        <ele>632.8</ele>
        <time>2014-05-03T15:48:07.318Z</time>
      </trkpt>
      <trkpt lat="46.38054" lon="5.68552">
        <ele>631</ele>
        <time>2014-05-03T15:48:10.436Z</time>
      </trkpt>
      <trkpt lat="46.38045" lon="5.68552">
        <ele>631.1</ele>
        <time>2014-05-03T15:48:13.309Z</time>
      </trkpt>
      <trkpt lat="46.38038" lon="5.68551">
        <ele>632.6</ele>
        <time>2014-05-03T15:48:16.346Z</time>
      </trkpt>
      <trkpt lat="46.38032" lon="5.68551">
        <ele>632.1</ele>
        <time>2014-05-03T15:48:19.350Z</time>
      </trkpt>
      <trkpt lat="46.38026" lon="5.68548">
        <ele>635.4</ele>
        <time>2014-05-03T15:48:22.271Z</time>
      </trkpt>
      <trkpt lat="46.38017" lon="5.68545">
        <ele>638.2</ele>
        <time>2014-05-03T15:48:25.464Z</time>
      </trkpt>
      <trkpt lat="46.38009" lon="5.68538">
        <ele>643.4</ele>
        <time>2014-05-03T15:48:28.271Z</time>
      </trkpt>
      <trkpt lat="46.38004" lon="5.6853">
        <ele>646.3</ele>
        <time>2014-05-03T15:48:31.462Z</time>
      </trkpt>
      <trkpt lat="46.38" lon="5.68521">
        <ele>649.8</ele>
        <time>2014-05-03T15:48:34.275Z</time>
      </trkpt>
      <trkpt lat="46.37996" lon="5.68515">
        <ele>651</ele>
        <time>2014-05-03T15:48:37.413Z</time>
      </trkpt>
      <trkpt lat="46.37993" lon="5.68512">
        <ele>651.3</ele>
        <time>2014-05-03T15:48:40.312Z</time>
      </trkpt>
      <trkpt lat="46.37991" lon="5.68507">
        <ele>651.8</ele>
        <time>2014-05-03T15:48:43.393Z</time>
      </trkpt>
      <trkpt lat="46.37986" lon="5.68498">
        <ele>653</ele>
        <time>2014-05-03T15:48:46.386Z</time>
      </trkpt>
      <trkpt lat="46.37983" lon="5.6849">
        <ele>656.9</ele>
        <time>2014-05-03T15:48:49.312Z</time>
      </trkpt>
      <trkpt lat="46.3798" lon="5.6848">
        <ele>659.3</ele>
        <time>2014-05-03T15:48:52.420Z</time>
      </trkpt>
      <trkpt lat="46.37975" lon="5.68467">
        <ele>660.6</ele>
        <time>2014-05-03T15:48:55.270Z</time>
      </trkpt>
      <trkpt lat="46.37971" lon="5.68458">
        <ele>658.9</ele>
        <time>2014-05-03T15:48:58.470Z</time>
      </trkpt>
      <trkpt lat="46.37967" lon="5.68452">
        <ele>659.3</ele>
        <time>2014-05-03T15:49:01.279Z</time>
      </trkpt>
      <trkpt lat="46.37962" lon="5.68444">
        <ele>660.2</ele>
        <time>2014-05-03T15:49:04.467Z</time>
      </trkpt>
      <trkpt lat="46.37957" lon="5.68436">
        <ele>662.2</ele>
        <time>2014-05-03T15:49:07.295Z</time>
      </trkpt>
      <trkpt lat="46.37952" lon="5.68429">
        <ele>663.2</ele>
        <time>2014-05-03T15:49:10.362Z</time>
      </trkpt>
      <trkpt lat="46.37949" lon="5.68425">
        <ele>665.9</ele>
        <time>2014-05-03T15:49:13.322Z</time>
      </trkpt>
      <trkpt lat="46.37947" lon="5.68417">
        <ele>667.7</ele>
        <time>2014-05-03T15:49:16.354Z</time>
      </trkpt>
      <trkpt lat="46.37945" lon="5.68412">
        <ele>666.8</ele>
        <time>2014-05-03T15:49:19.367Z</time>
      </trkpt>
      <trkpt lat="46.37941" lon="5.68406">
        <ele>666.5</ele>
        <time>2014-05-03T15:49:22.269Z</time>
      </trkpt>
      <trkpt lat="46.37933" lon="5.68395">
        <ele>667.5</ele>
        <time>2014-05-03T15:49:25.406Z</time>
      </trkpt>
      <trkpt lat="46.37928" lon="5.68383">
        <ele>670.3</ele>
        <time>2014-05-03T15:49:28.271Z</time>
      </trkpt>
      <trkpt lat="46.37924" lon="5.68372">
        <ele>672.7</ele>
        <time>2014-05-03T15:49:31.429Z</time>
      </trkpt>
      <trkpt lat="46.37921" lon="5.68363">
        <ele>671</ele>
        <time>2014-05-03T15:49:34.283Z</time>
      </trkpt>
      <trkpt lat="46.37915" lon="5.68354">
        <ele>669.8</ele>
        <time>2014-05-03T15:49:37.426Z</time>
      </trkpt>
      <trkpt lat="46.3791" lon="5.68345">
        <ele>669.8</ele>
        <time>2014-05-03T15:49:40.324Z</time>
      </trkpt>
      <trkpt lat="46.37904" lon="5.68332">
        <ele>672.9</ele>
        <time>2014-05-03T15:49:43.417Z</time>
      </trkpt>
      <trkpt lat="46.37897" lon="5.68318">
        <ele>671.5</ele>
        <time>2014-05-03T15:49:46.342Z</time>
      </trkpt>
      <trkpt lat="46.37889" lon="5.68308">
        <ele>669.9</ele>
        <time>2014-05-03T15:49:49.334Z</time>
      </trkpt>
      <trkpt lat="46.3788" lon="5.683">
        <ele>666.6</ele>
        <time>2014-05-03T15:49:52.414Z</time>
      </trkpt>
      <trkpt lat="46.37871" lon="5.68297">
        <ele>663</ele>
        <time>2014-05-03T15:49:55.271Z</time>
      </trkpt>
      <trkpt lat="46.3786" lon="5.68292">
        <ele>658.7</ele>
        <time>2014-05-03T15:49:58.332Z</time>
      </trkpt>
      <trkpt lat="46.37849" lon="5.68283">
        <ele>658.9</ele>
        <time>2014-05-03T15:50:01.276Z</time>
      </trkpt>
      <trkpt lat="46.3784" lon="5.68277">
        <ele>656.2</ele>
        <time>2014-05-03T15:50:04.475Z</time>
      </trkpt>
      <trkpt lat="46.37831" lon="5.68271">
        <ele>658</ele>
        <time>2014-05-03T15:50:07.288Z</time>
      </trkpt>
      <trkpt lat="46.37824" lon="5.68265">
        <ele>660.4</ele>
        <time>2014-05-03T15:50:10.366Z</time>
      </trkpt>
      <trkpt lat="46.37818" lon="5.68258">
        <ele>658.4</ele>
        <time>2014-05-03T15:50:13.311Z</time>
      </trkpt>
      <trkpt lat="46.37811" lon="5.68255">
        <ele>659.4</ele>
        <time>2014-05-03T15:50:16.389Z</time>
      </trkpt>
      <trkpt lat="46.37804" lon="5.68258">
        <ele>656</ele>
        <time>2014-05-03T15:50:19.395Z</time>
      </trkpt>
      <trkpt lat="46.37797" lon="5.68262">
        <ele>655.3</ele>
        <time>2014-05-03T15:50:22.298Z</time>
      </trkpt>
      <trkpt lat="46.37789" lon="5.68263">
        <ele>654.2</ele>
        <time>2014-05-03T15:50:25.550Z</time>
      </trkpt>
      <trkpt lat="46.37786" lon="5.68264">
        <ele>652.9</ele>
        <time>2014-05-03T15:50:28.272Z</time>
      </trkpt>
      <trkpt lat="46.3778" lon="5.68266">
        <ele>652.5</ele>
        <time>2014-05-03T15:50:31.329Z</time>
      </trkpt>
      <trkpt lat="46.37774" lon="5.68269">
        <ele>651.7</ele>
        <time>2014-05-03T15:50:34.274Z</time>
      </trkpt>
      <trkpt lat="46.37766" lon="5.68272">
        <ele>651.4</ele>
        <time>2014-05-03T15:50:37.499Z</time>
      </trkpt>
      <trkpt lat="46.37759" lon="5.68275">
        <ele>649.6</ele>
        <time>2014-05-03T15:50:40.317Z</time>
      </trkpt>
      <trkpt lat="46.37753" lon="5.68279">
        <ele>649</ele>
        <time>2014-05-03T15:50:43.426Z</time>
      </trkpt>
      <trkpt lat="46.37748" lon="5.68282">
        <ele>648.6</ele>
        <time>2014-05-03T15:50:46.314Z</time>
      </trkpt>
      <trkpt lat="46.37739" lon="5.68284">
        <ele>641.6</ele>
        <time>2014-05-03T15:50:49.356Z</time>
      </trkpt>
      <trkpt lat="46.37733" lon="5.68281">
        <ele>642.2</ele>
        <time>2014-05-03T15:50:52.438Z</time>
      </trkpt>
      <trkpt lat="46.37731" lon="5.6828">
        <ele>641.5</ele>
        <time>2014-05-03T15:50:55.271Z</time>
      </trkpt>
      <trkpt lat="46.37729" lon="5.68277">
        <ele>642.3</ele>
        <time>2014-05-03T15:50:58.439Z</time>
      </trkpt>
      <trkpt lat="46.37728" lon="5.68274">
        <ele>644.3</ele>
        <time>2014-05-03T15:51:01.273Z</time>
      </trkpt>
      <trkpt lat="46.37727" lon="5.6827">
        <ele>646.2</ele>
        <time>2014-05-03T15:51:04.504Z</time>
      </trkpt>
      <trkpt lat="46.37725" lon="5.68261">
        <ele>650.1</ele>
        <time>2014-05-03T15:51:07.289Z</time>
      </trkpt>
      <trkpt lat="46.3772" lon="5.68249">
        <ele>653.1</ele>
        <time>2014-05-03T15:51:10.497Z</time>
      </trkpt>
      <trkpt lat="46.37716" lon="5.68239">
        <ele>655</ele>
        <time>2014-05-03T15:51:13.317Z</time>
      </trkpt>
      <trkpt lat="46.37713" lon="5.68231">
        <ele>656.6</ele>
        <time>2014-05-03T15:51:16.411Z</time>
      </trkpt>
      <trkpt lat="46.3771" lon="5.68227">
        <ele>656.9</ele>
        <time>2014-05-03T15:51:19.483Z</time>
      </trkpt>
      <trkpt lat="46.37706" lon="5.68221">
        <ele>657</ele>
        <time>2014-05-03T15:51:22.323Z</time>
      </trkpt>
      <trkpt lat="46.37702" lon="5.6821">
        <ele>662.7</ele>
        <time>2014-05-03T15:51:25.481Z</time>
      </trkpt>
      <trkpt lat="46.37698" lon="5.68199">
        <ele>664.7</ele>
        <time>2014-05-03T15:51:28.272Z</time>
      </trkpt>
      <trkpt lat="46.37695" lon="5.68191">
        <ele>663.3</ele>
        <time>2014-05-03T15:51:31.504Z</time>
      </trkpt>
      <trkpt lat="46.37691" lon="5.68182">
        <ele>663.4</ele>
        <time>2014-05-03T15:51:34.290Z</time>
      </trkpt>
      <trkpt lat="46.37687" lon="5.68173">
        <ele>663.3</ele>
        <time>2014-05-03T15:51:37.465Z</time>
      </trkpt>
      <trkpt lat="46.37683" lon="5.68165">
        <ele>663.1</ele>
        <time>2014-05-03T15:51:40.303Z</time>
      </trkpt>
      <trkpt lat="46.3768" lon="5.68156">
        <ele>664.2</ele>
        <time>2014-05-03T15:51:43.463Z</time>
      </trkpt>
      <trkpt lat="46.37676" lon="5.68146">
        <ele>664.1</ele>
        <time>2014-05-03T15:51:46.348Z</time>
      </trkpt>
      <trkpt lat="46.37673" lon="5.6814">
        <ele>664.9</ele>
        <time>2014-05-03T15:51:49.363Z</time>
      </trkpt>
      <trkpt lat="46.37671" lon="5.68131">
        <ele>663.8</ele>
        <time>2014-05-03T15:51:52.397Z</time>
      </trkpt>
      <trkpt lat="46.37667" lon="5.68123">
        <ele>664.9</ele>
        <time>2014-05-03T15:51:55.288Z</time>
      </trkpt>
      <trkpt lat="46.37662" lon="5.6812">
        <ele>664.4</ele>
        <time>2014-05-03T15:51:58.421Z</time>
      </trkpt>
      <trkpt lat="46.37657" lon="5.68114">
        <ele>662.5</ele>
        <time>2014-05-03T15:52:01.272Z</time>
      </trkpt>
      <trkpt lat="46.3765" lon="5.68108">
        <ele>662.8</ele>
        <time>2014-05-03T15:52:04.345Z</time>
      </trkpt>
      <trkpt lat="46.37641" lon="5.68097">
        <ele>661.3</ele>
        <time>2014-05-03T15:52:07.283Z</time>
      </trkpt>
      <trkpt lat="46.37632" lon="5.6808">
        <ele>659.8</ele>
        <time>2014-05-03T15:52:10.515Z</time>
      </trkpt>
      <trkpt lat="46.37626" lon="5.68065">
        <ele>657.9</ele>
        <time>2014-05-03T15:52:13.325Z</time>
      </trkpt>
      <trkpt lat="46.37621" lon="5.68048">
        <ele>655</ele>
        <time>2014-05-03T15:52:16.427Z</time>
      </trkpt>
      <trkpt lat="46.37624" lon="5.68034">
        <ele>655</ele>
        <time>2014-05-03T15:52:19.337Z</time>
      </trkpt>
      <trkpt lat="46.37627" lon="5.68029">
        <ele>658.8</ele>
        <time>2014-05-03T15:52:22.329Z</time>
      </trkpt>
      <trkpt lat="46.37628" lon="5.68023">
        <ele>658.6</ele>
        <time>2014-05-03T15:52:25.390Z</time>
      </trkpt>
      <trkpt lat="46.37628" lon="5.68014">
        <ele>658.1</ele>
        <time>2014-05-03T15:52:28.273Z</time>
      </trkpt>
      <trkpt lat="46.37625" lon="5.68003">
        <ele>657.7</ele>
        <time>2014-05-03T15:52:31.397Z</time>
      </trkpt>
      <trkpt lat="46.37625" lon="5.67992">
        <ele>657.8</ele>
        <time>2014-05-03T15:52:34.275Z</time>
      </trkpt>
      <trkpt lat="46.37625" lon="5.67981">
        <ele>656.5</ele>
        <time>2014-05-03T15:52:37.479Z</time>
      </trkpt>
      <trkpt lat="46.37624" lon="5.6797">
        <ele>654.7</ele>
        <time>2014-05-03T15:52:40.293Z</time>
      </trkpt>
      <trkpt lat="46.37621" lon="5.67963">
        <ele>654.6</ele>
        <time>2014-05-03T15:52:43.483Z</time>
      </trkpt>
      <trkpt lat="46.37617" lon="5.67957">
        <ele>657.1</ele>
        <time>2014-05-03T15:52:46.308Z</time>
      </trkpt>
      <trkpt lat="46.37615" lon="5.6795">
        <ele>658.2</ele>
        <time>2014-05-03T15:52:49.386Z</time>
      </trkpt>
      <trkpt lat="46.37612" lon="5.67942">
        <ele>659.4</ele>
        <time>2014-05-03T15:52:52.362Z</time>
      </trkpt>
      <trkpt lat="46.3761" lon="5.67932">
        <ele>660.4</ele>
        <time>2014-05-03T15:52:55.299Z</time>
      </trkpt>
      <trkpt lat="46.3761" lon="5.6792">
        <ele>660.8</ele>
        <time>2014-05-03T15:52:58.485Z</time>
      </trkpt>
      <trkpt lat="46.37609" lon="5.6791">
        <ele>660.5</ele>
        <time>2014-05-03T15:53:01.272Z</time>
      </trkpt>
      <trkpt lat="46.37608" lon="5.67897">
        <ele>657.6</ele>
        <time>2014-05-03T15:53:04.468Z</time>
      </trkpt>
      <trkpt lat="46.37606" lon="5.67887">
        <ele>657.9</ele>
        <time>2014-05-03T15:53:07.273Z</time>
      </trkpt>
      <trkpt lat="46.37603" lon="5.67877">
        <ele>655.9</ele>
        <time>2014-05-03T15:53:10.489Z</time>
      </trkpt>
      <trkpt lat="46.37599" lon="5.67872">
        <ele>657.5</ele>
        <time>2014-05-03T15:53:13.314Z</time>
      </trkpt>
      <trkpt lat="46.37595" lon="5.6787">
        <ele>660.8</ele>
        <time>2014-05-03T15:53:16.437Z</time>
      </trkpt>
      <trkpt lat="46.37593" lon="5.67867">
        <ele>660</ele>
        <time>2014-05-03T15:53:19.299Z</time>
      </trkpt>
      <trkpt lat="46.37588" lon="5.6786">
        <ele>659.2</ele>
        <time>2014-05-03T15:53:22.284Z</time>
      </trkpt>
      <trkpt lat="46.37584" lon="5.67852">
        <ele>660.3</ele>
        <time>2014-05-03T15:53:25.324Z</time>
      </trkpt>
      <trkpt lat="46.37583" lon="5.67841">
        <ele>658.9</ele>
        <time>2014-05-03T15:53:28.271Z</time>
      </trkpt>
      <trkpt lat="46.37582" lon="5.67827">
        <ele>656.7</ele>
        <time>2014-05-03T15:53:31.391Z</time>
      </trkpt>
      <trkpt lat="46.37583" lon="5.67815">
        <ele>657.3</ele>
        <time>2014-05-03T15:53:34.273Z</time>
      </trkpt>
      <trkpt lat="46.37581" lon="5.67806">
        <ele>656.9</ele>
        <time>2014-05-03T15:53:37.463Z</time>
      </trkpt>
      <trkpt lat="46.3758" lon="5.67797">
        <ele>657.6</ele>
        <time>2014-05-03T15:53:40.277Z</time>
      </trkpt>
      <trkpt lat="46.37578" lon="5.67788">
        <ele>658.5</ele>
        <time>2014-05-03T15:53:43.466Z</time>
      </trkpt>
      <trkpt lat="46.37576" lon="5.67783">
        <ele>660.1</ele>
        <time>2014-05-03T15:53:46.313Z</time>
      </trkpt>
      <trkpt lat="46.37574" lon="5.67778">
        <ele>661.2</ele>
        <time>2014-05-03T15:53:49.329Z</time>
      </trkpt>
      <trkpt lat="46.37573" lon="5.67774">
        <ele>662.2</ele>
        <time>2014-05-03T15:53:52.301Z</time>
      </trkpt>
      <trkpt lat="46.37571" lon="5.67764">
        <ele>661</ele>
        <time>2014-05-03T15:53:55.314Z</time>
      </trkpt>
      <trkpt lat="46.37571" lon="5.67755">
        <ele>661.7</ele>
        <time>2014-05-03T15:53:58.328Z</time>
      </trkpt>
      <trkpt lat="46.37571" lon="5.67743">
        <ele>660</ele>
        <time>2014-05-03T15:54:01.273Z</time>
      </trkpt>
      <trkpt lat="46.37572" lon="5.67733">
        <ele>660.5</ele>
        <time>2014-05-03T15:54:04.361Z</time>
      </trkpt>
      <trkpt lat="46.37573" lon="5.67725">
        <ele>661.7</ele>
        <time>2014-05-03T15:54:07.282Z</time>
      </trkpt>
      <trkpt lat="46.37575" lon="5.6772">
        <ele>662.6</ele>
        <time>2014-05-03T15:54:10.369Z</time>
      </trkpt>
      <trkpt lat="46.37577" lon="5.67714">
        <ele>662.8</ele>
        <time>2014-05-03T15:54:13.275Z</time>
      </trkpt>
      <trkpt lat="46.37578" lon="5.67709">
        <ele>663.3</ele>
        <time>2014-05-03T15:54:16.458Z</time>
      </trkpt>
      <trkpt lat="46.3758" lon="5.67702">
        <ele>663.7</ele>
        <time>2014-05-03T15:54:19.333Z</time>
      </trkpt>
      <trkpt lat="46.37581" lon="5.67696">
        <ele>664.6</ele>
        <time>2014-05-03T15:54:22.365Z</time>
      </trkpt>
      <trkpt lat="46.37582" lon="5.67687">
        <ele>664.3</ele>
        <time>2014-05-03T15:54:25.381Z</time>
      </trkpt>
      <trkpt lat="46.37583" lon="5.67679">
        <ele>666.1</ele>
        <time>2014-05-03T15:54:28.285Z</time>
      </trkpt>
      <trkpt lat="46.37584" lon="5.67671">
        <ele>666.2</ele>
        <time>2014-05-03T15:54:31.415Z</time>
      </trkpt>
      <trkpt lat="46.37585" lon="5.67663">
        <ele>666.1</ele>
        <time>2014-05-03T15:54:34.273Z</time>
      </trkpt>
      <trkpt lat="46.37586" lon="5.67655">
        <ele>667.5</ele>
        <time>2014-05-03T15:54:37.471Z</time>
      </trkpt>
      <trkpt lat="46.37588" lon="5.67649">
        <ele>671</ele>
        <time>2014-05-03T15:54:40.288Z</time>
      </trkpt>
      <trkpt lat="46.37589" lon="5.67645">
        <ele>671.6</ele>
        <time>2014-05-03T15:54:43.394Z</time>
      </trkpt>
      <trkpt lat="46.37589" lon="5.67637">
        <ele>671.7</ele>
        <time>2014-05-03T15:54:46.325Z</time>
      </trkpt>
      <trkpt lat="46.37589" lon="5.6763">
        <ele>671.6</ele>
        <time>2014-05-03T15:54:49.416Z</time>
      </trkpt>
      <trkpt lat="46.37589" lon="5.67623">
        <ele>668.6</ele>
        <time>2014-05-03T15:54:52.324Z</time>
      </trkpt>
      <trkpt lat="46.37589" lon="5.67615">
        <ele>669.6</ele>
        <time>2014-05-03T15:54:55.283Z</time>
      </trkpt>
      <trkpt lat="46.37591" lon="5.67606">
        <ele>668.1</ele>
        <time>2014-05-03T15:54:58.342Z</time>
      </trkpt>
      <trkpt lat="46.37594" lon="5.67597">
        <ele>668.6</ele>
        <time>2014-05-03T15:55:01.272Z</time>
      </trkpt>
      <trkpt lat="46.37596" lon="5.67591">
        <ele>670.8</ele>
        <time>2014-05-03T15:55:04.454Z</time>
      </trkpt>
      <trkpt lat="46.37598" lon="5.67586">
        <ele>670.9</ele>
        <time>2014-05-03T15:55:07.273Z</time>
      </trkpt>
      <trkpt lat="46.376" lon="5.6758">
        <ele>670.9</ele>
        <time>2014-05-03T15:55:10.475Z</time>
      </trkpt>
      <trkpt lat="46.37602" lon="5.67572">
        <ele>671.6</ele>
        <time>2014-05-03T15:55:13.283Z</time>
      </trkpt>
      <trkpt lat="46.37604" lon="5.67566">
        <ele>673.6</ele>
        <time>2014-05-03T15:55:16.473Z</time>
      </trkpt>
      <trkpt lat="46.37606" lon="5.67557">
        <ele>671.9</ele>
        <time>2014-05-03T15:55:19.326Z</time>
      </trkpt>
      <trkpt lat="46.37608" lon="5.67546">
        <ele>671.4</ele>
        <time>2014-05-03T15:55:22.383Z</time>
      </trkpt>
      <trkpt lat="46.3761" lon="5.67538">
        <ele>672</ele>
        <time>2014-05-03T15:55:25.323Z</time>
      </trkpt>
      <trkpt lat="46.37613" lon="5.67532">
        <ele>673.2</ele>
        <time>2014-05-03T15:55:28.292Z</time>
      </trkpt>
      <trkpt lat="46.37616" lon="5.67525">
        <ele>672.6</ele>
        <time>2014-05-03T15:55:31.455Z</time>
      </trkpt>
      <trkpt lat="46.3762" lon="5.67518">
        <ele>671.9</ele>
        <time>2014-05-03T15:55:34.273Z</time>
      </trkpt>
      <trkpt lat="46.37622" lon="5.67513">
        <ele>672.7</ele>
        <time>2014-05-03T15:55:37.447Z</time>
      </trkpt>
      <trkpt lat="46.37625" lon="5.67507">
        <ele>671.6</ele>
        <time>2014-05-03T15:55:40.283Z</time>
      </trkpt>
      <trkpt lat="46.37629" lon="5.67502">
        <ele>673.5</ele>
        <time>2014-05-03T15:55:43.454Z</time>
      </trkpt>
      <trkpt lat="46.37634" lon="5.675">
        <ele>677</ele>
        <time>2014-05-03T15:55:46.317Z</time>
      </trkpt>
      <trkpt lat="46.37638" lon="5.67496">
        <ele>679.2</ele>
        <time>2014-05-03T15:55:49.438Z</time>
      </trkpt>
      <trkpt lat="46.37642" lon="5.67492">
        <ele>682.6</ele>
        <time>2014-05-03T15:55:52.339Z</time>
      </trkpt>
      <trkpt lat="46.37645" lon="5.67486">
        <ele>683.2</ele>
        <time>2014-05-03T15:55:55.347Z</time>
      </trkpt>
      <trkpt lat="46.37649" lon="5.67478">
        <ele>683.7</ele>
        <time>2014-05-03T15:55:58.374Z</time>
      </trkpt>
      <trkpt lat="46.37655" lon="5.67471">
        <ele>683.8</ele>
        <time>2014-05-03T15:56:01.272Z</time>
      </trkpt>
      <trkpt lat="46.3766" lon="5.67468">
        <ele>686.2</ele>
        <time>2014-05-03T15:56:04.454Z</time>
      </trkpt>
      <trkpt lat="46.37664" lon="5.67467">
        <ele>689.7</ele>
        <time>2014-05-03T15:56:07.273Z</time>
      </trkpt>
      <trkpt lat="46.37669" lon="5.67465">
        <ele>694.7</ele>
        <time>2014-05-03T15:56:10.339Z</time>
      </trkpt>
      <trkpt lat="46.37674" lon="5.67463">
        <ele>698.9</ele>
        <time>2014-05-03T15:56:13.281Z</time>
      </trkpt>
      <trkpt lat="46.37679" lon="5.6746">
        <ele>700.2</ele>
        <time>2014-05-03T15:56:16.445Z</time>
      </trkpt>
      <trkpt lat="46.37683" lon="5.67457">
        <ele>699</ele>
        <time>2014-05-03T15:56:19.317Z</time>
      </trkpt>
      <trkpt lat="46.37687" lon="5.6745">
        <ele>698.5</ele>
        <time>2014-05-03T15:56:22.394Z</time>
      </trkpt>
      <trkpt lat="46.37692" lon="5.67441">
        <ele>697.8</ele>
        <time>2014-05-03T15:56:25.305Z</time>
      </trkpt>
      <trkpt lat="46.37696" lon="5.6743">
        <ele>697</ele>
        <time>2014-05-03T15:56:28.307Z</time>
      </trkpt>
      <trkpt lat="46.37703" lon="5.67423">
        <ele>697.3</ele>
        <time>2014-05-03T15:56:31.367Z</time>
      </trkpt>
      <trkpt lat="46.37708" lon="5.67421">
        <ele>703</ele>
        <time>2014-05-03T15:56:34.273Z</time>
      </trkpt>
      <trkpt lat="46.37713" lon="5.67421">
        <ele>706.7</ele>
        <time>2014-05-03T15:56:37.444Z</time>
      </trkpt>
      <trkpt lat="46.37719" lon="5.67422">
        <ele>711.9</ele>
        <time>2014-05-03T15:56:40.274Z</time>
      </trkpt>
      <trkpt lat="46.37724" lon="5.67418">
        <ele>711.3</ele>
        <time>2014-05-03T15:56:43.447Z</time>
      </trkpt>
      <trkpt lat="46.37729" lon="5.67409">
        <ele>705.5</ele>
        <time>2014-05-03T15:56:46.290Z</time>
      </trkpt>
      <trkpt lat="46.37732" lon="5.67399">
        <ele>704.3</ele>
        <time>2014-05-03T15:56:49.424Z</time>
      </trkpt>
      <trkpt lat="46.37734" lon="5.67391">
        <ele>704.1</ele>
        <time>2014-05-03T15:56:52.324Z</time>
      </trkpt>
      <trkpt lat="46.37738" lon="5.67384">
        <ele>707.4</ele>
        <time>2014-05-03T15:56:55.366Z</time>
      </trkpt>
      <trkpt lat="46.37743" lon="5.67381">
        <ele>708.6</ele>
        <time>2014-05-03T15:56:58.369Z</time>
      </trkpt>
      <trkpt lat="46.3775" lon="5.67378">
        <ele>707.8</ele>
        <time>2014-05-03T15:57:01.272Z</time>
      </trkpt>
      <trkpt lat="46.37756" lon="5.67377">
        <ele>711.6</ele>
        <time>2014-05-03T15:57:04.397Z</time>
      </trkpt>
      <trkpt lat="46.37762" lon="5.67376">
        <ele>714</ele>
        <time>2014-05-03T15:57:07.278Z</time>
      </trkpt>
      <trkpt lat="46.37769" lon="5.67372">
        <ele>714.7</ele>
        <time>2014-05-03T15:57:10.334Z</time>
      </trkpt>
      <trkpt lat="46.37777" lon="5.67368">
        <ele>713.9</ele>
        <time>2014-05-03T15:57:13.288Z</time>
      </trkpt>
      <trkpt lat="46.37784" lon="5.67366">
        <ele>712.6</ele>
        <time>2014-05-03T15:57:16.464Z</time>
      </trkpt>
      <trkpt lat="46.37792" lon="5.67364">
        <ele>713.6</ele>
        <time>2014-05-03T15:57:19.302Z</time>
      </trkpt>
      <trkpt lat="46.37798" lon="5.6736">
        <ele>711.5</ele>
        <time>2014-05-03T15:57:22.424Z</time>
      </trkpt>
      <trkpt lat="46.37801" lon="5.67351">
        <ele>704.8</ele>
        <time>2014-05-03T15:57:25.327Z</time>
      </trkpt>
      <trkpt lat="46.37798" lon="5.67343">
        <ele>698.7</ele>
        <time>2014-05-03T15:57:28.345Z</time>
      </trkpt>
      <trkpt lat="46.37794" lon="5.6734">
        <ele>696.4</ele>
        <time>2014-05-03T15:57:31.360Z</time>
      </trkpt>
      <trkpt lat="46.37793" lon="5.67335">
        <ele>697.9</ele>
        <time>2014-05-03T15:57:34.280Z</time>
      </trkpt>
      <trkpt lat="46.37791" lon="5.67332">
        <ele>697.5</ele>
        <time>2014-05-03T15:57:37.293Z</time>
      </trkpt>
      <trkpt lat="46.37788" lon="5.67327">
        <ele>696.5</ele>
        <time>2014-05-03T15:57:40.319Z</time>
      </trkpt>
      <trkpt lat="46.37786" lon="5.67322">
        <ele>697.9</ele>
        <time>2014-05-03T15:57:43.272Z</time>
      </trkpt>
      <trkpt lat="46.37783" lon="5.67317">
        <ele>698.5</ele>
        <time>2014-05-03T15:57:46.273Z</time>
      </trkpt>
      <trkpt lat="46.37779" lon="5.67307">
        <ele>699.6</ele>
        <time>2014-05-03T15:57:49.278Z</time>
      </trkpt>
      <trkpt lat="46.37777" lon="5.67299">
        <ele>700.3</ele>
        <time>2014-05-03T15:57:52.273Z</time>
      </trkpt>
      <trkpt lat="46.37775" lon="5.67289">
        <ele>701.5</ele>
        <time>2014-05-03T15:57:55.276Z</time>
      </trkpt>
      <trkpt lat="46.37773" lon="5.67274">
        <ele>698</ele>
        <time>2014-05-03T15:57:58.273Z</time>
      </trkpt>
      <trkpt lat="46.37768" lon="5.67269">
        <ele>696.8</ele>
        <time>2014-05-03T15:58:01.282Z</time>
      </trkpt>
      <trkpt lat="46.37765" lon="5.67271">
        <ele>694.3</ele>
        <time>2014-05-03T15:58:04.278Z</time>
      </trkpt>
      <trkpt lat="46.37764" lon="5.67277">
        <ele>691</ele>
        <time>2014-05-03T15:58:07.210Z</time>
      </trkpt>
      <trkpt lat="46.37763" lon="5.67285">
        <ele>685.7</ele>
        <time>2014-05-03T15:58:10.141Z</time>
      </trkpt>
      <trkpt lat="46.37761" lon="5.67289">
        <ele>685.5</ele>
        <time>2014-05-03T15:58:13.086Z</time>
      </trkpt>
      <trkpt lat="46.37758" lon="5.67282">
        <ele>690.2</ele>
        <time>2014-05-03T15:58:16.027Z</time>
      </trkpt>
      <trkpt lat="46.37756" lon="5.67272">
        <ele>694.5</ele>
        <time>2014-05-03T15:58:18.965Z</time>
      </trkpt>
      <trkpt lat="46.37755" lon="5.67263">
        <ele>695.8</ele>
        <time>2014-05-03T15:58:21.906Z</time>
      </trkpt>
      <trkpt lat="46.37752" lon="5.67258">
        <ele>695.8</ele>
        <time>2014-05-03T15:58:24.846Z</time>
      </trkpt>
      <trkpt lat="46.37747" lon="5.67253">
        <ele>697.6</ele>
        <time>2014-05-03T15:58:27.785Z</time>
      </trkpt>
      <trkpt lat="46.37741" lon="5.67249">
        <ele>697.3</ele>
        <time>2014-05-03T15:58:30.782Z</time>
      </trkpt>
      <trkpt lat="46.37735" lon="5.67247">
        <ele>697.7</ele>
        <time>2014-05-03T15:58:33.783Z</time>
      </trkpt>
      <trkpt lat="46.37728" lon="5.67245">
        <ele>698.3</ele>
        <time>2014-05-03T15:58:36.788Z</time>
      </trkpt>
      <trkpt lat="46.37721" lon="5.67242">
        <ele>698.6</ele>
        <time>2014-05-03T15:58:39.786Z</time>
      </trkpt>
      <trkpt lat="46.37714" lon="5.67235">
        <ele>701.5</ele>
        <time>2014-05-03T15:58:42.782Z</time>
      </trkpt>
      <trkpt lat="46.37707" lon="5.67225">
        <ele>703.3</ele>
        <time>2014-05-03T15:58:45.782Z</time>
      </trkpt>
      <trkpt lat="46.37701" lon="5.6722">
        <ele>701.4</ele>
        <time>2014-05-03T15:58:48.782Z</time>
      </trkpt>
      <trkpt lat="46.37698" lon="5.67211">
        <ele>702.5</ele>
        <time>2014-05-03T15:58:51.783Z</time>
      </trkpt>
      <trkpt lat="46.37695" lon="5.67202">
        <ele>699.7</ele>
        <time>2014-05-03T15:58:54.783Z</time>
      </trkpt>
      <trkpt lat="46.37694" lon="5.67194">
        <ele>698.8</ele>
        <time>2014-05-03T15:58:57.783Z</time>
      </trkpt>
      <trkpt lat="46.37693" lon="5.67184">
        <ele>697.1</ele>
        <time>2014-05-03T15:59:00.865Z</time>
      </trkpt>
      <trkpt lat="46.37689" lon="5.67175">
        <ele>696.1</ele>
        <time>2014-05-03T15:59:03.799Z</time>
      </trkpt>
      <trkpt lat="46.37683" lon="5.67168">
        <ele>697.5</ele>
        <time>2014-05-03T15:59:06.785Z</time>
      </trkpt>
      <trkpt lat="46.37678" lon="5.67162">
        <ele>698.7</ele>
        <time>2014-05-03T15:59:09.847Z</time>
      </trkpt>
      <trkpt lat="46.37675" lon="5.67154">
        <ele>698.7</ele>
        <time>2014-05-03T15:59:12.798Z</time>
      </trkpt>
      <trkpt lat="46.37673" lon="5.67142">
        <ele>698.5</ele>
        <time>2014-05-03T15:59:15.792Z</time>
      </trkpt>
      <trkpt lat="46.37672" lon="5.67128">
        <ele>699</ele>
        <time>2014-05-03T15:59:18.849Z</time>
      </trkpt>
      <trkpt lat="46.37672" lon="5.67118">
        <ele>699</ele>
        <time>2014-05-03T15:59:21.806Z</time>
      </trkpt>
      <trkpt lat="46.37671" lon="5.67107">
        <ele>698.5</ele>
        <time>2014-05-03T15:59:24.796Z</time>
      </trkpt>
      <trkpt lat="46.37669" lon="5.67099">
        <ele>700.3</ele>
        <time>2014-05-03T15:59:27.887Z</time>
      </trkpt>
      <trkpt lat="46.37668" lon="5.67091">
        <ele>702</ele>
        <time>2014-05-03T15:59:30.803Z</time>
      </trkpt>
      <trkpt lat="46.37668" lon="5.67083">
        <ele>703.5</ele>
        <time>2014-05-03T15:59:33.785Z</time>
      </trkpt>
      <trkpt lat="46.37667" lon="5.67071">
        <ele>704.6</ele>
        <time>2014-05-03T15:59:36.900Z</time>
      </trkpt>
      <trkpt lat="46.37668" lon="5.6706">
        <ele>704.7</ele>
        <time>2014-05-03T15:59:39.827Z</time>
      </trkpt>
      <trkpt lat="46.37667" lon="5.67051">
        <ele>702.8</ele>
        <time>2014-05-03T15:59:42.796Z</time>
      </trkpt>
      <trkpt lat="46.37666" lon="5.67048">
        <ele>702.5</ele>
        <time>2014-05-03T15:59:45.880Z</time>
      </trkpt>
      <trkpt lat="46.37666" lon="5.67045">
        <ele>702.4</ele>
        <time>2014-05-03T15:59:48.845Z</time>
      </trkpt>
      <trkpt lat="46.37665" lon="5.67038">
        <ele>700.5</ele>
        <time>2014-05-03T15:59:51.796Z</time>
      </trkpt>
      <trkpt lat="46.37664" lon="5.6703">
        <ele>700.7</ele>
        <time>2014-05-03T15:59:54.851Z</time>
      </trkpt>
      <trkpt lat="46.37662" lon="5.67021">
        <ele>700.9</ele>
        <time>2014-05-03T15:59:57.853Z</time>
      </trkpt>
      <trkpt lat="46.37659" lon="5.67013">
        <ele>701.6</ele>
        <time>2014-05-03T16:00:00.800Z</time>
      </trkpt>
      <trkpt lat="46.37656" lon="5.67007">
        <ele>702.1</ele>
        <time>2014-05-03T16:00:03.824Z</time>
      </trkpt>
      <trkpt lat="46.37652" lon="5.66997">
        <ele>701</ele>
        <time>2014-05-03T16:00:06.857Z</time>
      </trkpt>
      <trkpt lat="46.3765" lon="5.66986">
        <ele>703.2</ele>
        <time>2014-05-03T16:00:09.806Z</time>
      </trkpt>
      <trkpt lat="46.37649" lon="5.66977">
        <ele>704.6</ele>
        <time>2014-05-03T16:00:12.791Z</time>
      </trkpt>
      <trkpt lat="46.37648" lon="5.66969">
        <ele>706</ele>
        <time>2014-05-03T16:00:15.894Z</time>
      </trkpt>
      <trkpt lat="46.37646" lon="5.66958">
        <ele>707.3</ele>
        <time>2014-05-03T16:00:18.825Z</time>
      </trkpt>
      <trkpt lat="46.37643" lon="5.66948">
        <ele>705.1</ele>
        <time>2014-05-03T16:00:21.786Z</time>
      </trkpt>
      <trkpt lat="46.37638" lon="5.66934">
        <ele>704.6</ele>
        <time>2014-05-03T16:00:24.815Z</time>
      </trkpt>
      <trkpt lat="46.37635" lon="5.66921">
        <ele>704.5</ele>
        <time>2014-05-03T16:00:27.824Z</time>
      </trkpt>
      <trkpt lat="46.37632" lon="5.6691">
        <ele>705.4</ele>
        <time>2014-05-03T16:00:30.792Z</time>
      </trkpt>
      <trkpt lat="46.37628" lon="5.66903">
        <ele>707</ele>
        <time>2014-05-03T16:00:33.827Z</time>
      </trkpt>
      <trkpt lat="46.37625" lon="5.66895">
        <ele>707.3</ele>
        <time>2014-05-03T16:00:36.813Z</time>
      </trkpt>
      <trkpt lat="46.37622" lon="5.66886">
        <ele>706.8</ele>
        <time>2014-05-03T16:00:39.791Z</time>
      </trkpt>
      <trkpt lat="46.37619" lon="5.66882">
        <ele>708.6</ele>
        <time>2014-05-03T16:00:42.843Z</time>
      </trkpt>
      <trkpt lat="46.37617" lon="5.66878">
        <ele>711.6</ele>
        <time>2014-05-03T16:00:45.858Z</time>
      </trkpt>
      <trkpt lat="46.37615" lon="5.66871">
        <ele>713</ele>
        <time>2014-05-03T16:00:48.803Z</time>
      </trkpt>
      <trkpt lat="46.37612" lon="5.66865">
        <ele>713.8</ele>
        <time>2014-05-03T16:00:51.815Z</time>
      </trkpt>
      <trkpt lat="46.3761" lon="5.66856">
        <ele>714.6</ele>
        <time>2014-05-03T16:00:54.842Z</time>
      </trkpt>
      <trkpt lat="46.37607" lon="5.6685">
        <ele>714.1</ele>
        <time>2014-05-03T16:00:57.810Z</time>
      </trkpt>
      <trkpt lat="46.37602" lon="5.66844">
        <ele>712.3</ele>
        <time>2014-05-03T16:01:00.799Z</time>
      </trkpt>
      <trkpt lat="46.37593" lon="5.66836">
        <ele>709.8</ele>
        <time>2014-05-03T16:01:03.832Z</time>
      </trkpt>
      <trkpt lat="46.3759" lon="5.66827">
        <ele>711.3</ele>
        <time>2014-05-03T16:01:06.817Z</time>
      </trkpt>
      <trkpt lat="46.37588" lon="5.66819">
        <ele>713.7</ele>
        <time>2014-05-03T16:01:09.785Z</time>
      </trkpt>
      <trkpt lat="46.37586" lon="5.66812">
        <ele>714.3</ele>
        <time>2014-05-03T16:01:12.806Z</time>
      </trkpt>
      <trkpt lat="46.37583" lon="5.66804">
        <ele>714.1</ele>
        <time>2014-05-03T16:01:15.824Z</time>
      </trkpt>
      <trkpt lat="46.37583" lon="5.66795">
        <ele>712.3</ele>
        <time>2014-05-03T16:01:18.783Z</time>
      </trkpt>
      <trkpt lat="46.37584" lon="5.66788">
        <ele>713.1</ele>
        <time>2014-05-03T16:01:21.792Z</time>
      </trkpt>
      <trkpt lat="46.37586" lon="5.66781">
        <ele>712.4</ele>
        <time>2014-05-03T16:01:24.784Z</time>
      </trkpt>
      <trkpt lat="46.37588" lon="5.66773">
        <ele>710.8</ele>
        <time>2014-05-03T16:01:27.784Z</time>
      </trkpt>
      <trkpt lat="46.37587" lon="5.66766">
        <ele>711.5</ele>
        <time>2014-05-03T16:01:30.784Z</time>
      </trkpt>
      <trkpt lat="46.37587" lon="5.66762">
        <ele>711.9</ele>
        <time>2014-05-03T16:01:33.783Z</time>
      </trkpt>
      <trkpt lat="46.37587" lon="5.66758">
        <ele>711.6</ele>
        <time>2014-05-03T16:01:36.839Z</time>
      </trkpt>
      <trkpt lat="46.37587" lon="5.66756">
        <ele>711.6</ele>
        <time>2014-05-03T16:01:39.784Z</time>
      </trkpt>
      <trkpt lat="46.37587" lon="5.66756">
        <ele>711.1</ele>
        <time>2014-05-03T16:01:42.783Z</time>
      </trkpt>
      <trkpt lat="46.37587" lon="5.66756">
        <ele>712.6</ele>
        <time>2014-05-03T16:01:45.855Z</time>
      </trkpt>
      <trkpt lat="46.37586" lon="5.66755">
        <ele>712.4</ele>
        <time>2014-05-03T16:01:48.784Z</time>
      </trkpt>
      <trkpt lat="46.37586" lon="5.66755">
        <ele>712.2</ele>
        <time>2014-05-03T16:01:51.784Z</time>
      </trkpt>
      <trkpt lat="46.37586" lon="5.66754">
        <ele>712.3</ele>
        <time>2014-05-03T16:01:54.792Z</time>
      </trkpt>
      <trkpt lat="46.37586" lon="5.6675">
        <ele>711.1</ele>
        <time>2014-05-03T16:01:57.783Z</time>
      </trkpt>
      <trkpt lat="46.37584" lon="5.66742">
        <ele>710.7</ele>
        <time>2014-05-03T16:02:00.786Z</time>
      </trkpt>
      <trkpt lat="46.37583" lon="5.66735">
        <ele>711.4</ele>
        <time>2014-05-03T16:02:03.784Z</time>
      </trkpt>
      <trkpt lat="46.37581" lon="5.66729">
        <ele>712.3</ele>
        <time>2014-05-03T16:02:06.784Z</time>
      </trkpt>
      <trkpt lat="46.37578" lon="5.66723">
        <ele>711.7</ele>
        <time>2014-05-03T16:02:09.788Z</time>
      </trkpt>
      <trkpt lat="46.37575" lon="5.66716">
        <ele>710.9</ele>
        <time>2014-05-03T16:02:12.782Z</time>
      </trkpt>
      <trkpt lat="46.37572" lon="5.66708">
        <ele>711.3</ele>
        <time>2014-05-03T16:02:15.786Z</time>
      </trkpt>
      <trkpt lat="46.3757" lon="5.66702">
        <ele>711</ele>
        <time>2014-05-03T16:02:18.842Z</time>
      </trkpt>
      <trkpt lat="46.37569" lon="5.66697">
        <ele>710.8</ele>
        <time>2014-05-03T16:02:21.858Z</time>
      </trkpt>
      <trkpt lat="46.3757" lon="5.66694">
        <ele>706.2</ele>
        <time>2014-05-03T16:02:24.802Z</time>
      </trkpt>
      <trkpt lat="46.37571" lon="5.66691">
        <ele>703.2</ele>
        <time>2014-05-03T16:02:27.854Z</time>
      </trkpt>
      <trkpt lat="46.37572" lon="5.6669">
        <ele>701.7</ele>
        <time>2014-05-03T16:02:30.857Z</time>
      </trkpt>
      <trkpt lat="46.37573" lon="5.66689">
        <ele>701.6</ele>
        <time>2014-05-03T16:02:33.811Z</time>
      </trkpt>
      <trkpt lat="46.37573" lon="5.66689">
        <ele>701.8</ele>
        <time>2014-05-03T16:02:36.817Z</time>
      </trkpt>
      <trkpt lat="46.37572" lon="5.66689">
        <ele>701.1</ele>
        <time>2014-05-03T16:02:39.806Z</time>
      </trkpt>
      <trkpt lat="46.37571" lon="5.66687">
        <ele>700.8</ele>
        <time>2014-05-03T16:02:42.834Z</time>
      </trkpt>
      <trkpt lat="46.3757" lon="5.66683">
        <ele>702.5</ele>
        <time>2014-05-03T16:02:45.786Z</time>
      </trkpt>
      <trkpt lat="46.37567" lon="5.66677">
        <ele>703</ele>
        <time>2014-05-03T16:02:48.784Z</time>
      </trkpt>
      <trkpt lat="46.37564" lon="5.66674">
        <ele>703.5</ele>
        <time>2014-05-03T16:02:51.785Z</time>
      </trkpt>
      <trkpt lat="46.37561" lon="5.6667">
        <ele>702.3</ele>
        <time>2014-05-03T16:02:54.783Z</time>
      </trkpt>
      <trkpt lat="46.37559" lon="5.66664">
        <ele>701.9</ele>
        <time>2014-05-03T16:02:57.783Z</time>
      </trkpt>
      <trkpt lat="46.37556" lon="5.66659">
        <ele>701.7</ele>
        <time>2014-05-03T16:03:00.783Z</time>
      </trkpt>
      <trkpt lat="46.37553" lon="5.66655">
        <ele>703</ele>
        <time>2014-05-03T16:03:03.787Z</time>
      </trkpt>
      <trkpt lat="46.37551" lon="5.66653">
        <ele>704.2</ele>
        <time>2014-05-03T16:03:06.797Z</time>
      </trkpt>
      <trkpt lat="46.3755" lon="5.66653">
        <ele>704.4</ele>
        <time>2014-05-03T16:03:09.784Z</time>
      </trkpt>
      <trkpt lat="46.37549" lon="5.66651">
        <ele>705.9</ele>
        <time>2014-05-03T16:03:12.789Z</time>
      </trkpt>
      <trkpt lat="46.37548" lon="5.66651">
        <ele>708.8</ele>
        <time>2014-05-03T16:03:15.785Z</time>
      </trkpt>
      <trkpt lat="46.37547" lon="5.66651">
        <ele>710</ele>
        <time>2014-05-03T16:03:18.786Z</time>
      </trkpt>
      <trkpt lat="46.37545" lon="5.66652">
        <ele>710.9</ele>
        <time>2014-05-03T16:03:21.784Z</time>
      </trkpt>
      <trkpt lat="46.37544" lon="5.66652">
        <ele>710.5</ele>
        <time>2014-05-03T16:03:24.794Z</time>
      </trkpt>
      <trkpt lat="46.37542" lon="5.6665">
        <ele>710.1</ele>
        <time>2014-05-03T16:03:27.784Z</time>
      </trkpt>
      <trkpt lat="46.3754" lon="5.66647">
        <ele>711.9</ele>
        <time>2014-05-03T16:03:30.785Z</time>
      </trkpt>
      <trkpt lat="46.37538" lon="5.66647">
        <ele>712.7</ele>
        <time>2014-05-03T16:03:33.791Z</time>
      </trkpt>
      <trkpt lat="46.37537" lon="5.66646">
        <ele>716</ele>
        <time>2014-05-03T16:03:36.784Z</time>
      </trkpt>
      <trkpt lat="46.37536" lon="5.66646">
        <ele>716.5</ele>
        <time>2014-05-03T16:03:39.801Z</time>
      </trkpt>
      <trkpt lat="46.37534" lon="5.66645">
        <ele>717.4</ele>
        <time>2014-05-03T16:03:42.822Z</time>
      </trkpt>
      <trkpt lat="46.37531" lon="5.66645">
        <ele>718.5</ele>
        <time>2014-05-03T16:03:45.811Z</time>
      </trkpt>
      <trkpt lat="46.37529" lon="5.66645">
        <ele>716.5</ele>
        <time>2014-05-03T16:03:48.783Z</time>
      </trkpt>
      <trkpt lat="46.37526" lon="5.66643">
        <ele>714.8</ele>
        <time>2014-05-03T16:03:51.925Z</time>
      </trkpt>
      <trkpt lat="46.37524" lon="5.66643">
        <ele>714.1</ele>
        <time>2014-05-03T16:03:54.825Z</time>
      </trkpt>
      <trkpt lat="46.37524" lon="5.66642">
        <ele>714.1</ele>
        <time>2014-05-03T16:03:57.785Z</time>
      </trkpt>
      <trkpt lat="46.37523" lon="5.66642">
        <ele>713.8</ele>
        <time>2014-05-03T16:04:00.899Z</time>
      </trkpt>
      <trkpt lat="46.37523" lon="5.66642">
        <ele>714</ele>
        <time>2014-05-03T16:04:03.814Z</time>
      </trkpt>
      <trkpt lat="46.37523" lon="5.66641">
        <ele>713.3</ele>
        <time>2014-05-03T16:04:06.793Z</time>
      </trkpt>
      <trkpt lat="46.37524" lon="5.66641">
        <ele>713.8</ele>
        <time>2014-05-03T16:04:09.784Z</time>
      </trkpt>
      <trkpt lat="46.37523" lon="5.66641">
        <ele>713.2</ele>
        <time>2014-05-03T16:04:12.783Z</time>
      </trkpt>
      <trkpt lat="46.37523" lon="5.66641">
        <ele>712.9</ele>
        <time>2014-05-03T16:04:15.782Z</time>
      </trkpt>
      <trkpt lat="46.37523" lon="5.66641">
        <ele>712.9</ele>
        <time>2014-05-03T16:04:18.783Z</time>
      </trkpt>
      <trkpt lat="46.37523" lon="5.66641">
        <ele>712.9</ele>
        <time>2014-05-03T16:04:21.783Z</time>
      </trkpt>
      <trkpt lat="46.37523" lon="5.66641">
        <ele>712.9</ele>
        <time>2014-05-03T16:04:24.784Z</time>
      </trkpt>
      <trkpt lat="46.37523" lon="5.66641">
        <ele>712.9</ele>
        <time>2014-05-03T16:04:27.799Z</time>
      </trkpt>
      <trkpt lat="46.37523" lon="5.66639">
        <ele>712.6</ele>
        <time>2014-05-03T16:04:30.817Z</time>
      </trkpt>
      <trkpt lat="46.37521" lon="5.66636">
        <ele>713.3</ele>
        <time>2014-05-03T16:04:33.808Z</time>
      </trkpt>
      <trkpt lat="46.37519" lon="5.66633">
        <ele>713.4</ele>
        <time>2014-05-03T16:04:36.784Z</time>
      </trkpt>
      <trkpt lat="46.37517" lon="5.6663">
        <ele>714.1</ele>
        <time>2014-05-03T16:04:39.806Z</time>
      </trkpt>
      <trkpt lat="46.37515" lon="5.66628">
        <ele>714.9</ele>
        <time>2014-05-03T16:04:42.816Z</time>
      </trkpt>
      <trkpt lat="46.37514" lon="5.66627">
        <ele>716.6</ele>
        <time>2014-05-03T16:04:45.786Z</time>
      </trkpt>
      <trkpt lat="46.37511" lon="5.66627">
        <ele>717.5</ele>
        <time>2014-05-03T16:04:48.849Z</time>
      </trkpt>
      <trkpt lat="46.37507" lon="5.66626">
        <ele>716.9</ele>
        <time>2014-05-03T16:04:51.828Z</time>
      </trkpt>
      <trkpt lat="46.37502" lon="5.66624">
        <ele>717</ele>
        <time>2014-05-03T16:04:54.786Z</time>
      </trkpt>
      <trkpt lat="46.37497" lon="5.66622">
        <ele>718</ele>
        <time>2014-05-03T16:04:57.856Z</time>
      </trkpt>
      <trkpt lat="46.37493" lon="5.66618">
        <ele>717.6</ele>
        <time>2014-05-03T16:05:00.835Z</time>
      </trkpt>
      <trkpt lat="46.37488" lon="5.66615">
        <ele>717.6</ele>
        <time>2014-05-03T16:05:03.788Z</time>
      </trkpt>
      <trkpt lat="46.37481" lon="5.6661">
        <ele>715</ele>
        <time>2014-05-03T16:05:06.823Z</time>
      </trkpt>
      <trkpt lat="46.37476" lon="5.66606">
        <ele>714.8</ele>
        <time>2014-05-03T16:05:09.825Z</time>
      </trkpt>
      <trkpt lat="46.37473" lon="5.66604">
        <ele>714.3</ele>
        <time>2014-05-03T16:05:12.791Z</time>
      </trkpt>
      <trkpt lat="46.3747" lon="5.666">
        <ele>712.4</ele>
        <time>2014-05-03T16:05:15.802Z</time>
      </trkpt>
      <trkpt lat="46.37466" lon="5.66596">
        <ele>713.3</ele>
        <time>2014-05-03T16:05:18.832Z</time>
      </trkpt>
      <trkpt lat="46.37464" lon="5.66596">
        <ele>711.9</ele>
        <time>2014-05-03T16:05:21.813Z</time>
      </trkpt>
      <trkpt lat="46.37463" lon="5.66596">
        <ele>712</ele>
        <time>2014-05-03T16:05:24.786Z</time>
      </trkpt>
      <trkpt lat="46.37462" lon="5.66595">
        <ele>714.3</ele>
        <time>2014-05-03T16:05:27.802Z</time>
      </trkpt>
      <trkpt lat="46.37462" lon="5.66595">
        <ele>715.1</ele>
        <time>2014-05-03T16:05:30.817Z</time>
      </trkpt>
      <trkpt lat="46.37461" lon="5.66594">
        <ele>715.3</ele>
        <time>2014-05-03T16:05:33.785Z</time>
      </trkpt>
      <trkpt lat="46.37461" lon="5.66594">
        <ele>715.6</ele>
        <time>2014-05-03T16:05:36.897Z</time>
      </trkpt>
      <trkpt lat="46.3746" lon="5.66595">
        <ele>718.7</ele>
        <time>2014-05-03T16:05:39.819Z</time>
      </trkpt>
      <trkpt lat="46.37458" lon="5.66594">
        <ele>719.7</ele>
        <time>2014-05-03T16:05:42.789Z</time>
      </trkpt>
      <trkpt lat="46.37456" lon="5.66593">
        <ele>720.8</ele>
        <time>2014-05-03T16:05:45.876Z</time>
      </trkpt>
      <trkpt lat="46.37454" lon="5.66593">
        <ele>721.6</ele>
        <time>2014-05-03T16:05:48.824Z</time>
      </trkpt>
      <trkpt lat="46.37453" lon="5.66593">
        <ele>722</ele>
        <time>2014-05-03T16:05:51.789Z</time>
      </trkpt>
      <trkpt lat="46.37452" lon="5.66593">
        <ele>722.4</ele>
        <time>2014-05-03T16:05:54.825Z</time>
      </trkpt>
      <trkpt lat="46.3745" lon="5.66593">
        <ele>721.9</ele>
        <time>2014-05-03T16:05:57.847Z</time>
      </trkpt>
      <trkpt lat="46.37447" lon="5.66592">
        <ele>721</ele>
        <time>2014-05-03T16:06:00.791Z</time>
      </trkpt>
      <trkpt lat="46.37445" lon="5.66592">
        <ele>719.8</ele>
        <time>2014-05-03T16:06:03.787Z</time>
      </trkpt>
      <trkpt lat="46.37444" lon="5.66591">
        <ele>719.7</ele>
        <time>2014-05-03T16:06:06.824Z</time>
      </trkpt>
      <trkpt lat="46.37443" lon="5.66591">
        <ele>719.9</ele>
        <time>2014-05-03T16:06:09.806Z</time>
      </trkpt>
      <trkpt lat="46.3744" lon="5.66589">
        <ele>721.5</ele>
        <time>2014-05-03T16:06:12.785Z</time>
      </trkpt>
      <trkpt lat="46.37436" lon="5.66585">
        <ele>723.1</ele>
        <time>2014-05-03T16:06:15.790Z</time>
      </trkpt>
      <trkpt lat="46.37432" lon="5.66581">
        <ele>724.2</ele>
        <time>2014-05-03T16:06:18.810Z</time>
      </trkpt>
      <trkpt lat="46.37429" lon="5.66577">
        <ele>726.2</ele>
        <time>2014-05-03T16:06:21.786Z</time>
      </trkpt>
      <trkpt lat="46.37424" lon="5.66574">
        <ele>726.8</ele>
        <time>2014-05-03T16:06:24.887Z</time>
      </trkpt>
      <trkpt lat="46.37421" lon="5.66569">
        <ele>728</ele>
        <time>2014-05-03T16:06:27.814Z</time>
      </trkpt>
      <trkpt lat="46.37419" lon="5.66566">
        <ele>726.6</ele>
        <time>2014-05-03T16:06:30.791Z</time>
      </trkpt>
      <trkpt lat="46.37415" lon="5.66565">
        <ele>726.2</ele>
        <time>2014-05-03T16:06:33.833Z</time>
      </trkpt>
      <trkpt lat="46.37412" lon="5.66563">
        <ele>724.1</ele>
        <time>2014-05-03T16:06:36.827Z</time>
      </trkpt>
      <trkpt lat="46.37407" lon="5.66557">
        <ele>724.4</ele>
        <time>2014-05-03T16:06:39.786Z</time>
      </trkpt>
      <trkpt lat="46.37403" lon="5.66551">
        <ele>724.5</ele>
        <time>2014-05-03T16:06:42.813Z</time>
      </trkpt>
      <trkpt lat="46.37399" lon="5.66546">
        <ele>727.9</ele>
        <time>2014-05-03T16:06:45.837Z</time>
      </trkpt>
      <trkpt lat="46.37395" lon="5.66543">
        <ele>732.8</ele>
        <time>2014-05-03T16:06:48.785Z</time>
      </trkpt>
      <trkpt lat="46.3739" lon="5.66539">
        <ele>735.7</ele>
        <time>2014-05-03T16:06:51.786Z</time>
      </trkpt>
      <trkpt lat="46.37385" lon="5.66536">
        <ele>735.5</ele>
        <time>2014-05-03T16:06:54.828Z</time>
      </trkpt>
      <trkpt lat="46.37379" lon="5.66535">
        <ele>734.7</ele>
        <time>2014-05-03T16:06:57.803Z</time>
      </trkpt>
      <trkpt lat="46.37375" lon="5.66533">
        <ele>734.8</ele>
        <time>2014-05-03T16:07:00.777Z</time>
      </trkpt>
      <trkpt lat="46.37371" lon="5.66531">
        <ele>734.3</ele>
        <time>2014-05-03T16:07:03.785Z</time>
      </trkpt>
      <trkpt lat="46.37366" lon="5.6653">
        <ele>735.2</ele>
        <time>2014-05-03T16:07:06.810Z</time>
      </trkpt>
      <trkpt lat="46.37361" lon="5.66527">
        <ele>736.4</ele>
        <time>2014-05-03T16:07:09.786Z</time>
      </trkpt>
      <trkpt lat="46.37357" lon="5.66525">
        <ele>737.2</ele>
        <time>2014-05-03T16:07:12.852Z</time>
      </trkpt>
      <trkpt lat="46.37352" lon="5.66524">
        <ele>736.4</ele>
        <time>2014-05-03T16:07:15.814Z</time>
      </trkpt>
      <trkpt lat="46.37345" lon="5.66519">
        <ele>739.5</ele>
        <time>2014-05-03T16:07:18.790Z</time>
      </trkpt>
      <trkpt lat="46.37339" lon="5.66513">
        <ele>742.6</ele>
        <time>2014-05-03T16:07:21.842Z</time>
      </trkpt>
      <trkpt lat="46.37334" lon="5.66508">
        <ele>742.3</ele>
        <time>2014-05-03T16:07:24.850Z</time>
      </trkpt>
      <trkpt lat="46.37328" lon="5.66498">
        <ele>742.3</ele>
        <time>2014-05-03T16:07:27.789Z</time>
      </trkpt>
      <trkpt lat="46.37321" lon="5.66491">
        <ele>741.5</ele>
        <time>2014-05-03T16:07:30.826Z</time>
      </trkpt>
      <trkpt lat="46.37315" lon="5.66484">
        <ele>739.9</ele>
        <time>2014-05-03T16:07:33.843Z</time>
      </trkpt>
      <trkpt lat="46.37311" lon="5.66476">
        <ele>738.6</ele>
        <time>2014-05-03T16:07:36.798Z</time>
      </trkpt>
      <trkpt lat="46.37307" lon="5.66468">
        <ele>740.1</ele>
        <time>2014-05-03T16:07:39.792Z</time>
      </trkpt>
      <trkpt lat="46.37303" lon="5.66461">
        <ele>742.2</ele>
        <time>2014-05-03T16:07:42.849Z</time>
      </trkpt>
      <trkpt lat="46.373" lon="5.66455">
        <ele>743.1</ele>
        <time>2014-05-03T16:07:45.814Z</time>
      </trkpt>
      <trkpt lat="46.37295" lon="5.66446">
        <ele>741.8</ele>
        <time>2014-05-03T16:07:48.785Z</time>
      </trkpt>
      <trkpt lat="46.37287" lon="5.66435">
        <ele>739.6</ele>
        <time>2014-05-03T16:07:51.787Z</time>
      </trkpt>
      <trkpt lat="46.37282" lon="5.66423">
        <ele>739.3</ele>
        <time>2014-05-03T16:07:54.800Z</time>
      </trkpt>
      <trkpt lat="46.37273" lon="5.66412">
        <ele>736.4</ele>
        <time>2014-05-03T16:07:57.787Z</time>
      </trkpt>
      <trkpt lat="46.37259" lon="5.664">
        <ele>732.6</ele>
        <time>2014-05-03T16:08:00.785Z</time>
      </trkpt>
      <trkpt lat="46.37248" lon="5.66387">
        <ele>728.1</ele>
        <time>2014-05-03T16:08:03.790Z</time>
      </trkpt>
      <trkpt lat="46.37242" lon="5.66376">
        <ele>728</ele>
        <time>2014-05-03T16:08:06.784Z</time>
      </trkpt>
      <trkpt lat="46.37236" lon="5.66364">
        <ele>732.6</ele>
        <time>2014-05-03T16:08:09.790Z</time>
      </trkpt>
      <trkpt lat="46.37232" lon="5.66351">
        <ele>728</ele>
        <time>2014-05-03T16:08:12.801Z</time>
      </trkpt>
      <trkpt lat="46.3723" lon="5.66336">
        <ele>725.2</ele>
        <time>2014-05-03T16:08:15.809Z</time>
      </trkpt>
      <trkpt lat="46.37229" lon="5.66322">
        <ele>723.9</ele>
        <time>2014-05-03T16:08:18.785Z</time>
      </trkpt>
      <trkpt lat="46.37229" lon="5.66307">
        <ele>721.6</ele>
        <time>2014-05-03T16:08:21.784Z</time>
      </trkpt>
      <trkpt lat="46.37227" lon="5.66292">
        <ele>720.4</ele>
        <time>2014-05-03T16:08:24.786Z</time>
      </trkpt>
      <trkpt lat="46.37226" lon="5.66279">
        <ele>719.7</ele>
        <time>2014-05-03T16:08:27.789Z</time>
      </trkpt>
      <trkpt lat="46.37225" lon="5.6627">
        <ele>720.1</ele>
        <time>2014-05-03T16:08:30.786Z</time>
      </trkpt>
      <trkpt lat="46.37225" lon="5.66264">
        <ele>720.7</ele>
        <time>2014-05-03T16:08:33.869Z</time>
      </trkpt>
      <trkpt lat="46.37224" lon="5.66258">
        <ele>720.4</ele>
        <time>2014-05-03T16:08:36.815Z</time>
      </trkpt>
      <trkpt lat="46.37223" lon="5.6625">
        <ele>719.4</ele>
        <time>2014-05-03T16:08:39.785Z</time>
      </trkpt>
      <trkpt lat="46.37222" lon="5.66245">
        <ele>720.7</ele>
        <time>2014-05-03T16:08:42.797Z</time>
      </trkpt>
      <trkpt lat="46.3722" lon="5.6624">
        <ele>721.3</ele>
        <time>2014-05-03T16:08:45.795Z</time>
      </trkpt>
      <trkpt lat="46.37219" lon="5.66234">
        <ele>723.2</ele>
        <time>2014-05-03T16:08:48.784Z</time>
      </trkpt>
      <trkpt lat="46.37217" lon="5.66228">
        <ele>723.3</ele>
        <time>2014-05-03T16:08:51.784Z</time>
      </trkpt>
      <trkpt lat="46.37214" lon="5.66223">
        <ele>723.9</ele>
        <time>2014-05-03T16:08:54.785Z</time>
      </trkpt>
      <trkpt lat="46.3721" lon="5.66219">
        <ele>724.3</ele>
        <time>2014-05-03T16:08:57.784Z</time>
      </trkpt>
      <trkpt lat="46.37206" lon="5.66214">
        <ele>723.7</ele>
        <time>2014-05-03T16:09:00.785Z</time>
      </trkpt>
      <trkpt lat="46.37202" lon="5.66208">
        <ele>723.8</ele>
        <time>2014-05-03T16:09:03.794Z</time>
      </trkpt>
      <trkpt lat="46.37199" lon="5.66203">
        <ele>724.1</ele>
        <time>2014-05-03T16:09:06.790Z</time>
      </trkpt>
      <trkpt lat="46.37195" lon="5.66198">
        <ele>725</ele>
        <time>2014-05-03T16:09:09.783Z</time>
      </trkpt>
      <trkpt lat="46.37191" lon="5.66193">
        <ele>725.3</ele>
        <time>2014-05-03T16:09:12.784Z</time>
      </trkpt>
      <trkpt lat="46.37187" lon="5.66187">
        <ele>725.6</ele>
        <time>2014-05-03T16:09:15.785Z</time>
      </trkpt>
      <trkpt lat="46.37184" lon="5.66181">
        <ele>726</ele>
        <time>2014-05-03T16:09:18.803Z</time>
      </trkpt>
      <trkpt lat="46.37182" lon="5.66176">
        <ele>726.3</ele>
        <time>2014-05-03T16:09:21.787Z</time>
      </trkpt>
      <trkpt lat="46.3718" lon="5.6617">
        <ele>726.3</ele>
        <time>2014-05-03T16:09:24.784Z</time>
      </trkpt>
      <trkpt lat="46.37178" lon="5.66164">
        <ele>726.3</ele>
        <time>2014-05-03T16:09:27.783Z</time>
      </trkpt>
      <trkpt lat="46.37176" lon="5.6616">
        <ele>726.4</ele>
        <time>2014-05-03T16:09:30.783Z</time>
      </trkpt>
      <trkpt lat="46.37174" lon="5.66155">
        <ele>727.8</ele>
        <time>2014-05-03T16:09:33.784Z</time>
      </trkpt>
      <trkpt lat="46.37172" lon="5.66149">
        <ele>728</ele>
        <time>2014-05-03T16:09:36.789Z</time>
      </trkpt>
      <trkpt lat="46.37171" lon="5.66146">
        <ele>728.5</ele>
        <time>2014-05-03T16:09:39.782Z</time>
      </trkpt>
      <trkpt lat="46.3717" lon="5.66146">
        <ele>728.2</ele>
        <time>2014-05-03T16:09:42.782Z</time>
      </trkpt>
      <trkpt lat="46.3717" lon="5.66145">
        <ele>727.9</ele>
        <time>2014-05-03T16:09:45.782Z</time>
      </trkpt>
      <trkpt lat="46.37169" lon="5.66143">
        <ele>728.2</ele>
        <time>2014-05-03T16:09:48.785Z</time>
      </trkpt>
      <trkpt lat="46.37169" lon="5.66144">
        <ele>729.9</ele>
        <time>2014-05-03T16:09:51.782Z</time>
      </trkpt>
      <trkpt lat="46.37168" lon="5.66144">
        <ele>729.6</ele>
        <time>2014-05-03T16:09:54.782Z</time>
      </trkpt>
      <trkpt lat="46.37166" lon="5.66142">
        <ele>730.5</ele>
        <time>2014-05-03T16:09:57.782Z</time>
      </trkpt>
      <trkpt lat="46.37164" lon="5.6614">
        <ele>730.6</ele>
        <time>2014-05-03T16:10:00.783Z</time>
      </trkpt>
      <trkpt lat="46.37163" lon="5.66138">
        <ele>732.3</ele>
        <time>2014-05-03T16:10:03.782Z</time>
      </trkpt>
      <trkpt lat="46.37162" lon="5.66138">
        <ele>733.3</ele>
        <time>2014-05-03T16:10:06.782Z</time>
      </trkpt>
      <trkpt lat="46.3716" lon="5.66137">
        <ele>735.2</ele>
        <time>2014-05-03T16:10:09.782Z</time>
      </trkpt>
      <trkpt lat="46.3716" lon="5.66135">
        <ele>733.6</ele>
        <time>2014-05-03T16:10:12.782Z</time>
      </trkpt>
      <trkpt lat="46.3716" lon="5.66134">
        <ele>732.7</ele>
        <time>2014-05-03T16:10:15.782Z</time>
      </trkpt>
      <trkpt lat="46.3716" lon="5.66133">
        <ele>732.7</ele>
        <time>2014-05-03T16:10:18.783Z</time>
      </trkpt>
      <trkpt lat="46.3716" lon="5.66133">
        <ele>733.1</ele>
        <time>2014-05-03T16:10:21.785Z</time>
      </trkpt>
      <trkpt lat="46.37159" lon="5.66132">
        <ele>733.3</ele>
        <time>2014-05-03T16:10:24.783Z</time>
      </trkpt>
      <trkpt lat="46.37157" lon="5.66131">
        <ele>735.1</ele>
        <time>2014-05-03T16:10:27.783Z</time>
      </trkpt>
      <trkpt lat="46.37154" lon="5.66128">
        <ele>736.8</ele>
        <time>2014-05-03T16:10:30.789Z</time>
      </trkpt>
      <trkpt lat="46.37155" lon="5.66121">
        <ele>741.5</ele>
        <time>2014-05-03T16:10:33.783Z</time>
      </trkpt>
      <trkpt lat="46.37155" lon="5.66113">
        <ele>743.3</ele>
        <time>2014-05-03T16:10:36.782Z</time>
      </trkpt>
      <trkpt lat="46.37154" lon="5.66106">
        <ele>743.9</ele>
        <time>2014-05-03T16:10:39.783Z</time>
      </trkpt>
      <trkpt lat="46.37154" lon="5.66099">
        <ele>742.6</ele>
        <time>2014-05-03T16:10:42.783Z</time>
      </trkpt>
      <trkpt lat="46.37155" lon="5.66092">
        <ele>743.1</ele>
        <time>2014-05-03T16:10:45.785Z</time>
      </trkpt>
      <trkpt lat="46.37153" lon="5.66088">
        <ele>744.9</ele>
        <time>2014-05-03T16:10:48.784Z</time>
      </trkpt>
      <trkpt lat="46.37151" lon="5.66083">
        <ele>745.9</ele>
        <time>2014-05-03T16:10:51.784Z</time>
      </trkpt>
      <trkpt lat="46.37149" lon="5.66078">
        <ele>745.2</ele>
        <time>2014-05-03T16:10:54.783Z</time>
      </trkpt>
      <trkpt lat="46.37147" lon="5.66071">
        <ele>747.1</ele>
        <time>2014-05-03T16:10:57.810Z</time>
      </trkpt>
      <trkpt lat="46.37145" lon="5.66063">
        <ele>748.5</ele>
        <time>2014-05-03T16:11:00.784Z</time>
      </trkpt>
      <trkpt lat="46.37142" lon="5.66057">
        <ele>749.5</ele>
        <time>2014-05-03T16:11:03.784Z</time>
      </trkpt>
      <trkpt lat="46.37138" lon="5.66054">
        <ele>750.3</ele>
        <time>2014-05-03T16:11:06.820Z</time>
      </trkpt>
      <trkpt lat="46.37133" lon="5.66054">
        <ele>750.6</ele>
        <time>2014-05-03T16:11:09.785Z</time>
      </trkpt>
      <trkpt lat="46.37129" lon="5.66052">
        <ele>750.3</ele>
        <time>2014-05-03T16:11:12.895Z</time>
      </trkpt>
      <trkpt lat="46.37125" lon="5.66048">
        <ele>750.8</ele>
        <time>2014-05-03T16:11:15.819Z</time>
      </trkpt>
      <trkpt lat="46.37121" lon="5.66047">
        <ele>754.2</ele>
        <time>2014-05-03T16:11:18.796Z</time>
      </trkpt>
      <trkpt lat="46.37117" lon="5.66048">
        <ele>755.7</ele>
        <time>2014-05-03T16:11:21.863Z</time>
      </trkpt>
      <trkpt lat="46.37113" lon="5.66047">
        <ele>756.3</ele>
        <time>2014-05-03T16:11:24.838Z</time>
      </trkpt>
      <trkpt lat="46.37109" lon="5.66045">
        <ele>756.3</ele>
        <time>2014-05-03T16:11:27.791Z</time>
      </trkpt>
      <trkpt lat="46.37105" lon="5.66045">
        <ele>756.7</ele>
        <time>2014-05-03T16:11:30.831Z</time>
      </trkpt>
      <trkpt lat="46.37102" lon="5.66045">
        <ele>755.9</ele>
        <time>2014-05-03T16:11:33.826Z</time>
      </trkpt>
      <trkpt lat="46.37097" lon="5.66043">
        <ele>756.8</ele>
        <time>2014-05-03T16:11:36.798Z</time>
      </trkpt>
      <trkpt lat="46.37093" lon="5.6604">
        <ele>756.9</ele>
        <time>2014-05-03T16:11:39.785Z</time>
      </trkpt>
      <trkpt lat="46.37089" lon="5.66039">
        <ele>758.4</ele>
        <time>2014-05-03T16:11:42.830Z</time>
      </trkpt>
      <trkpt lat="46.37085" lon="5.66039">
        <ele>757.4</ele>
        <time>2014-05-03T16:11:45.815Z</time>
      </trkpt>
      <trkpt lat="46.37081" lon="5.66036">
        <ele>755.9</ele>
        <time>2014-05-03T16:11:48.784Z</time>
      </trkpt>
      <trkpt lat="46.37079" lon="5.66034">
        <ele>754.8</ele>
        <time>2014-05-03T16:11:51.937Z</time>
      </trkpt>
      <trkpt lat="46.37077" lon="5.66032">
        <ele>754</ele>
        <time>2014-05-03T16:11:54.821Z</time>
      </trkpt>
      <trkpt lat="46.37076" lon="5.66031">
        <ele>753.6</ele>
        <time>2014-05-03T16:11:57.794Z</time>
      </trkpt>
      <trkpt lat="46.37076" lon="5.6603">
        <ele>753.4</ele>
        <time>2014-05-03T16:12:00.881Z</time>
      </trkpt>
      <trkpt lat="46.37076" lon="5.6603">
        <ele>753.4</ele>
        <time>2014-05-03T16:12:03.816Z</time>
      </trkpt>
      <trkpt lat="46.37076" lon="5.6603">
        <ele>753.4</ele>
        <time>2014-05-03T16:12:06.787Z</time>
      </trkpt>
      <trkpt lat="46.37076" lon="5.6603">
        <ele>753.4</ele>
        <time>2014-05-03T16:12:09.795Z</time>
      </trkpt>
      <trkpt lat="46.37076" lon="5.6603">
        <ele>753.4</ele>
        <time>2014-05-03T16:12:12.834Z</time>
      </trkpt>
      <trkpt lat="46.37076" lon="5.6603">
        <ele>753.4</ele>
        <time>2014-05-03T16:12:15.789Z</time>
      </trkpt>
      <trkpt lat="46.37076" lon="5.6603">
        <ele>753.4</ele>
        <time>2014-05-03T16:12:18.845Z</time>
      </trkpt>
      <trkpt lat="46.37076" lon="5.6603">
        <ele>753.4</ele>
        <time>2014-05-03T16:12:21.863Z</time>
      </trkpt>
      <trkpt lat="46.37076" lon="5.6603">
        <ele>753.4</ele>
        <time>2014-05-03T16:12:24.805Z</time>
      </trkpt>
      <trkpt lat="46.37076" lon="5.6603">
        <ele>753.4</ele>
        <time>2014-05-03T16:12:27.842Z</time>
      </trkpt>
      <trkpt lat="46.37076" lon="5.6603">
        <ele>753.3</ele>
        <time>2014-05-03T16:12:30.846Z</time>
      </trkpt>
      <trkpt lat="46.37076" lon="5.6603">
        <ele>753.3</ele>
        <time>2014-05-03T16:12:33.816Z</time>
      </trkpt>
      <trkpt lat="46.37076" lon="5.6603">
        <ele>753.3</ele>
        <time>2014-05-03T16:12:36.805Z</time>
      </trkpt>
      <trkpt lat="46.37075" lon="5.66031">
        <ele>753.3</ele>
        <time>2014-05-03T16:12:39.790Z</time>
      </trkpt>
      <trkpt lat="46.37073" lon="5.66034">
        <ele>752.6</ele>
        <time>2014-05-03T16:12:42.783Z</time>
      </trkpt>
      <trkpt lat="46.37072" lon="5.66037">
        <ele>751.8</ele>
        <time>2014-05-03T16:12:45.782Z</time>
      </trkpt>
      <trkpt lat="46.37071" lon="5.66041">
        <ele>753.1</ele>
        <time>2014-05-03T16:12:48.783Z</time>
      </trkpt>
      <trkpt lat="46.3707" lon="5.66045">
        <ele>752.6</ele>
        <time>2014-05-03T16:12:51.783Z</time>
      </trkpt>
      <trkpt lat="46.37069" lon="5.66049">
        <ele>752.7</ele>
        <time>2014-05-03T16:12:54.787Z</time>
      </trkpt>
      <trkpt lat="46.37067" lon="5.66052">
        <ele>752.5</ele>
        <time>2014-05-03T16:12:57.848Z</time>
      </trkpt>
      <trkpt lat="46.37066" lon="5.66058">
        <ele>751.1</ele>
        <time>2014-05-03T16:13:00.820Z</time>
      </trkpt>
      <trkpt lat="46.37065" lon="5.66067">
        <ele>749.8</ele>
        <time>2014-05-03T16:13:03.789Z</time>
      </trkpt>
      <trkpt lat="46.37064" lon="5.66074">
        <ele>755.5</ele>
        <time>2014-05-03T16:13:06.828Z</time>
      </trkpt>
      <trkpt lat="46.37063" lon="5.66082">
        <ele>755.5</ele>
        <time>2014-05-03T16:13:09.827Z</time>
      </trkpt>
      <trkpt lat="46.37061" lon="5.6609">
        <ele>756.3</ele>
        <time>2014-05-03T16:13:12.794Z</time>
      </trkpt>
      <trkpt lat="46.37058" lon="5.66097">
        <ele>761.5</ele>
        <time>2014-05-03T16:13:15.802Z</time>
      </trkpt>
      <trkpt lat="46.37055" lon="5.66109">
        <ele>762.4</ele>
        <time>2014-05-03T16:13:18.805Z</time>
      </trkpt>
      <trkpt lat="46.37054" lon="5.66123">
        <ele>760.4</ele>
        <time>2014-05-03T16:13:21.804Z</time>
      </trkpt>
      <trkpt lat="46.37053" lon="5.66136">
        <ele>758.3</ele>
        <time>2014-05-03T16:13:24.785Z</time>
      </trkpt>
      <trkpt lat="46.3705" lon="5.66149">
        <ele>753.4</ele>
        <time>2014-05-03T16:13:27.784Z</time>
      </trkpt>
      <trkpt lat="46.37049" lon="5.66163">
        <ele>748.9</ele>
        <time>2014-05-03T16:13:30.816Z</time>
      </trkpt>
      <trkpt lat="46.37049" lon="5.66176">
        <ele>746.9</ele>
        <time>2014-05-03T16:13:33.785Z</time>
      </trkpt>
      <trkpt lat="46.37051" lon="5.66185">
        <ele>748.4</ele>
        <time>2014-05-03T16:13:36.874Z</time>
      </trkpt>
      <trkpt lat="46.37056" lon="5.66195">
        <ele>748.5</ele>
        <time>2014-05-03T16:13:39.809Z</time>
      </trkpt>
      <trkpt lat="46.37061" lon="5.66207">
        <ele>750.3</ele>
        <time>2014-05-03T16:13:42.789Z</time>
      </trkpt>
      <trkpt lat="46.37066" lon="5.6622">
        <ele>754</ele>
        <time>2014-05-03T16:13:45.852Z</time>
      </trkpt>
      <trkpt lat="46.37072" lon="5.66233">
        <ele>753.7</ele>
        <time>2014-05-03T16:13:48.835Z</time>
      </trkpt>
      <trkpt lat="46.37074" lon="5.66242">
        <ele>754.6</ele>
        <time>2014-05-03T16:13:51.793Z</time>
      </trkpt>
      <trkpt lat="46.37075" lon="5.66247">
        <ele>756.3</ele>
        <time>2014-05-03T16:13:54.822Z</time>
      </trkpt>
      <trkpt lat="46.37075" lon="5.66252">
        <ele>755.9</ele>
        <time>2014-05-03T16:13:57.843Z</time>
      </trkpt>
      <trkpt lat="46.37074" lon="5.66267">
        <ele>757.5</ele>
        <time>2014-05-03T16:14:00.795Z</time>
      </trkpt>
      <trkpt lat="46.37071" lon="5.66287">
        <ele>759.3</ele>
        <time>2014-05-03T16:14:03.786Z</time>
      </trkpt>
      <trkpt lat="46.37076" lon="5.66304">
        <ele>756.5</ele>
        <time>2014-05-03T16:14:06.800Z</time>
      </trkpt>
      <trkpt lat="46.37083" lon="5.66315">
        <ele>755</ele>
        <time>2014-05-03T16:14:09.783Z</time>
      </trkpt>
      <trkpt lat="46.37089" lon="5.66325">
        <ele>754.4</ele>
        <time>2014-05-03T16:14:12.783Z</time>
      </trkpt>
      <trkpt lat="46.37092" lon="5.66333">
        <ele>753</ele>
        <time>2014-05-03T16:14:15.799Z</time>
      </trkpt>
      <trkpt lat="46.37094" lon="5.66338">
        <ele>754.9</ele>
        <time>2014-05-03T16:14:18.786Z</time>
      </trkpt>
      <trkpt lat="46.37096" lon="5.66344">
        <ele>755.4</ele>
        <time>2014-05-03T16:14:21.783Z</time>
      </trkpt>
      <trkpt lat="46.37098" lon="5.66352">
        <ele>755.1</ele>
        <time>2014-05-03T16:14:24.853Z</time>
      </trkpt>
      <trkpt lat="46.37099" lon="5.66361">
        <ele>755</ele>
        <time>2014-05-03T16:14:27.791Z</time>
      </trkpt>
      <trkpt lat="46.37102" lon="5.6637">
        <ele>755.9</ele>
        <time>2014-05-03T16:14:30.785Z</time>
      </trkpt>
      <trkpt lat="46.37104" lon="5.66379">
        <ele>758.9</ele>
        <time>2014-05-03T16:14:33.785Z</time>
      </trkpt>
      <trkpt lat="46.37106" lon="5.66387">
        <ele>762.2</ele>
        <time>2014-05-03T16:14:36.784Z</time>
      </trkpt>
      <trkpt lat="46.37108" lon="5.66394">
        <ele>761.5</ele>
        <time>2014-05-03T16:14:39.783Z</time>
      </trkpt>
      <trkpt lat="46.3711" lon="5.66402">
        <ele>761.7</ele>
        <time>2014-05-03T16:14:42.783Z</time>
      </trkpt>
      <trkpt lat="46.3711" lon="5.66409">
        <ele>765.3</ele>
        <time>2014-05-03T16:14:45.789Z</time>
      </trkpt>
      <trkpt lat="46.37111" lon="5.66416">
        <ele>765.2</ele>
        <time>2014-05-03T16:14:48.782Z</time>
      </trkpt>
      <trkpt lat="46.37111" lon="5.66422">
        <ele>767.7</ele>
        <time>2014-05-03T16:14:51.784Z</time>
      </trkpt>
      <trkpt lat="46.37111" lon="5.66423">
        <ele>765.8</ele>
        <time>2014-05-03T16:14:54.785Z</time>
      </trkpt>
      <trkpt lat="46.37111" lon="5.66422">
        <ele>764.2</ele>
        <time>2014-05-03T16:14:57.785Z</time>
      </trkpt>
      <trkpt lat="46.3711" lon="5.66423">
        <ele>765</ele>
        <time>2014-05-03T16:15:00.790Z</time>
      </trkpt>
      <trkpt lat="46.37111" lon="5.66424">
        <ele>764.6</ele>
        <time>2014-05-03T16:15:03.787Z</time>
      </trkpt>
      <trkpt lat="46.37112" lon="5.66424">
        <ele>762.7</ele>
        <time>2014-05-03T16:15:06.785Z</time>
      </trkpt>
      <trkpt lat="46.37113" lon="5.66426">
        <ele>762.6</ele>
        <time>2014-05-03T16:15:09.791Z</time>
      </trkpt>
      <trkpt lat="46.37111" lon="5.66428">
        <ele>763</ele>
        <time>2014-05-03T16:15:12.790Z</time>
      </trkpt>
      <trkpt lat="46.37111" lon="5.66431">
        <ele>765.6</ele>
        <time>2014-05-03T16:15:15.782Z</time>
      </trkpt>
      <trkpt lat="46.37111" lon="5.66434">
        <ele>766.4</ele>
        <time>2014-05-03T16:15:18.824Z</time>
      </trkpt>
      <trkpt lat="46.37111" lon="5.66437">
        <ele>767.5</ele>
        <time>2014-05-03T16:15:21.798Z</time>
      </trkpt>
      <trkpt lat="46.37112" lon="5.6644">
        <ele>772.4</ele>
        <time>2014-05-03T16:15:24.798Z</time>
      </trkpt>
      <trkpt lat="46.37111" lon="5.66444">
        <ele>770.3</ele>
        <time>2014-05-03T16:15:27.792Z</time>
      </trkpt>
      <trkpt lat="46.3711" lon="5.66447">
        <ele>770.5</ele>
        <time>2014-05-03T16:15:30.783Z</time>
      </trkpt>
      <trkpt lat="46.3711" lon="5.66448">
        <ele>770</ele>
        <time>2014-05-03T16:15:33.783Z</time>
      </trkpt>
      <trkpt lat="46.3711" lon="5.66449">
        <ele>769.9</ele>
        <time>2014-05-03T16:15:36.791Z</time>
      </trkpt>
      <trkpt lat="46.3711" lon="5.66449">
        <ele>769.6</ele>
        <time>2014-05-03T16:15:39.786Z</time>
      </trkpt>
      <trkpt lat="46.37111" lon="5.6645">
        <ele>769.6</ele>
        <time>2014-05-03T16:15:42.886Z</time>
      </trkpt>
      <trkpt lat="46.37113" lon="5.66453">
        <ele>772.8</ele>
        <time>2014-05-03T16:15:45.784Z</time>
      </trkpt>
      <trkpt lat="46.37114" lon="5.66458">
        <ele>774.5</ele>
        <time>2014-05-03T16:15:48.784Z</time>
      </trkpt>
      <trkpt lat="46.37116" lon="5.66463">
        <ele>780.3</ele>
        <time>2014-05-03T16:15:51.789Z</time>
      </trkpt>
      <trkpt lat="46.37117" lon="5.66468">
        <ele>784.2</ele>
        <time>2014-05-03T16:15:54.813Z</time>
      </trkpt>
      <trkpt lat="46.37119" lon="5.66474">
        <ele>785.2</ele>
        <time>2014-05-03T16:15:57.789Z</time>
      </trkpt>
      <trkpt lat="46.37121" lon="5.66478">
        <ele>789.5</ele>
        <time>2014-05-03T16:16:00.786Z</time>
      </trkpt>
      <trkpt lat="46.37123" lon="5.66481">
        <ele>792.8</ele>
        <time>2014-05-03T16:16:03.783Z</time>
      </trkpt>
      <trkpt lat="46.37125" lon="5.66486">
        <ele>792.3</ele>
        <time>2014-05-03T16:16:06.790Z</time>
      </trkpt>
      <trkpt lat="46.37128" lon="5.66493">
        <ele>791.7</ele>
        <time>2014-05-03T16:16:09.801Z</time>
      </trkpt>
      <trkpt lat="46.37131" lon="5.66496">
        <ele>788.6</ele>
        <time>2014-05-03T16:16:12.782Z</time>
      </trkpt>
      <trkpt lat="46.37132" lon="5.66501">
        <ele>786.8</ele>
        <time>2014-05-03T16:16:15.804Z</time>
      </trkpt>
      <trkpt lat="46.37132" lon="5.66502">
        <ele>786.1</ele>
        <time>2014-05-03T16:16:18.787Z</time>
      </trkpt>
      <trkpt lat="46.37131" lon="5.66503">
        <ele>785.7</ele>
        <time>2014-05-03T16:16:21.790Z</time>
      </trkpt>
      <trkpt lat="46.37132" lon="5.66504">
        <ele>784.7</ele>
        <time>2014-05-03T16:16:24.784Z</time>
      </trkpt>
      <trkpt lat="46.37133" lon="5.66507">
        <ele>783.8</ele>
        <time>2014-05-03T16:16:27.783Z</time>
      </trkpt>
      <trkpt lat="46.37135" lon="5.66511">
        <ele>786.6</ele>
        <time>2014-05-03T16:16:30.783Z</time>
      </trkpt>
      <trkpt lat="46.37137" lon="5.66516">
        <ele>785.9</ele>
        <time>2014-05-03T16:16:33.783Z</time>
      </trkpt>
      <trkpt lat="46.37139" lon="5.66519">
        <ele>787.4</ele>
        <time>2014-05-03T16:16:36.783Z</time>
      </trkpt>
      <trkpt lat="46.37141" lon="5.66523">
        <ele>788.5</ele>
        <time>2014-05-03T16:16:39.782Z</time>
      </trkpt>
      <trkpt lat="46.37143" lon="5.66528">
        <ele>789.5</ele>
        <time>2014-05-03T16:16:42.784Z</time>
      </trkpt>
      <trkpt lat="46.37145" lon="5.66532">
        <ele>788.9</ele>
        <time>2014-05-03T16:16:45.784Z</time>
      </trkpt>
      <trkpt lat="46.37148" lon="5.66538">
        <ele>787.2</ele>
        <time>2014-05-03T16:16:48.784Z</time>
      </trkpt>
      <trkpt lat="46.37151" lon="5.66544">
        <ele>786.2</ele>
        <time>2014-05-03T16:16:51.783Z</time>
      </trkpt>
      <trkpt lat="46.37153" lon="5.6655">
        <ele>789.1</ele>
        <time>2014-05-03T16:16:54.783Z</time>
      </trkpt>
      <trkpt lat="46.37155" lon="5.66554">
        <ele>789.5</ele>
        <time>2014-05-03T16:16:57.784Z</time>
      </trkpt>
      <trkpt lat="46.37157" lon="5.66559">
        <ele>788.4</ele>
        <time>2014-05-03T16:17:00.783Z</time>
      </trkpt>
      <trkpt lat="46.37159" lon="5.66566">
        <ele>789.2</ele>
        <time>2014-05-03T16:17:03.785Z</time>
      </trkpt>
      <trkpt lat="46.37162" lon="5.66572">
        <ele>788</ele>
        <time>2014-05-03T16:17:06.782Z</time>
      </trkpt>
      <trkpt lat="46.37164" lon="5.66574">
        <ele>788.9</ele>
        <time>2014-05-03T16:17:09.782Z</time>
      </trkpt>
      <trkpt lat="46.37168" lon="5.66578">
        <ele>790.3</ele>
        <time>2014-05-03T16:17:12.779Z</time>
      </trkpt>
      <trkpt lat="46.37171" lon="5.66583">
        <ele>789.8</ele>
        <time>2014-05-03T16:17:15.783Z</time>
      </trkpt>
      <trkpt lat="46.37173" lon="5.66587">
        <ele>794</ele>
        <time>2014-05-03T16:17:18.782Z</time>
      </trkpt>
      <trkpt lat="46.37175" lon="5.66589">
        <ele>795.6</ele>
        <time>2014-05-03T16:17:21.782Z</time>
      </trkpt>
      <trkpt lat="46.37178" lon="5.66593">
        <ele>796.4</ele>
        <time>2014-05-03T16:17:24.784Z</time>
      </trkpt>
      <trkpt lat="46.37182" lon="5.66599">
        <ele>792.7</ele>
        <time>2014-05-03T16:17:27.781Z</time>
      </trkpt>
      <trkpt lat="46.37186" lon="5.66604">
        <ele>791.7</ele>
        <time>2014-05-03T16:17:30.783Z</time>
      </trkpt>
      <trkpt lat="46.37189" lon="5.66612">
        <ele>789</ele>
        <time>2014-05-03T16:17:33.784Z</time>
      </trkpt>
      <trkpt lat="46.37193" lon="5.66618">
        <ele>788.6</ele>
        <time>2014-05-03T16:17:36.783Z</time>
      </trkpt>
      <trkpt lat="46.37196" lon="5.66622">
        <ele>787.6</ele>
        <time>2014-05-03T16:17:39.784Z</time>
      </trkpt>
      <trkpt lat="46.37201" lon="5.66624">
        <ele>790.2</ele>
        <time>2014-05-03T16:17:42.783Z</time>
      </trkpt>
      <trkpt lat="46.37205" lon="5.66625">
        <ele>789.9</ele>
        <time>2014-05-03T16:17:45.784Z</time>
      </trkpt>
      <trkpt lat="46.37211" lon="5.66629">
        <ele>792</ele>
        <time>2014-05-03T16:17:48.783Z</time>
      </trkpt>
      <trkpt lat="46.37217" lon="5.66636">
        <ele>789.2</ele>
        <time>2014-05-03T16:17:51.783Z</time>
      </trkpt>
      <trkpt lat="46.37225" lon="5.66641">
        <ele>790.3</ele>
        <time>2014-05-03T16:17:54.783Z</time>
      </trkpt>
      <trkpt lat="46.37232" lon="5.66647">
        <ele>791.8</ele>
        <time>2014-05-03T16:17:57.784Z</time>
      </trkpt>
      <trkpt lat="46.37238" lon="5.66652">
        <ele>794.3</ele>
        <time>2014-05-03T16:18:00.784Z</time>
      </trkpt>
      <trkpt lat="46.37241" lon="5.66657">
        <ele>794.9</ele>
        <time>2014-05-03T16:18:03.784Z</time>
      </trkpt>
      <trkpt lat="46.37244" lon="5.66664">
        <ele>794.9</ele>
        <time>2014-05-03T16:18:06.784Z</time>
      </trkpt>
      <trkpt lat="46.37248" lon="5.66675">
        <ele>790.7</ele>
        <time>2014-05-03T16:18:09.785Z</time>
      </trkpt>
      <trkpt lat="46.37251" lon="5.66686">
        <ele>786.4</ele>
        <time>2014-05-03T16:18:12.783Z</time>
      </trkpt>
      <trkpt lat="46.37252" lon="5.66695">
        <ele>783.7</ele>
        <time>2014-05-03T16:18:15.783Z</time>
      </trkpt>
      <trkpt lat="46.37253" lon="5.66702">
        <ele>780.1</ele>
        <time>2014-05-03T16:18:18.783Z</time>
      </trkpt>
      <trkpt lat="46.37253" lon="5.66707">
        <ele>779.5</ele>
        <time>2014-05-03T16:18:21.785Z</time>
      </trkpt>
      <trkpt lat="46.37252" lon="5.66714">
        <ele>775.1</ele>
        <time>2014-05-03T16:18:24.783Z</time>
      </trkpt>
      <trkpt lat="46.3725" lon="5.66724">
        <ele>774</ele>
        <time>2014-05-03T16:18:27.783Z</time>
      </trkpt>
      <trkpt lat="46.37252" lon="5.66734">
        <ele>774.3</ele>
        <time>2014-05-03T16:18:30.784Z</time>
      </trkpt>
      <trkpt lat="46.37254" lon="5.6674">
        <ele>773.6</ele>
        <time>2014-05-03T16:18:33.782Z</time>
      </trkpt>
      <trkpt lat="46.37255" lon="5.66743">
        <ele>774.7</ele>
        <time>2014-05-03T16:18:36.784Z</time>
      </trkpt>
      <trkpt lat="46.37256" lon="5.66748">
        <ele>772.1</ele>
        <time>2014-05-03T16:18:39.784Z</time>
      </trkpt>
      <trkpt lat="46.37258" lon="5.66752">
        <ele>774.5</ele>
        <time>2014-05-03T16:18:42.784Z</time>
      </trkpt>
      <trkpt lat="46.37259" lon="5.66759">
        <ele>773.6</ele>
        <time>2014-05-03T16:18:45.784Z</time>
      </trkpt>
      <trkpt lat="46.37259" lon="5.66766">
        <ele>773.1</ele>
        <time>2014-05-03T16:18:48.784Z</time>
      </trkpt>
      <trkpt lat="46.37259" lon="5.66773">
        <ele>774.9</ele>
        <time>2014-05-03T16:18:51.785Z</time>
      </trkpt>
      <trkpt lat="46.37258" lon="5.66779">
        <ele>777.6</ele>
        <time>2014-05-03T16:18:54.784Z</time>
      </trkpt>
      <trkpt lat="46.37258" lon="5.66783">
        <ele>778.8</ele>
        <time>2014-05-03T16:18:57.784Z</time>
      </trkpt>
      <trkpt lat="46.37258" lon="5.66787">
        <ele>777.3</ele>
        <time>2014-05-03T16:19:00.783Z</time>
      </trkpt>
      <trkpt lat="46.37257" lon="5.66794">
        <ele>775.9</ele>
        <time>2014-05-03T16:19:03.784Z</time>
      </trkpt>
      <trkpt lat="46.37256" lon="5.66801">
        <ele>775.5</ele>
        <time>2014-05-03T16:19:06.783Z</time>
      </trkpt>
      <trkpt lat="46.37254" lon="5.66807">
        <ele>775.5</ele>
        <time>2014-05-03T16:19:09.784Z</time>
      </trkpt>
      <trkpt lat="46.37252" lon="5.66815">
        <ele>776</ele>
        <time>2014-05-03T16:19:12.784Z</time>
      </trkpt>
      <trkpt lat="46.3725" lon="5.6682">
        <ele>777.2</ele>
        <time>2014-05-03T16:19:15.784Z</time>
      </trkpt>
      <trkpt lat="46.37248" lon="5.66825">
        <ele>777.1</ele>
        <time>2014-05-03T16:19:18.783Z</time>
      </trkpt>
      <trkpt lat="46.37247" lon="5.66831">
        <ele>777.2</ele>
        <time>2014-05-03T16:19:21.784Z</time>
      </trkpt>
      <trkpt lat="46.37246" lon="5.66837">
        <ele>778.2</ele>
        <time>2014-05-03T16:19:24.785Z</time>
      </trkpt>
      <trkpt lat="46.37243" lon="5.66847">
        <ele>777.3</ele>
        <time>2014-05-03T16:19:27.783Z</time>
      </trkpt>
      <trkpt lat="46.3724" lon="5.66855">
        <ele>776.3</ele>
        <time>2014-05-03T16:19:30.783Z</time>
      </trkpt>
      <trkpt lat="46.37237" lon="5.6686">
        <ele>777.8</ele>
        <time>2014-05-03T16:19:33.785Z</time>
      </trkpt>
      <trkpt lat="46.37234" lon="5.66866">
        <ele>777.8</ele>
        <time>2014-05-03T16:19:36.783Z</time>
      </trkpt>
      <trkpt lat="46.37231" lon="5.66873">
        <ele>778</ele>
        <time>2014-05-03T16:19:39.783Z</time>
      </trkpt>
      <trkpt lat="46.37227" lon="5.66879">
        <ele>778.1</ele>
        <time>2014-05-03T16:19:42.783Z</time>
      </trkpt>
      <trkpt lat="46.37221" lon="5.66886">
        <ele>778.7</ele>
        <time>2014-05-03T16:19:45.786Z</time>
      </trkpt>
      <trkpt lat="46.37218" lon="5.66894">
        <ele>776.7</ele>
        <time>2014-05-03T16:19:48.785Z</time>
      </trkpt>
      <trkpt lat="46.37217" lon="5.669">
        <ele>776.3</ele>
        <time>2014-05-03T16:19:51.913Z</time>
      </trkpt>
      <trkpt lat="46.37215" lon="5.6691">
        <ele>773.7</ele>
        <time>2014-05-03T16:19:54.786Z</time>
      </trkpt>
      <trkpt lat="46.37212" lon="5.66924">
        <ele>771.1</ele>
        <time>2014-05-03T16:19:57.786Z</time>
      </trkpt>
      <trkpt lat="46.37208" lon="5.66937">
        <ele>770.8</ele>
        <time>2014-05-03T16:20:00.785Z</time>
      </trkpt>
      <trkpt lat="46.37205" lon="5.66942">
        <ele>771.4</ele>
        <time>2014-05-03T16:20:03.786Z</time>
      </trkpt>
      <trkpt lat="46.37202" lon="5.66948">
        <ele>773.1</ele>
        <time>2014-05-03T16:20:06.785Z</time>
      </trkpt>
      <trkpt lat="46.37199" lon="5.66953">
        <ele>772.2</ele>
        <time>2014-05-03T16:20:09.786Z</time>
      </trkpt>
      <trkpt lat="46.37194" lon="5.66958">
        <ele>770.2</ele>
        <time>2014-05-03T16:20:12.785Z</time>
      </trkpt>
      <trkpt lat="46.37189" lon="5.66964">
        <ele>767.9</ele>
        <time>2014-05-03T16:20:15.785Z</time>
      </trkpt>
      <trkpt lat="46.37185" lon="5.6697">
        <ele>769.6</ele>
        <time>2014-05-03T16:20:18.784Z</time>
      </trkpt>
      <trkpt lat="46.37182" lon="5.6698">
        <ele>768.2</ele>
        <time>2014-05-03T16:20:21.786Z</time>
      </trkpt>
      <trkpt lat="46.3718" lon="5.66991">
        <ele>763.7</ele>
        <time>2014-05-03T16:20:24.784Z</time>
      </trkpt>
      <trkpt lat="46.3718" lon="5.67001">
        <ele>759.8</ele>
        <time>2014-05-03T16:20:27.784Z</time>
      </trkpt>
      <trkpt lat="46.37182" lon="5.67013">
        <ele>760.8</ele>
        <time>2014-05-03T16:20:30.792Z</time>
      </trkpt>
      <trkpt lat="46.37187" lon="5.67021">
        <ele>761.5</ele>
        <time>2014-05-03T16:20:33.804Z</time>
      </trkpt>
      <trkpt lat="46.37191" lon="5.67023">
        <ele>760.1</ele>
        <time>2014-05-03T16:20:36.800Z</time>
      </trkpt>
      <trkpt lat="46.37194" lon="5.67023">
        <ele>760.8</ele>
        <time>2014-05-03T16:20:39.783Z</time>
      </trkpt>
      <trkpt lat="46.37198" lon="5.67024">
        <ele>763.8</ele>
        <time>2014-05-03T16:20:42.783Z</time>
      </trkpt>
      <trkpt lat="46.37202" lon="5.67028">
        <ele>766.4</ele>
        <time>2014-05-03T16:20:45.782Z</time>
      </trkpt>
      <trkpt lat="46.37201" lon="5.6704">
        <ele>763</ele>
        <time>2014-05-03T16:20:48.782Z</time>
      </trkpt>
      <trkpt lat="46.372" lon="5.67051">
        <ele>764.5</ele>
        <time>2014-05-03T16:20:51.782Z</time>
      </trkpt>
      <trkpt lat="46.37198" lon="5.67056">
        <ele>764.9</ele>
        <time>2014-05-03T16:20:54.783Z</time>
      </trkpt>
      <trkpt lat="46.37197" lon="5.67064">
        <ele>763.9</ele>
        <time>2014-05-03T16:20:57.783Z</time>
      </trkpt>
      <trkpt lat="46.37198" lon="5.67075">
        <ele>764.9</ele>
        <time>2014-05-03T16:21:00.830Z</time>
      </trkpt>
      <trkpt lat="46.37201" lon="5.67087">
        <ele>766.5</ele>
        <time>2014-05-03T16:21:03.786Z</time>
      </trkpt>
      <trkpt lat="46.37201" lon="5.67103">
        <ele>760.1</ele>
        <time>2014-05-03T16:21:06.863Z</time>
      </trkpt>
      <trkpt lat="46.372" lon="5.6712">
        <ele>756.8</ele>
        <time>2014-05-03T16:21:09.806Z</time>
      </trkpt>
      <trkpt lat="46.37194" lon="5.67133">
        <ele>754.7</ele>
        <time>2014-05-03T16:21:12.786Z</time>
      </trkpt>
      <trkpt lat="46.37189" lon="5.67136">
        <ele>757</ele>
        <time>2014-05-03T16:21:15.843Z</time>
      </trkpt>
      <trkpt lat="46.37181" lon="5.67137">
        <ele>757.2</ele>
        <time>2014-05-03T16:21:18.823Z</time>
      </trkpt>
      <trkpt lat="46.37171" lon="5.67142">
        <ele>757.1</ele>
        <time>2014-05-03T16:21:21.796Z</time>
      </trkpt>
      <trkpt lat="46.37156" lon="5.6716">
        <ele>756.8</ele>
        <time>2014-05-03T16:21:24.807Z</time>
      </trkpt>
      <trkpt lat="46.37146" lon="5.67167">
        <ele>760.5</ele>
        <time>2014-05-03T16:21:27.836Z</time>
      </trkpt>
      <trkpt lat="46.37142" lon="5.67173">
        <ele>757.8</ele>
        <time>2014-05-03T16:21:30.808Z</time>
      </trkpt>
      <trkpt lat="46.37132" lon="5.67184">
        <ele>757.4</ele>
        <time>2014-05-03T16:21:33.790Z</time>
      </trkpt>
      <trkpt lat="46.3712" lon="5.67192">
        <ele>759.9</ele>
        <time>2014-05-03T16:21:36.809Z</time>
      </trkpt>
      <trkpt lat="46.37116" lon="5.67196">
        <ele>759.4</ele>
        <time>2014-05-03T16:21:39.784Z</time>
      </trkpt>
      <trkpt lat="46.37114" lon="5.67199">
        <ele>760</ele>
        <time>2014-05-03T16:21:42.795Z</time>
      </trkpt>
      <trkpt lat="46.37111" lon="5.67204">
        <ele>761.2</ele>
        <time>2014-05-03T16:21:45.783Z</time>
      </trkpt>
      <trkpt lat="46.37106" lon="5.67214">
        <ele>760.2</ele>
        <time>2014-05-03T16:21:48.784Z</time>
      </trkpt>
      <trkpt lat="46.37102" lon="5.67226">
        <ele>755.3</ele>
        <time>2014-05-03T16:21:51.784Z</time>
      </trkpt>
      <trkpt lat="46.371" lon="5.67236">
        <ele>753.5</ele>
        <time>2014-05-03T16:21:54.784Z</time>
      </trkpt>
      <trkpt lat="46.37096" lon="5.67246">
        <ele>749.1</ele>
        <time>2014-05-03T16:21:57.785Z</time>
      </trkpt>
      <trkpt lat="46.37096" lon="5.67253">
        <ele>748</ele>
        <time>2014-05-03T16:22:00.790Z</time>
      </trkpt>
      <trkpt lat="46.37099" lon="5.67261">
        <ele>747.3</ele>
        <time>2014-05-03T16:22:03.856Z</time>
      </trkpt>
      <trkpt lat="46.37104" lon="5.67268">
        <ele>747</ele>
        <time>2014-05-03T16:22:06.841Z</time>
      </trkpt>
      <trkpt lat="46.37109" lon="5.67272">
        <ele>746.8</ele>
        <time>2014-05-03T16:22:09.794Z</time>
      </trkpt>
      <trkpt lat="46.37114" lon="5.67274">
        <ele>747.1</ele>
        <time>2014-05-03T16:22:12.785Z</time>
      </trkpt>
      <trkpt lat="46.3712" lon="5.67276">
        <ele>748.9</ele>
        <time>2014-05-03T16:22:15.784Z</time>
      </trkpt>
      <trkpt lat="46.37125" lon="5.67278">
        <ele>748.8</ele>
        <time>2014-05-03T16:22:18.857Z</time>
      </trkpt>
      <trkpt lat="46.37131" lon="5.6728">
        <ele>749</ele>
        <time>2014-05-03T16:22:21.783Z</time>
      </trkpt>
      <trkpt lat="46.37137" lon="5.67282">
        <ele>750</ele>
        <time>2014-05-03T16:22:24.785Z</time>
      </trkpt>
      <trkpt lat="46.37144" lon="5.67284">
        <ele>749.4</ele>
        <time>2014-05-03T16:22:27.784Z</time>
      </trkpt>
      <trkpt lat="46.3715" lon="5.67286">
        <ele>750.4</ele>
        <time>2014-05-03T16:22:30.784Z</time>
      </trkpt>
      <trkpt lat="46.37155" lon="5.67288">
        <ele>749.7</ele>
        <time>2014-05-03T16:22:33.784Z</time>
      </trkpt>
      <trkpt lat="46.37161" lon="5.67289">
        <ele>749.4</ele>
        <time>2014-05-03T16:22:36.784Z</time>
      </trkpt>
      <trkpt lat="46.37166" lon="5.67289">
        <ele>750.7</ele>
        <time>2014-05-03T16:22:39.784Z</time>
      </trkpt>
      <trkpt lat="46.37168" lon="5.67289">
        <ele>750.7</ele>
        <time>2014-05-03T16:22:42.783Z</time>
      </trkpt>
      <trkpt lat="46.37167" lon="5.67289">
        <ele>749.7</ele>
        <time>2014-05-03T16:22:45.831Z</time>
      </trkpt>
      <trkpt lat="46.37167" lon="5.67289">
        <ele>749.1</ele>
        <time>2014-05-03T16:22:48.794Z</time>
      </trkpt>
      <trkpt lat="46.37167" lon="5.67289">
        <ele>748.2</ele>
        <time>2014-05-03T16:22:51.869Z</time>
      </trkpt>
      <trkpt lat="46.37167" lon="5.67289">
        <ele>747.5</ele>
        <time>2014-05-03T16:22:54.857Z</time>
      </trkpt>
      <trkpt lat="46.37166" lon="5.67289">
        <ele>747.5</ele>
        <time>2014-05-03T16:22:57.799Z</time>
      </trkpt>
      <trkpt lat="46.37166" lon="5.67289">
        <ele>747.5</ele>
        <time>2014-05-03T16:23:00.843Z</time>
      </trkpt>
      <trkpt lat="46.37166" lon="5.67289">
        <ele>747.5</ele>
        <time>2014-05-03T16:23:03.846Z</time>
      </trkpt>
      <trkpt lat="46.37166" lon="5.67289">
        <ele>747.5</ele>
        <time>2014-05-03T16:23:06.793Z</time>
      </trkpt>
      <trkpt lat="46.37166" lon="5.67289">
        <ele>747.5</ele>
        <time>2014-05-03T16:23:09.812Z</time>
      </trkpt>
      <trkpt lat="46.37166" lon="5.67289">
        <ele>747.5</ele>
        <time>2014-05-03T16:23:12.805Z</time>
      </trkpt>
      <trkpt lat="46.37166" lon="5.67289">
        <ele>747.5</ele>
        <time>2014-05-03T16:23:15.784Z</time>
      </trkpt>
      <trkpt lat="46.37166" lon="5.67289">
        <ele>747.5</ele>
        <time>2014-05-03T16:23:18.783Z</time>
      </trkpt>
      <trkpt lat="46.37166" lon="5.67289">
        <ele>747.5</ele>
        <time>2014-05-03T16:23:21.783Z</time>
      </trkpt>
      <trkpt lat="46.37169" lon="5.6729">
        <ele>747.3</ele>
        <time>2014-05-03T16:23:24.783Z</time>
      </trkpt>
      <trkpt lat="46.37174" lon="5.6729">
        <ele>746.6</ele>
        <time>2014-05-03T16:23:27.784Z</time>
      </trkpt>
      <trkpt lat="46.37182" lon="5.67291">
        <ele>746.6</ele>
        <time>2014-05-03T16:23:30.784Z</time>
      </trkpt>
      <trkpt lat="46.3719" lon="5.67295">
        <ele>745.9</ele>
        <time>2014-05-03T16:23:33.783Z</time>
      </trkpt>
      <trkpt lat="46.37197" lon="5.673">
        <ele>744.9</ele>
        <time>2014-05-03T16:23:36.784Z</time>
      </trkpt>
      <trkpt lat="46.37204" lon="5.67304">
        <ele>746.7</ele>
        <time>2014-05-03T16:23:39.784Z</time>
      </trkpt>
      <trkpt lat="46.3721" lon="5.67307">
        <ele>748.6</ele>
        <time>2014-05-03T16:23:42.784Z</time>
      </trkpt>
      <trkpt lat="46.37216" lon="5.67309">
        <ele>750.1</ele>
        <time>2014-05-03T16:23:45.785Z</time>
      </trkpt>
      <trkpt lat="46.37225" lon="5.67315">
        <ele>750.9</ele>
        <time>2014-05-03T16:23:48.814Z</time>
      </trkpt>
      <trkpt lat="46.37234" lon="5.67317">
        <ele>752.1</ele>
        <time>2014-05-03T16:23:51.839Z</time>
      </trkpt>
      <trkpt lat="46.37239" lon="5.67316">
        <ele>752.9</ele>
        <time>2014-05-03T16:23:54.796Z</time>
      </trkpt>
      <trkpt lat="46.37243" lon="5.67313">
        <ele>752.1</ele>
        <time>2014-05-03T16:23:57.794Z</time>
      </trkpt>
      <trkpt lat="46.37248" lon="5.67313">
        <ele>751</ele>
        <time>2014-05-03T16:24:00.808Z</time>
      </trkpt>
      <trkpt lat="46.37251" lon="5.67312">
        <ele>750.8</ele>
        <time>2014-05-03T16:24:03.787Z</time>
      </trkpt>
      <trkpt lat="46.37255" lon="5.6731">
        <ele>752.4</ele>
        <time>2014-05-03T16:24:06.789Z</time>
      </trkpt>
      <trkpt lat="46.3726" lon="5.67307">
        <ele>751.9</ele>
        <time>2014-05-03T16:24:09.783Z</time>
      </trkpt>
      <trkpt lat="46.37266" lon="5.673">
        <ele>753.3</ele>
        <time>2014-05-03T16:24:12.784Z</time>
      </trkpt>
      <trkpt lat="46.37272" lon="5.67293">
        <ele>753.4</ele>
        <time>2014-05-03T16:24:15.784Z</time>
      </trkpt>
      <trkpt lat="46.37279" lon="5.67285">
        <ele>754.2</ele>
        <time>2014-05-03T16:24:18.869Z</time>
      </trkpt>
      <trkpt lat="46.37286" lon="5.6728">
        <ele>756.2</ele>
        <time>2014-05-03T16:24:21.792Z</time>
      </trkpt>
      <trkpt lat="46.37293" lon="5.67275">
        <ele>756.4</ele>
        <time>2014-05-03T16:24:24.790Z</time>
      </trkpt>
      <trkpt lat="46.37299" lon="5.67268">
        <ele>757</ele>
        <time>2014-05-03T16:24:27.828Z</time>
      </trkpt>
      <trkpt lat="46.37306" lon="5.6726">
        <ele>757</ele>
        <time>2014-05-03T16:24:30.812Z</time>
      </trkpt>
      <trkpt lat="46.37313" lon="5.67254">
        <ele>757.7</ele>
        <time>2014-05-03T16:24:33.814Z</time>
      </trkpt>
      <trkpt lat="46.37319" lon="5.67251">
        <ele>757.1</ele>
        <time>2014-05-03T16:24:36.800Z</time>
      </trkpt>
      <trkpt lat="46.37322" lon="5.67254">
        <ele>757.6</ele>
        <time>2014-05-03T16:24:39.840Z</time>
      </trkpt>
      <trkpt lat="46.37327" lon="5.67259">
        <ele>756.9</ele>
        <time>2014-05-03T16:24:42.785Z</time>
      </trkpt>
      <trkpt lat="46.37333" lon="5.67267">
        <ele>754</ele>
        <time>2014-05-03T16:24:45.785Z</time>
      </trkpt>
      <trkpt lat="46.37339" lon="5.67272">
        <ele>753.2</ele>
        <time>2014-05-03T16:24:48.785Z</time>
      </trkpt>
      <trkpt lat="46.37346" lon="5.67275">
        <ele>751.7</ele>
        <time>2014-05-03T16:24:51.784Z</time>
      </trkpt>
      <trkpt lat="46.37352" lon="5.67281">
        <ele>749.8</ele>
        <time>2014-05-03T16:24:54.792Z</time>
      </trkpt>
      <trkpt lat="46.37358" lon="5.67288">
        <ele>752.2</ele>
        <time>2014-05-03T16:24:57.784Z</time>
      </trkpt>
      <trkpt lat="46.37365" lon="5.67293">
        <ele>749.7</ele>
        <time>2014-05-03T16:25:00.785Z</time>
      </trkpt>
      <trkpt lat="46.37375" lon="5.67295">
        <ele>748.5</ele>
        <time>2014-05-03T16:25:03.786Z</time>
      </trkpt>
      <trkpt lat="46.3739" lon="5.67314">
        <ele>744</ele>
        <time>2014-05-03T16:25:06.783Z</time>
      </trkpt>
      <trkpt lat="46.37401" lon="5.67323">
        <ele>742.9</ele>
        <time>2014-05-03T16:25:09.784Z</time>
      </trkpt>
      <trkpt lat="46.37407" lon="5.67328">
        <ele>741.8</ele>
        <time>2014-05-03T16:25:12.783Z</time>
      </trkpt>
      <trkpt lat="46.37413" lon="5.67331">
        <ele>742.1</ele>
        <time>2014-05-03T16:25:15.785Z</time>
      </trkpt>
      <trkpt lat="46.37416" lon="5.67334">
        <ele>741</ele>
        <time>2014-05-03T16:25:18.784Z</time>
      </trkpt>
      <trkpt lat="46.37418" lon="5.6734">
        <ele>738.9</ele>
        <time>2014-05-03T16:25:21.809Z</time>
      </trkpt>
      <trkpt lat="46.3742" lon="5.67348">
        <ele>743.6</ele>
        <time>2014-05-03T16:25:24.799Z</time>
      </trkpt>
      <trkpt lat="46.37424" lon="5.67356">
        <ele>741.3</ele>
        <time>2014-05-03T16:25:27.825Z</time>
      </trkpt>
      <trkpt lat="46.37427" lon="5.67362">
        <ele>743.9</ele>
        <time>2014-05-03T16:25:30.786Z</time>
      </trkpt>
      <trkpt lat="46.37431" lon="5.67365">
        <ele>742.7</ele>
        <time>2014-05-03T16:25:33.784Z</time>
      </trkpt>
      <trkpt lat="46.37437" lon="5.67373">
        <ele>738.7</ele>
        <time>2014-05-03T16:25:36.818Z</time>
      </trkpt>
      <trkpt lat="46.37445" lon="5.67386">
        <ele>734.2</ele>
        <time>2014-05-03T16:25:39.807Z</time>
      </trkpt>
      <trkpt lat="46.3745" lon="5.67399">
        <ele>728.8</ele>
        <time>2014-05-03T16:25:42.786Z</time>
      </trkpt>
      <trkpt lat="46.37454" lon="5.6741">
        <ele>730.8</ele>
        <time>2014-05-03T16:25:45.784Z</time>
      </trkpt>
      <trkpt lat="46.37457" lon="5.67422">
        <ele>732.4</ele>
        <time>2014-05-03T16:25:48.805Z</time>
      </trkpt>
      <trkpt lat="46.37457" lon="5.67434">
        <ele>732.2</ele>
        <time>2014-05-03T16:25:51.786Z</time>
      </trkpt>
      <trkpt lat="46.37455" lon="5.67446">
        <ele>732.2</ele>
        <time>2014-05-03T16:25:54.784Z</time>
      </trkpt>
      <trkpt lat="46.37453" lon="5.67456">
        <ele>731.4</ele>
        <time>2014-05-03T16:25:57.805Z</time>
      </trkpt>
      <trkpt lat="46.37452" lon="5.67469">
        <ele>730.5</ele>
        <time>2014-05-03T16:26:00.784Z</time>
      </trkpt>
      <trkpt lat="46.37449" lon="5.67485">
        <ele>731.8</ele>
        <time>2014-05-03T16:26:03.784Z</time>
      </trkpt>
      <trkpt lat="46.37442" lon="5.67507">
        <ele>738.3</ele>
        <time>2014-05-03T16:26:06.784Z</time>
      </trkpt>
      <trkpt lat="46.37437" lon="5.67524">
        <ele>737.6</ele>
        <time>2014-05-03T16:26:09.786Z</time>
      </trkpt>
      <trkpt lat="46.37432" lon="5.67542">
        <ele>736.9</ele>
        <time>2014-05-03T16:26:12.814Z</time>
      </trkpt>
      <trkpt lat="46.37422" lon="5.67553">
        <ele>735.8</ele>
        <time>2014-05-03T16:26:15.833Z</time>
      </trkpt>
      <trkpt lat="46.37413" lon="5.67558">
        <ele>734.4</ele>
        <time>2014-05-03T16:26:18.786Z</time>
      </trkpt>
      <trkpt lat="46.37406" lon="5.6756">
        <ele>730.8</ele>
        <time>2014-05-03T16:26:21.790Z</time>
      </trkpt>
      <trkpt lat="46.37397" lon="5.67563">
        <ele>728.3</ele>
        <time>2014-05-03T16:26:24.804Z</time>
      </trkpt>
      <trkpt lat="46.37385" lon="5.67564">
        <ele>727.6</ele>
        <time>2014-05-03T16:26:27.805Z</time>
      </trkpt>
      <trkpt lat="46.37374" lon="5.67566">
        <ele>724.8</ele>
        <time>2014-05-03T16:26:30.785Z</time>
      </trkpt>
      <trkpt lat="46.3737" lon="5.67575">
        <ele>723.5</ele>
        <time>2014-05-03T16:26:33.797Z</time>
      </trkpt>
      <trkpt lat="46.37371" lon="5.67585">
        <ele>718.5</ele>
        <time>2014-05-03T16:26:36.811Z</time>
      </trkpt>
      <trkpt lat="46.37373" lon="5.67591">
        <ele>716.8</ele>
        <time>2014-05-03T16:26:39.787Z</time>
      </trkpt>
      <trkpt lat="46.37376" lon="5.67599">
        <ele>711.5</ele>
        <time>2014-05-03T16:26:42.864Z</time>
      </trkpt>
      <trkpt lat="46.3738" lon="5.67608">
        <ele>709.1</ele>
        <time>2014-05-03T16:26:45.817Z</time>
      </trkpt>
      <trkpt lat="46.37385" lon="5.67614">
        <ele>707.2</ele>
        <time>2014-05-03T16:26:48.787Z</time>
      </trkpt>
      <trkpt lat="46.37393" lon="5.67617">
        <ele>709.8</ele>
        <time>2014-05-03T16:26:51.836Z</time>
      </trkpt>
      <trkpt lat="46.37402" lon="5.67618">
        <ele>709.8</ele>
        <time>2014-05-03T16:26:54.832Z</time>
      </trkpt>
      <trkpt lat="46.37408" lon="5.67627">
        <ele>710.3</ele>
        <time>2014-05-03T16:26:57.790Z</time>
      </trkpt>
      <trkpt lat="46.37411" lon="5.67643">
        <ele>710.2</ele>
        <time>2014-05-03T16:27:00.786Z</time>
      </trkpt>
      <trkpt lat="46.37416" lon="5.67648">
        <ele>709.5</ele>
        <time>2014-05-03T16:27:03.841Z</time>
      </trkpt>
      <trkpt lat="46.37423" lon="5.67647">
        <ele>708.9</ele>
        <time>2014-05-03T16:27:06.789Z</time>
      </trkpt>
      <trkpt lat="46.3743" lon="5.67646">
        <ele>708</ele>
        <time>2014-05-03T16:27:09.788Z</time>
      </trkpt>
      <trkpt lat="46.37436" lon="5.67641">
        <ele>710.3</ele>
        <time>2014-05-03T16:27:12.854Z</time>
      </trkpt>
      <trkpt lat="46.37444" lon="5.67636">
        <ele>712.3</ele>
        <time>2014-05-03T16:27:15.808Z</time>
      </trkpt>
      <trkpt lat="46.37449" lon="5.67634">
        <ele>710.2</ele>
        <time>2014-05-03T16:27:18.785Z</time>
      </trkpt>
      <trkpt lat="46.3745" lon="5.67635">
        <ele>710.8</ele>
        <time>2014-05-03T16:27:21.807Z</time>
      </trkpt>
      <trkpt lat="46.37449" lon="5.67636">
        <ele>709.6</ele>
        <time>2014-05-03T16:27:24.810Z</time>
      </trkpt>
      <trkpt lat="46.37449" lon="5.67637">
        <ele>709.3</ele>
        <time>2014-05-03T16:27:27.784Z</time>
      </trkpt>
      <trkpt lat="46.37449" lon="5.67637">
        <ele>709.1</ele>
        <time>2014-05-03T16:27:30.860Z</time>
      </trkpt>
      <trkpt lat="46.3745" lon="5.67637">
        <ele>708.9</ele>
        <time>2014-05-03T16:27:33.808Z</time>
      </trkpt>
      <trkpt lat="46.3745" lon="5.67637">
        <ele>709.2</ele>
        <time>2014-05-03T16:27:36.786Z</time>
      </trkpt>
      <trkpt lat="46.3745" lon="5.67637">
        <ele>709.1</ele>
        <time>2014-05-03T16:27:39.836Z</time>
      </trkpt>
      <trkpt lat="46.3745" lon="5.67637">
        <ele>709.1</ele>
        <time>2014-05-03T16:27:42.796Z</time>
      </trkpt>
      <trkpt lat="46.3745" lon="5.67637">
        <ele>709.1</ele>
        <time>2014-05-03T16:27:45.786Z</time>
      </trkpt>
      <trkpt lat="46.3745" lon="5.67638">
        <ele>709.1</ele>
        <time>2014-05-03T16:27:48.801Z</time>
      </trkpt>
      <trkpt lat="46.37451" lon="5.67648">
        <ele>709.2</ele>
        <time>2014-05-03T16:27:51.832Z</time>
      </trkpt>
      <trkpt lat="46.37457" lon="5.67664">
        <ele>707.5</ele>
        <time>2014-05-03T16:27:54.786Z</time>
      </trkpt>
      <trkpt lat="46.37461" lon="5.67682">
        <ele>703.6</ele>
        <time>2014-05-03T16:27:57.786Z</time>
      </trkpt>
      <trkpt lat="46.37465" lon="5.67696">
        <ele>701.9</ele>
        <time>2014-05-03T16:28:00.805Z</time>
      </trkpt>
      <trkpt lat="46.37469" lon="5.67709">
        <ele>697.4</ele>
        <time>2014-05-03T16:28:03.807Z</time>
      </trkpt>
      <trkpt lat="46.37472" lon="5.67722">
        <ele>695</ele>
        <time>2014-05-03T16:28:06.785Z</time>
      </trkpt>
      <trkpt lat="46.37478" lon="5.67736">
        <ele>695.6</ele>
        <time>2014-05-03T16:28:09.865Z</time>
      </trkpt>
      <trkpt lat="46.37484" lon="5.67754">
        <ele>692.9</ele>
        <time>2014-05-03T16:28:12.805Z</time>
      </trkpt>
      <trkpt lat="46.37485" lon="5.67773">
        <ele>686.4</ele>
        <time>2014-05-03T16:28:15.922Z</time>
      </trkpt>
      <trkpt lat="46.37485" lon="5.67789">
        <ele>683.7</ele>
        <time>2014-05-03T16:28:18.810Z</time>
      </trkpt>
      <trkpt lat="46.37491" lon="5.67804">
        <ele>680.5</ele>
        <time>2014-05-03T16:28:21.786Z</time>
      </trkpt>
      <trkpt lat="46.37495" lon="5.67815">
        <ele>676.5</ele>
        <time>2014-05-03T16:28:24.839Z</time>
      </trkpt>
      <trkpt lat="46.375" lon="5.67822">
        <ele>675.9</ele>
        <time>2014-05-03T16:28:27.814Z</time>
      </trkpt>
      <trkpt lat="46.37505" lon="5.67827">
        <ele>674.5</ele>
        <time>2014-05-03T16:28:30.783Z</time>
      </trkpt>
      <trkpt lat="46.37508" lon="5.67831">
        <ele>671.8</ele>
        <time>2014-05-03T16:28:33.800Z</time>
      </trkpt>
      <trkpt lat="46.37511" lon="5.67842">
        <ele>662.7</ele>
        <time>2014-05-03T16:28:36.819Z</time>
      </trkpt>
      <trkpt lat="46.37515" lon="5.6786">
        <ele>661.3</ele>
        <time>2014-05-03T16:28:39.785Z</time>
      </trkpt>
      <trkpt lat="46.37516" lon="5.67878">
        <ele>663.4</ele>
        <time>2014-05-03T16:28:42.787Z</time>
      </trkpt>
      <trkpt lat="46.37517" lon="5.67889">
        <ele>664</ele>
        <time>2014-05-03T16:28:45.784Z</time>
      </trkpt>
      <trkpt lat="46.37517" lon="5.679">
        <ele>664.3</ele>
        <time>2014-05-03T16:28:48.783Z</time>
      </trkpt>
      <trkpt lat="46.37518" lon="5.6791">
        <ele>663.9</ele>
        <time>2014-05-03T16:28:51.785Z</time>
      </trkpt>
      <trkpt lat="46.37521" lon="5.67927">
        <ele>662.3</ele>
        <time>2014-05-03T16:28:54.783Z</time>
      </trkpt>
      <trkpt lat="46.37523" lon="5.67946">
        <ele>660</ele>
        <time>2014-05-03T16:28:57.785Z</time>
      </trkpt>
      <trkpt lat="46.3751" lon="5.67976">
        <ele>656.7</ele>
        <time>2014-05-03T16:29:00.791Z</time>
      </trkpt>
      <trkpt lat="46.37513" lon="5.67987">
        <ele>658.5</ele>
        <time>2014-05-03T16:29:03.796Z</time>
      </trkpt>
      <trkpt lat="46.37522" lon="5.6799">
        <ele>660.1</ele>
        <time>2014-05-03T16:29:06.785Z</time>
      </trkpt>
      <trkpt lat="46.37535" lon="5.67998">
        <ele>661.9</ele>
        <time>2014-05-03T16:29:09.784Z</time>
      </trkpt>
      <trkpt lat="46.37546" lon="5.68006">
        <ele>658.5</ele>
        <time>2014-05-03T16:29:12.795Z</time>
      </trkpt>
      <trkpt lat="46.37554" lon="5.68015">
        <ele>657.8</ele>
        <time>2014-05-03T16:29:15.798Z</time>
      </trkpt>
      <trkpt lat="46.37561" lon="5.68025">
        <ele>655.6</ele>
        <time>2014-05-03T16:29:18.786Z</time>
      </trkpt>
      <trkpt lat="46.37567" lon="5.68037">
        <ele>654</ele>
        <time>2014-05-03T16:29:21.866Z</time>
      </trkpt>
      <trkpt lat="46.37571" lon="5.68046">
        <ele>650.4</ele>
        <time>2014-05-03T16:29:24.831Z</time>
      </trkpt>
      <trkpt lat="46.37575" lon="5.68041">
        <ele>651</ele>
        <time>2014-05-03T16:29:27.941Z</time>
      </trkpt>
      <trkpt lat="46.37581" lon="5.68029">
        <ele>654.9</ele>
        <time>2014-05-03T16:29:30.989Z</time>
      </trkpt>
      <trkpt lat="46.37588" lon="5.68022">
        <ele>655.7</ele>
        <time>2014-05-03T16:29:33.999Z</time>
      </trkpt>
      <trkpt lat="46.37594" lon="5.68024">
        <ele>655.8</ele>
        <time>2014-05-03T16:29:36.946Z</time>
      </trkpt>
      <trkpt lat="46.37596" lon="5.68033">
        <ele>656.7</ele>
        <time>2014-05-03T16:29:39.971Z</time>
      </trkpt>
      <trkpt lat="46.37598" lon="5.68041">
        <ele>660</ele>
        <time>2014-05-03T16:29:42.995Z</time>
      </trkpt>
      <trkpt lat="46.376" lon="5.68048">
        <ele>660.6</ele>
        <time>2014-05-03T16:29:45.945Z</time>
      </trkpt>
      <trkpt lat="46.37602" lon="5.68058">
        <ele>657.9</ele>
        <time>2014-05-03T16:29:48.946Z</time>
      </trkpt>
      <trkpt lat="46.37606" lon="5.68066">
        <ele>659.2</ele>
        <time>2014-05-03T16:29:51.936Z</time>
      </trkpt>
      <trkpt lat="46.37611" lon="5.68071">
        <ele>659.6</ele>
        <time>2014-05-03T16:29:54.957Z</time>
      </trkpt>
      <trkpt lat="46.37616" lon="5.68074">
        <ele>659.7</ele>
        <time>2014-05-03T16:29:57.934Z</time>
      </trkpt>
      <trkpt lat="46.37622" lon="5.68077">
        <ele>662.3</ele>
        <time>2014-05-03T16:30:00.934Z</time>
      </trkpt>
      <trkpt lat="46.37628" lon="5.68087">
        <ele>658.6</ele>
        <time>2014-05-03T16:30:03.935Z</time>
      </trkpt>
      <trkpt lat="46.37633" lon="5.68102">
        <ele>657</ele>
        <time>2014-05-03T16:30:06.940Z</time>
      </trkpt>
      <trkpt lat="46.37644" lon="5.68124">
        <ele>655.1</ele>
        <time>2014-05-03T16:30:09.942Z</time>
      </trkpt>
      <trkpt lat="46.37654" lon="5.6814">
        <ele>656.1</ele>
        <time>2014-05-03T16:30:12.971Z</time>
      </trkpt>
      <trkpt lat="46.3766" lon="5.68156">
        <ele>655.5</ele>
        <time>2014-05-03T16:30:15.945Z</time>
      </trkpt>
      <trkpt lat="46.37666" lon="5.68173">
        <ele>653.4</ele>
        <time>2014-05-03T16:30:18.993Z</time>
      </trkpt>
      <trkpt lat="46.37673" lon="5.68189">
        <ele>648.5</ele>
        <time>2014-05-03T16:30:21.992Z</time>
      </trkpt>
      <trkpt lat="46.37685" lon="5.68209">
        <ele>646</ele>
        <time>2014-05-03T16:30:24.944Z</time>
      </trkpt>
      <trkpt lat="46.37695" lon="5.68223">
        <ele>644.8</ele>
        <time>2014-05-03T16:30:27.969Z</time>
      </trkpt>
      <trkpt lat="46.37699" lon="5.68246">
        <ele>641.3</ele>
        <time>2014-05-03T16:30:30.984Z</time>
      </trkpt>
      <trkpt lat="46.37699" lon="5.68271">
        <ele>639.2</ele>
        <time>2014-05-03T16:30:33.954Z</time>
      </trkpt>
      <trkpt lat="46.3771" lon="5.6828">
        <ele>637.1</ele>
        <time>2014-05-03T16:30:36.939Z</time>
      </trkpt>
      <trkpt lat="46.37718" lon="5.68277">
        <ele>638.9</ele>
        <time>2014-05-03T16:30:39.961Z</time>
      </trkpt>
      <trkpt lat="46.3773" lon="5.68272">
        <ele>646.3</ele>
        <time>2014-05-03T16:30:42.967Z</time>
      </trkpt>
      <trkpt lat="46.3774" lon="5.68269">
        <ele>647.3</ele>
        <time>2014-05-03T16:30:45.938Z</time>
      </trkpt>
      <trkpt lat="46.37751" lon="5.68264">
        <ele>656.4</ele>
        <time>2014-05-03T16:30:48.975Z</time>
      </trkpt>
      <trkpt lat="46.37764" lon="5.68263">
        <ele>659.6</ele>
        <time>2014-05-03T16:30:51.937Z</time>
      </trkpt>
      <trkpt lat="46.37778" lon="5.68267">
        <ele>658.2</ele>
        <time>2014-05-03T16:30:54.937Z</time>
      </trkpt>
      <trkpt lat="46.37792" lon="5.68271">
        <ele>656.1</ele>
        <time>2014-05-03T16:30:57.938Z</time>
      </trkpt>
      <trkpt lat="46.37806" lon="5.68281">
        <ele>656.3</ele>
        <time>2014-05-03T16:31:00.938Z</time>
      </trkpt>
      <trkpt lat="46.37817" lon="5.68291">
        <ele>657.9</ele>
        <time>2014-05-03T16:31:03.938Z</time>
      </trkpt>
      <trkpt lat="46.37824" lon="5.68298">
        <ele>659.8</ele>
        <time>2014-05-03T16:31:06.937Z</time>
      </trkpt>
      <trkpt lat="46.37834" lon="5.68306">
        <ele>660.7</ele>
        <time>2014-05-03T16:31:09.937Z</time>
      </trkpt>
      <trkpt lat="46.37842" lon="5.68314">
        <ele>663.3</ele>
        <time>2014-05-03T16:31:12.937Z</time>
      </trkpt>
      <trkpt lat="46.3785" lon="5.68321">
        <ele>665.8</ele>
        <time>2014-05-03T16:31:15.937Z</time>
      </trkpt>
      <trkpt lat="46.37857" lon="5.68329">
        <ele>664.4</ele>
        <time>2014-05-03T16:31:18.937Z</time>
      </trkpt>
      <trkpt lat="46.37864" lon="5.6834">
        <ele>662.2</ele>
        <time>2014-05-03T16:31:21.936Z</time>
      </trkpt>
      <trkpt lat="46.37871" lon="5.68359">
        <ele>658.6</ele>
        <time>2014-05-03T16:31:24.936Z</time>
      </trkpt>
      <trkpt lat="46.37879" lon="5.68385">
        <ele>657.6</ele>
        <time>2014-05-03T16:31:27.943Z</time>
      </trkpt>
      <trkpt lat="46.3789" lon="5.68402">
        <ele>655.8</ele>
        <time>2014-05-03T16:31:30.962Z</time>
      </trkpt>
      <trkpt lat="46.37903" lon="5.68417">
        <ele>654</ele>
        <time>2014-05-03T16:31:33.939Z</time>
      </trkpt>
      <trkpt lat="46.37915" lon="5.68432">
        <ele>653.9</ele>
        <time>2014-05-03T16:31:36.959Z</time>
      </trkpt>
      <trkpt lat="46.37924" lon="5.68445">
        <ele>653.3</ele>
        <time>2014-05-03T16:31:39.966Z</time>
      </trkpt>
      <trkpt lat="46.37934" lon="5.6846">
        <ele>654.6</ele>
        <time>2014-05-03T16:31:42.940Z</time>
      </trkpt>
      <trkpt lat="46.37942" lon="5.68482">
        <ele>651.7</ele>
        <time>2014-05-03T16:31:45.938Z</time>
      </trkpt>
      <trkpt lat="46.37951" lon="5.68505">
        <ele>648.4</ele>
        <time>2014-05-03T16:31:48.960Z</time>
      </trkpt>
      <trkpt lat="46.37959" lon="5.68518">
        <ele>647.1</ele>
        <time>2014-05-03T16:31:51.941Z</time>
      </trkpt>
      <trkpt lat="46.37973" lon="5.68523">
        <ele>647.9</ele>
        <time>2014-05-03T16:31:54.977Z</time>
      </trkpt>
      <trkpt lat="46.37982" lon="5.68527">
        <ele>648.8</ele>
        <time>2014-05-03T16:31:57.970Z</time>
      </trkpt>
      <trkpt lat="46.3799" lon="5.68531">
        <ele>649.3</ele>
        <time>2014-05-03T16:32:00.939Z</time>
      </trkpt>
      <trkpt lat="46.38004" lon="5.68521">
        <ele>657.1</ele>
        <time>2014-05-03T16:32:03.957Z</time>
      </trkpt>
      <trkpt lat="46.38014" lon="5.68532">
        <ele>652.6</ele>
        <time>2014-05-03T16:32:06.986Z</time>
      </trkpt>
      <trkpt lat="46.38027" lon="5.68549">
        <ele>646.6</ele>
        <time>2014-05-03T16:32:09.946Z</time>
      </trkpt>
      <trkpt lat="46.38041" lon="5.68565">
        <ele>641</ele>
        <time>2014-05-03T16:32:12.937Z</time>
      </trkpt>
      <trkpt lat="46.38051" lon="5.68587">
        <ele>639.2</ele>
        <time>2014-05-03T16:32:15.976Z</time>
      </trkpt>
      <trkpt lat="46.38062" lon="5.68609">
        <ele>636.4</ele>
        <time>2014-05-03T16:32:18.958Z</time>
      </trkpt>
      <trkpt lat="46.38074" lon="5.68609">
        <ele>638.3</ele>
        <time>2014-05-03T16:32:21.938Z</time>
      </trkpt>
      <trkpt lat="46.38082" lon="5.68603">
        <ele>639.3</ele>
        <time>2014-05-03T16:32:25.010Z</time>
      </trkpt>
      <trkpt lat="46.38085" lon="5.68604">
        <ele>636.7</ele>
        <time>2014-05-03T16:32:27.958Z</time>
      </trkpt>
      <trkpt lat="46.38092" lon="5.68597">
        <ele>633.8</ele>
        <time>2014-05-03T16:32:30.938Z</time>
      </trkpt>
      <trkpt lat="46.38097" lon="5.68587">
        <ele>632.6</ele>
        <time>2014-05-03T16:32:34.021Z</time>
      </trkpt>
      <trkpt lat="46.38112" lon="5.68586">
        <ele>629.8</ele>
        <time>2014-05-03T16:32:36.961Z</time>
      </trkpt>
      <trkpt lat="46.38126" lon="5.6859">
        <ele>627.5</ele>
        <time>2014-05-03T16:32:39.939Z</time>
      </trkpt>
      <trkpt lat="46.38139" lon="5.68594">
        <ele>624.5</ele>
        <time>2014-05-03T16:32:42.991Z</time>
      </trkpt>
      <trkpt lat="46.38152" lon="5.6859">
        <ele>625.2</ele>
        <time>2014-05-03T16:32:45.949Z</time>
      </trkpt>
      <trkpt lat="46.3816" lon="5.68583">
        <ele>626.3</ele>
        <time>2014-05-03T16:32:48.938Z</time>
      </trkpt>
      <trkpt lat="46.3817" lon="5.68592">
        <ele>623</ele>
        <time>2014-05-03T16:32:51.969Z</time>
      </trkpt>
      <trkpt lat="46.38177" lon="5.68607">
        <ele>621.7</ele>
        <time>2014-05-03T16:32:54.991Z</time>
      </trkpt>
      <trkpt lat="46.38187" lon="5.6862">
        <ele>622.1</ele>
        <time>2014-05-03T16:32:57.957Z</time>
      </trkpt>
      <trkpt lat="46.38198" lon="5.68624">
        <ele>622.1</ele>
        <time>2014-05-03T16:33:00.936Z</time>
      </trkpt>
      <trkpt lat="46.38208" lon="5.68618">
        <ele>623.8</ele>
        <time>2014-05-03T16:33:03.936Z</time>
      </trkpt>
      <trkpt lat="46.38216" lon="5.68614">
        <ele>623.4</ele>
        <time>2014-05-03T16:33:06.936Z</time>
      </trkpt>
      <trkpt lat="46.38217" lon="5.68603">
        <ele>623.7</ele>
        <time>2014-05-03T16:33:09.936Z</time>
      </trkpt>
      <trkpt lat="46.38206" lon="5.68582">
        <ele>619.6</ele>
        <time>2014-05-03T16:33:12.938Z</time>
      </trkpt>
      <trkpt lat="46.38202" lon="5.68564">
        <ele>615.9</ele>
        <time>2014-05-03T16:33:15.941Z</time>
      </trkpt>
      <trkpt lat="46.38201" lon="5.68541">
        <ele>616.8</ele>
        <time>2014-05-03T16:33:18.937Z</time>
      </trkpt>
      <trkpt lat="46.38202" lon="5.68521">
        <ele>612.8</ele>
        <time>2014-05-03T16:33:21.933Z</time>
      </trkpt>
      <trkpt lat="46.38202" lon="5.68497">
        <ele>605.4</ele>
        <time>2014-05-03T16:33:24.936Z</time>
      </trkpt>
      <trkpt lat="46.382" lon="5.68473">
        <ele>597.4</ele>
        <time>2014-05-03T16:33:27.974Z</time>
      </trkpt>
      <trkpt lat="46.382" lon="5.6845">
        <ele>591.7</ele>
        <time>2014-05-03T16:33:31.072Z</time>
      </trkpt>
      <trkpt lat="46.38194" lon="5.68428">
        <ele>586.6</ele>
        <time>2014-05-03T16:33:33.971Z</time>
      </trkpt>
      <trkpt lat="46.38185" lon="5.68407">
        <ele>581.5</ele>
        <time>2014-05-03T16:33:37.037Z</time>
      </trkpt>
      <trkpt lat="46.38173" lon="5.68388">
        <ele>578.4</ele>
        <time>2014-05-03T16:33:39.970Z</time>
      </trkpt>
      <trkpt lat="46.3816" lon="5.6837">
        <ele>574.6</ele>
        <time>2014-05-03T16:33:42.950Z</time>
      </trkpt>
      <trkpt lat="46.38148" lon="5.68353">
        <ele>571.9</ele>
        <time>2014-05-03T16:33:46.020Z</time>
      </trkpt>
      <trkpt lat="46.38135" lon="5.68334">
        <ele>567.6</ele>
        <time>2014-05-03T16:33:48.938Z</time>
      </trkpt>
      <trkpt lat="46.38121" lon="5.68316">
        <ele>561.4</ele>
        <time>2014-05-03T16:33:52.073Z</time>
      </trkpt>
      <trkpt lat="46.38108" lon="5.68299">
        <ele>558.1</ele>
        <time>2014-05-03T16:33:54.938Z</time>
      </trkpt>
      <trkpt lat="46.38093" lon="5.68283">
        <ele>555.3</ele>
        <time>2014-05-03T16:33:58.073Z</time>
      </trkpt>
      <trkpt lat="46.38078" lon="5.68269">
        <ele>554.4</ele>
        <time>2014-05-03T16:34:00.961Z</time>
      </trkpt>
      <trkpt lat="46.38062" lon="5.68253">
        <ele>551.4</ele>
        <time>2014-05-03T16:34:04.007Z</time>
      </trkpt>
      <trkpt lat="46.38048" lon="5.68237">
        <ele>548.4</ele>
        <time>2014-05-03T16:34:06.971Z</time>
      </trkpt>
      <trkpt lat="46.38037" lon="5.68219">
        <ele>549.4</ele>
        <time>2014-05-03T16:34:09.986Z</time>
      </trkpt>
      <trkpt lat="46.38023" lon="5.68187">
        <ele>543.2</ele>
        <time>2014-05-03T16:34:13.015Z</time>
      </trkpt>
      <trkpt lat="46.38013" lon="5.68157">
        <ele>537</ele>
        <time>2014-05-03T16:34:15.939Z</time>
      </trkpt>
      <trkpt lat="46.38007" lon="5.68129">
        <ele>533.8</ele>
        <time>2014-05-03T16:34:19.039Z</time>
      </trkpt>
      <trkpt lat="46.38007" lon="5.68102">
        <ele>530.9</ele>
        <time>2014-05-03T16:34:21.943Z</time>
      </trkpt>
      <trkpt lat="46.38009" lon="5.68075">
        <ele>526.1</ele>
        <time>2014-05-03T16:34:24.935Z</time>
      </trkpt>
      <trkpt lat="46.38022" lon="5.68048">
        <ele>523.2</ele>
        <time>2014-05-03T16:34:27.976Z</time>
      </trkpt>
      <trkpt lat="46.3804" lon="5.68023">
        <ele>520.3</ele>
        <time>2014-05-03T16:34:30.979Z</time>
      </trkpt>
      <trkpt lat="46.38053" lon="5.67989">
        <ele>519.8</ele>
        <time>2014-05-03T16:34:33.937Z</time>
      </trkpt>
      <trkpt lat="46.38067" lon="5.67959">
        <ele>520.1</ele>
        <time>2014-05-03T16:34:36.936Z</time>
      </trkpt>
      <trkpt lat="46.38079" lon="5.67933">
        <ele>519.2</ele>
        <time>2014-05-03T16:34:39.938Z</time>
      </trkpt>
      <trkpt lat="46.38094" lon="5.67905">
        <ele>517.8</ele>
        <time>2014-05-03T16:34:42.959Z</time>
      </trkpt>
      <trkpt lat="46.38114" lon="5.67882">
        <ele>516.3</ele>
        <time>2014-05-03T16:34:45.939Z</time>
      </trkpt>
      <trkpt lat="46.38138" lon="5.67863">
        <ele>513.3</ele>
        <time>2014-05-03T16:34:49.042Z</time>
      </trkpt>
      <trkpt lat="46.38161" lon="5.67845">
        <ele>511.8</ele>
        <time>2014-05-03T16:34:51.962Z</time>
      </trkpt>
      <trkpt lat="46.38179" lon="5.67826">
        <ele>511</ele>
        <time>2014-05-03T16:34:54.939Z</time>
      </trkpt>
      <trkpt lat="46.38194" lon="5.67805">
        <ele>510.7</ele>
        <time>2014-05-03T16:34:58.023Z</time>
      </trkpt>
      <trkpt lat="46.38208" lon="5.67787">
        <ele>509.3</ele>
        <time>2014-05-03T16:35:00.957Z</time>
      </trkpt>
      <trkpt lat="46.38221" lon="5.67769">
        <ele>506.6</ele>
        <time>2014-05-03T16:35:03.941Z</time>
      </trkpt>
      <trkpt lat="46.3823" lon="5.67743">
        <ele>506.6</ele>
        <time>2014-05-03T16:35:06.994Z</time>
      </trkpt>
      <trkpt lat="46.38242" lon="5.67719">
        <ele>504.3</ele>
        <time>2014-05-03T16:35:09.991Z</time>
      </trkpt>
      <trkpt lat="46.38262" lon="5.67709">
        <ele>503.8</ele>
        <time>2014-05-03T16:35:12.933Z</time>
      </trkpt>
      <trkpt lat="46.38276" lon="5.67691">
        <ele>502.9</ele>
        <time>2014-05-03T16:35:15.949Z</time>
      </trkpt>
      <trkpt lat="46.38288" lon="5.67678">
        <ele>502.8</ele>
        <time>2014-05-03T16:35:18.937Z</time>
      </trkpt>
      <trkpt lat="46.38304" lon="5.67676">
        <ele>503</ele>
        <time>2014-05-03T16:35:21.936Z</time>
      </trkpt>
      <trkpt lat="46.38321" lon="5.67683">
        <ele>501.5</ele>
        <time>2014-05-03T16:35:24.936Z</time>
      </trkpt>
      <trkpt lat="46.38337" lon="5.67694">
        <ele>499.3</ele>
        <time>2014-05-03T16:35:27.936Z</time>
      </trkpt>
      <trkpt lat="46.38354" lon="5.67706">
        <ele>497.9</ele>
        <time>2014-05-03T16:35:30.936Z</time>
      </trkpt>
      <trkpt lat="46.38373" lon="5.67714">
        <ele>496.2</ele>
        <time>2014-05-03T16:35:33.936Z</time>
      </trkpt>
      <trkpt lat="46.3839" lon="5.6772">
        <ele>496.1</ele>
        <time>2014-05-03T16:35:37.028Z</time>
      </trkpt>
      <trkpt lat="46.38407" lon="5.67715">
        <ele>497.9</ele>
        <time>2014-05-03T16:35:39.961Z</time>
      </trkpt>
      <trkpt lat="46.38415" lon="5.67705">
        <ele>498.8</ele>
        <time>2014-05-03T16:35:42.937Z</time>
      </trkpt>
      <trkpt lat="46.38423" lon="5.67686">
        <ele>500.1</ele>
        <time>2014-05-03T16:35:45.937Z</time>
      </trkpt>
      <trkpt lat="46.38429" lon="5.67677">
        <ele>503</ele>
        <time>2014-05-03T16:35:48.964Z</time>
      </trkpt>
      <trkpt lat="46.38445" lon="5.67664">
        <ele>500.9</ele>
        <time>2014-05-03T16:35:51.941Z</time>
      </trkpt>
      <trkpt lat="46.38459" lon="5.67655">
        <ele>499.7</ele>
        <time>2014-05-03T16:35:54.987Z</time>
      </trkpt>
      <trkpt lat="46.38471" lon="5.6765">
        <ele>501.4</ele>
        <time>2014-05-03T16:35:57.991Z</time>
      </trkpt>
      <trkpt lat="46.38482" lon="5.67644">
        <ele>502.3</ele>
        <time>2014-05-03T16:36:00.936Z</time>
      </trkpt>
      <trkpt lat="46.38492" lon="5.67636">
        <ele>501.4</ele>
        <time>2014-05-03T16:36:03.935Z</time>
      </trkpt>
      <trkpt lat="46.38501" lon="5.6763">
        <ele>501.5</ele>
        <time>2014-05-03T16:36:06.935Z</time>
      </trkpt>
      <trkpt lat="46.38509" lon="5.67623">
        <ele>501</ele>
        <time>2014-05-03T16:36:09.935Z</time>
      </trkpt>
      <trkpt lat="46.38515" lon="5.67616">
        <ele>501.5</ele>
        <time>2014-05-03T16:36:12.938Z</time>
      </trkpt>
      <trkpt lat="46.38522" lon="5.67609">
        <ele>501.8</ele>
        <time>2014-05-03T16:36:16.001Z</time>
      </trkpt>
      <trkpt lat="46.3853" lon="5.67604">
        <ele>501.6</ele>
        <time>2014-05-03T16:36:18.961Z</time>
      </trkpt>
      <trkpt lat="46.38538" lon="5.676">
        <ele>501.5</ele>
        <time>2014-05-03T16:36:21.937Z</time>
      </trkpt>
      <trkpt lat="46.38546" lon="5.67597">
        <ele>500.8</ele>
        <time>2014-05-03T16:36:25.052Z</time>
      </trkpt>
      <trkpt lat="46.38553" lon="5.67595">
        <ele>502.4</ele>
        <time>2014-05-03T16:36:27.967Z</time>
      </trkpt>
      <trkpt lat="46.3856" lon="5.67593">
        <ele>502.4</ele>
        <time>2014-05-03T16:36:30.940Z</time>
      </trkpt>
      <trkpt lat="46.38567" lon="5.67591">
        <ele>502.7</ele>
        <time>2014-05-03T16:36:34.019Z</time>
      </trkpt>
      <trkpt lat="46.38575" lon="5.67588">
        <ele>502.5</ele>
        <time>2014-05-03T16:36:36.970Z</time>
      </trkpt>
      <trkpt lat="46.38581" lon="5.67585">
        <ele>503.5</ele>
        <time>2014-05-03T16:36:39.939Z</time>
      </trkpt>
      <trkpt lat="46.38588" lon="5.67584">
        <ele>504.1</ele>
        <time>2014-05-03T16:36:42.995Z</time>
      </trkpt>
      <trkpt lat="46.38595" lon="5.67582">
        <ele>505.8</ele>
        <time>2014-05-03T16:36:45.986Z</time>
      </trkpt>
      <trkpt lat="46.38602" lon="5.67581">
        <ele>507</ele>
        <time>2014-05-03T16:36:48.941Z</time>
      </trkpt>
      <trkpt lat="46.38608" lon="5.6758">
        <ele>508.3</ele>
        <time>2014-05-03T16:36:51.967Z</time>
      </trkpt>
      <trkpt lat="46.38615" lon="5.67579">
        <ele>508.3</ele>
        <time>2014-05-03T16:36:54.982Z</time>
      </trkpt>
      <trkpt lat="46.38622" lon="5.67577">
        <ele>508.7</ele>
        <time>2014-05-03T16:36:57.958Z</time>
      </trkpt>
      <trkpt lat="46.3863" lon="5.67576">
        <ele>508.6</ele>
        <time>2014-05-03T16:37:00.931Z</time>
      </trkpt>
      <trkpt lat="46.38636" lon="5.67575">
        <ele>509.5</ele>
        <time>2014-05-03T16:37:03.991Z</time>
      </trkpt>
      <trkpt lat="46.38642" lon="5.67575">
        <ele>510.7</ele>
        <time>2014-05-03T16:37:06.966Z</time>
      </trkpt>
      <trkpt lat="46.38648" lon="5.67575">
        <ele>511.8</ele>
        <time>2014-05-03T16:37:09.937Z</time>
      </trkpt>
      <trkpt lat="46.38654" lon="5.67573">
        <ele>513.1</ele>
        <time>2014-05-03T16:37:12.936Z</time>
      </trkpt>
      <trkpt lat="46.3866" lon="5.67571">
        <ele>512.4</ele>
        <time>2014-05-03T16:37:15.937Z</time>
      </trkpt>
      <trkpt lat="46.38667" lon="5.67568">
        <ele>512.3</ele>
        <time>2014-05-03T16:37:18.938Z</time>
      </trkpt>
      <trkpt lat="46.38673" lon="5.67564">
        <ele>511.2</ele>
        <time>2014-05-03T16:37:22.019Z</time>
      </trkpt>
      <trkpt lat="46.38679" lon="5.67561">
        <ele>512.1</ele>
        <time>2014-05-03T16:37:24.958Z</time>
      </trkpt>
      <trkpt lat="46.38685" lon="5.67559">
        <ele>512.9</ele>
        <time>2014-05-03T16:37:27.939Z</time>
      </trkpt>
      <trkpt lat="46.38691" lon="5.67558">
        <ele>512.9</ele>
        <time>2014-05-03T16:37:30.992Z</time>
      </trkpt>
      <trkpt lat="46.38698" lon="5.67557">
        <ele>513.4</ele>
        <time>2014-05-03T16:37:33.981Z</time>
      </trkpt>
      <trkpt lat="46.38704" lon="5.67557">
        <ele>514.6</ele>
        <time>2014-05-03T16:37:36.947Z</time>
      </trkpt>
      <trkpt lat="46.3871" lon="5.67558">
        <ele>515.6</ele>
        <time>2014-05-03T16:37:39.964Z</time>
      </trkpt>
      <trkpt lat="46.38716" lon="5.67558">
        <ele>516.2</ele>
        <time>2014-05-03T16:37:42.988Z</time>
      </trkpt>
      <trkpt lat="46.38722" lon="5.67558">
        <ele>517.8</ele>
        <time>2014-05-03T16:37:45.955Z</time>
      </trkpt>
      <trkpt lat="46.38727" lon="5.67559">
        <ele>518.2</ele>
        <time>2014-05-03T16:37:48.943Z</time>
      </trkpt>
      <trkpt lat="46.38734" lon="5.67558">
        <ele>518.1</ele>
        <time>2014-05-03T16:37:52.005Z</time>
      </trkpt>
      <trkpt lat="46.3874" lon="5.67558">
        <ele>518.2</ele>
        <time>2014-05-03T16:37:54.942Z</time>
      </trkpt>
      <trkpt lat="46.38746" lon="5.67557">
        <ele>518.3</ele>
        <time>2014-05-03T16:37:57.937Z</time>
      </trkpt>
      <trkpt lat="46.38753" lon="5.67557">
        <ele>518.6</ele>
        <time>2014-05-03T16:38:01.016Z</time>
      </trkpt>
      <trkpt lat="46.38759" lon="5.67557">
        <ele>519.5</ele>
        <time>2014-05-03T16:38:03.966Z</time>
      </trkpt>
      <trkpt lat="46.38765" lon="5.67558">
        <ele>520.6</ele>
        <time>2014-05-03T16:38:06.941Z</time>
      </trkpt>
      <trkpt lat="46.38771" lon="5.6756">
        <ele>521.6</ele>
        <time>2014-05-03T16:38:10.018Z</time>
      </trkpt>
      <trkpt lat="46.38777" lon="5.67562">
        <ele>522.9</ele>
        <time>2014-05-03T16:38:12.967Z</time>
      </trkpt>
      <trkpt lat="46.38783" lon="5.67566">
        <ele>523.6</ele>
        <time>2014-05-03T16:38:15.938Z</time>
      </trkpt>
      <trkpt lat="46.38788" lon="5.67571">
        <ele>524.8</ele>
        <time>2014-05-03T16:38:18.996Z</time>
      </trkpt>
      <trkpt lat="46.38793" lon="5.67575">
        <ele>524.7</ele>
        <time>2014-05-03T16:38:22.000Z</time>
      </trkpt>
      <trkpt lat="46.38798" lon="5.67579">
        <ele>525.4</ele>
        <time>2014-05-03T16:38:24.945Z</time>
      </trkpt>
      <trkpt lat="46.38803" lon="5.67585">
        <ele>525.1</ele>
        <time>2014-05-03T16:38:27.968Z</time>
      </trkpt>
      <trkpt lat="46.38808" lon="5.6759">
        <ele>525.7</ele>
        <time>2014-05-03T16:38:30.988Z</time>
      </trkpt>
      <trkpt lat="46.38814" lon="5.67595">
        <ele>526.1</ele>
        <time>2014-05-03T16:38:33.950Z</time>
      </trkpt>
      <trkpt lat="46.3882" lon="5.67599">
        <ele>526.9</ele>
        <time>2014-05-03T16:38:36.941Z</time>
      </trkpt>
      <trkpt lat="46.38826" lon="5.67599">
        <ele>526.8</ele>
        <time>2014-05-03T16:38:39.955Z</time>
      </trkpt>
      <trkpt lat="46.38832" lon="5.67594">
        <ele>530.1</ele>
        <time>2014-05-03T16:38:42.946Z</time>
      </trkpt>
      <trkpt lat="46.38836" lon="5.67588">
        <ele>530.3</ele>
        <time>2014-05-03T16:38:45.937Z</time>
      </trkpt>
      <trkpt lat="46.38842" lon="5.67582">
        <ele>530.7</ele>
        <time>2014-05-03T16:38:48.937Z</time>
      </trkpt>
      <trkpt lat="46.38848" lon="5.67577">
        <ele>531.9</ele>
        <time>2014-05-03T16:38:51.961Z</time>
      </trkpt>
      <trkpt lat="46.38854" lon="5.67573">
        <ele>533.1</ele>
        <time>2014-05-03T16:38:54.942Z</time>
      </trkpt>
      <trkpt lat="46.3886" lon="5.67569">
        <ele>533.2</ele>
        <time>2014-05-03T16:38:58.022Z</time>
      </trkpt>
      <trkpt lat="46.38866" lon="5.67565">
        <ele>533.1</ele>
        <time>2014-05-03T16:39:00.961Z</time>
      </trkpt>
      <trkpt lat="46.38872" lon="5.6756">
        <ele>533.8</ele>
        <time>2014-05-03T16:39:03.939Z</time>
      </trkpt>
      <trkpt lat="46.38878" lon="5.67556">
        <ele>534.3</ele>
        <time>2014-05-03T16:39:06.994Z</time>
      </trkpt>
      <trkpt lat="46.38884" lon="5.67551">
        <ele>535.2</ele>
        <time>2014-05-03T16:39:09.968Z</time>
      </trkpt>
      <trkpt lat="46.3889" lon="5.67549">
        <ele>535.7</ele>
        <time>2014-05-03T16:39:12.939Z</time>
      </trkpt>
      <trkpt lat="46.38897" lon="5.67549">
        <ele>536.8</ele>
        <time>2014-05-03T16:39:15.968Z</time>
      </trkpt>
      <trkpt lat="46.38903" lon="5.67552">
        <ele>537.5</ele>
        <time>2014-05-03T16:39:18.991Z</time>
      </trkpt>
      <trkpt lat="46.38908" lon="5.67557">
        <ele>538.1</ele>
        <time>2014-05-03T16:39:21.952Z</time>
      </trkpt>
      <trkpt lat="46.38913" lon="5.67563">
        <ele>537.9</ele>
        <time>2014-05-03T16:39:24.937Z</time>
      </trkpt>
      <trkpt lat="46.38917" lon="5.6757">
        <ele>538.1</ele>
        <time>2014-05-03T16:39:27.954Z</time>
      </trkpt>
      <trkpt lat="46.38921" lon="5.67576">
        <ele>539.2</ele>
        <time>2014-05-03T16:39:30.963Z</time>
      </trkpt>
      <trkpt lat="46.38925" lon="5.67582">
        <ele>540.8</ele>
        <time>2014-05-03T16:39:33.937Z</time>
      </trkpt>
      <trkpt lat="46.3893" lon="5.6759">
        <ele>540.4</ele>
        <time>2014-05-03T16:39:36.940Z</time>
      </trkpt>
      <trkpt lat="46.38933" lon="5.67598">
        <ele>541.8</ele>
        <time>2014-05-03T16:39:39.954Z</time>
      </trkpt>
      <trkpt lat="46.38937" lon="5.67605">
        <ele>543.4</ele>
        <time>2014-05-03T16:39:42.936Z</time>
      </trkpt>
      <trkpt lat="46.38941" lon="5.67611">
        <ele>547.8</ele>
        <time>2014-05-03T16:39:46.026Z</time>
      </trkpt>
      <trkpt lat="46.38943" lon="5.67616">
        <ele>553.4</ele>
        <time>2014-05-03T16:39:48.964Z</time>
      </trkpt>
      <trkpt lat="46.38947" lon="5.67622">
        <ele>553.6</ele>
        <time>2014-05-03T16:39:51.940Z</time>
      </trkpt>
      <trkpt lat="46.38952" lon="5.67629">
        <ele>553.1</ele>
        <time>2014-05-03T16:39:54.942Z</time>
      </trkpt>
      <trkpt lat="46.38959" lon="5.67635">
        <ele>553.4</ele>
        <time>2014-05-03T16:39:57.950Z</time>
      </trkpt>
      <trkpt lat="46.38964" lon="5.67641">
        <ele>552.6</ele>
        <time>2014-05-03T16:40:00.945Z</time>
      </trkpt>
      <trkpt lat="46.3897" lon="5.67647">
        <ele>552.9</ele>
        <time>2014-05-03T16:40:03.968Z</time>
      </trkpt>
      <trkpt lat="46.38975" lon="5.67652">
        <ele>553.3</ele>
        <time>2014-05-03T16:40:06.997Z</time>
      </trkpt>
      <trkpt lat="46.3898" lon="5.67655">
        <ele>552.6</ele>
        <time>2014-05-03T16:40:09.947Z</time>
      </trkpt>
      <trkpt lat="46.38987" lon="5.67659">
        <ele>553</ele>
        <time>2014-05-03T16:40:12.951Z</time>
      </trkpt>
      <trkpt lat="46.38994" lon="5.67662">
        <ele>552.9</ele>
        <time>2014-05-03T16:40:15.954Z</time>
      </trkpt>
      <trkpt lat="46.39" lon="5.67665">
        <ele>552.6</ele>
        <time>2014-05-03T16:40:18.975Z</time>
      </trkpt>
      <trkpt lat="46.39007" lon="5.67669">
        <ele>552.6</ele>
        <time>2014-05-03T16:40:21.938Z</time>
      </trkpt>
      <trkpt lat="46.39014" lon="5.67672">
        <ele>554.3</ele>
        <time>2014-05-03T16:40:24.972Z</time>
      </trkpt>
      <trkpt lat="46.3902" lon="5.67674">
        <ele>554.8</ele>
        <time>2014-05-03T16:40:27.966Z</time>
      </trkpt>
      <trkpt lat="46.39027" lon="5.67677">
        <ele>554.9</ele>
        <time>2014-05-03T16:40:30.948Z</time>
      </trkpt>
      <trkpt lat="46.39033" lon="5.6768">
        <ele>555.2</ele>
        <time>2014-05-03T16:40:34.027Z</time>
      </trkpt>
      <trkpt lat="46.3904" lon="5.67684">
        <ele>555.3</ele>
        <time>2014-05-03T16:40:36.971Z</time>
      </trkpt>
      <trkpt lat="46.39047" lon="5.67688">
        <ele>554.2</ele>
        <time>2014-05-03T16:40:39.944Z</time>
      </trkpt>
      <trkpt lat="46.39053" lon="5.67692">
        <ele>554.6</ele>
        <time>2014-05-03T16:40:43.000Z</time>
      </trkpt>
      <trkpt lat="46.39059" lon="5.67696">
        <ele>554.8</ele>
        <time>2014-05-03T16:40:45.998Z</time>
      </trkpt>
      <trkpt lat="46.39066" lon="5.677">
        <ele>555.2</ele>
        <time>2014-05-03T16:40:48.947Z</time>
      </trkpt>
      <trkpt lat="46.39072" lon="5.67704">
        <ele>555.3</ele>
        <time>2014-05-03T16:40:51.968Z</time>
      </trkpt>
      <trkpt lat="46.39078" lon="5.67709">
        <ele>555.5</ele>
        <time>2014-05-03T16:40:54.989Z</time>
      </trkpt>
      <trkpt lat="46.39084" lon="5.67714">
        <ele>555.8</ele>
        <time>2014-05-03T16:40:57.955Z</time>
      </trkpt>
      <trkpt lat="46.3909" lon="5.6772">
        <ele>556.2</ele>
        <time>2014-05-03T16:41:00.937Z</time>
      </trkpt>
      <trkpt lat="46.39096" lon="5.67725">
        <ele>556.3</ele>
        <time>2014-05-03T16:41:04.028Z</time>
      </trkpt>
      <trkpt lat="46.39102" lon="5.6773">
        <ele>556.5</ele>
        <time>2014-05-03T16:41:06.971Z</time>
      </trkpt>
      <trkpt lat="46.39108" lon="5.67735">
        <ele>557</ele>
        <time>2014-05-03T16:41:09.938Z</time>
      </trkpt>
      <trkpt lat="46.39114" lon="5.6774">
        <ele>557.2</ele>
        <time>2014-05-03T16:41:13.034Z</time>
      </trkpt>
      <trkpt lat="46.3912" lon="5.67744">
        <ele>557.1</ele>
        <time>2014-05-03T16:41:15.971Z</time>
      </trkpt>
      <trkpt lat="46.39126" lon="5.67747">
        <ele>557.2</ele>
        <time>2014-05-03T16:41:18.946Z</time>
      </trkpt>
      <trkpt lat="46.39133" lon="5.67752">
        <ele>557.2</ele>
        <time>2014-05-03T16:41:22.033Z</time>
      </trkpt>
      <trkpt lat="46.39139" lon="5.67756">
        <ele>557.2</ele>
        <time>2014-05-03T16:41:24.973Z</time>
      </trkpt>
      <trkpt lat="46.39146" lon="5.67759">
        <ele>557.7</ele>
        <time>2014-05-03T16:41:27.940Z</time>
      </trkpt>
      <trkpt lat="46.39153" lon="5.67762">
        <ele>557.9</ele>
        <time>2014-05-03T16:41:31.010Z</time>
      </trkpt>
      <trkpt lat="46.3916" lon="5.67766">
        <ele>558.2</ele>
        <time>2014-05-03T16:41:34.005Z</time>
      </trkpt>
      <trkpt lat="46.39167" lon="5.6777">
        <ele>558.1</ele>
        <time>2014-05-03T16:41:36.949Z</time>
      </trkpt>
      <trkpt lat="46.39174" lon="5.67773">
        <ele>558.3</ele>
        <time>2014-05-03T16:41:39.971Z</time>
      </trkpt>
      <trkpt lat="46.39181" lon="5.67777">
        <ele>558.7</ele>
        <time>2014-05-03T16:41:42.987Z</time>
      </trkpt>
      <trkpt lat="46.39188" lon="5.67781">
        <ele>558.7</ele>
        <time>2014-05-03T16:41:45.954Z</time>
      </trkpt>
      <trkpt lat="46.39194" lon="5.67784">
        <ele>559.2</ele>
        <time>2014-05-03T16:41:48.951Z</time>
      </trkpt>
      <trkpt lat="46.39201" lon="5.67787">
        <ele>559.7</ele>
        <time>2014-05-03T16:41:52.033Z</time>
      </trkpt>
      <trkpt lat="46.39208" lon="5.6779">
        <ele>560.3</ele>
        <time>2014-05-03T16:41:54.967Z</time>
      </trkpt>
      <trkpt lat="46.39215" lon="5.67794">
        <ele>560.8</ele>
        <time>2014-05-03T16:41:57.939Z</time>
      </trkpt>
      <trkpt lat="46.39222" lon="5.67798">
        <ele>561.5</ele>
        <time>2014-05-03T16:42:00.974Z</time>
      </trkpt>
      <trkpt lat="46.39229" lon="5.67801">
        <ele>561.5</ele>
        <time>2014-05-03T16:42:03.949Z</time>
      </trkpt>
      <trkpt lat="46.39237" lon="5.67804">
        <ele>561.9</ele>
        <time>2014-05-03T16:42:06.947Z</time>
      </trkpt>
      <trkpt lat="46.39244" lon="5.67807">
        <ele>562.1</ele>
        <time>2014-05-03T16:42:09.955Z</time>
      </trkpt>
      <trkpt lat="46.39251" lon="5.6781">
        <ele>562.6</ele>
        <time>2014-05-03T16:42:12.977Z</time>
      </trkpt>
      <trkpt lat="46.39259" lon="5.67813">
        <ele>563</ele>
        <time>2014-05-03T16:42:15.945Z</time>
      </trkpt>
      <trkpt lat="46.39267" lon="5.67814">
        <ele>563.1</ele>
        <time>2014-05-03T16:42:18.938Z</time>
      </trkpt>
      <trkpt lat="46.39275" lon="5.67814">
        <ele>564.4</ele>
        <time>2014-05-03T16:42:22.006Z</time>
      </trkpt>
      <trkpt lat="46.39283" lon="5.67814">
        <ele>563.8</ele>
        <time>2014-05-03T16:42:24.948Z</time>
      </trkpt>
      <trkpt lat="46.39291" lon="5.67813">
        <ele>564.4</ele>
        <time>2014-05-03T16:42:27.969Z</time>
      </trkpt>
      <trkpt lat="46.393" lon="5.67813">
        <ele>564.5</ele>
        <time>2014-05-03T16:42:31.005Z</time>
      </trkpt>
      <trkpt lat="46.39307" lon="5.67813">
        <ele>565.8</ele>
        <time>2014-05-03T16:42:33.952Z</time>
      </trkpt>
      <trkpt lat="46.39315" lon="5.67813">
        <ele>566.1</ele>
        <time>2014-05-03T16:42:36.939Z</time>
      </trkpt>
      <trkpt lat="46.39322" lon="5.67814">
        <ele>566.7</ele>
        <time>2014-05-03T16:42:39.939Z</time>
      </trkpt>
      <trkpt lat="46.39329" lon="5.67816">
        <ele>568.1</ele>
        <time>2014-05-03T16:42:42.945Z</time>
      </trkpt>
      <trkpt lat="46.39335" lon="5.6782">
        <ele>568.4</ele>
        <time>2014-05-03T16:42:45.939Z</time>
      </trkpt>
      <trkpt lat="46.39341" lon="5.67826">
        <ele>568.9</ele>
        <time>2014-05-03T16:42:49.047Z</time>
      </trkpt>
      <trkpt lat="46.39347" lon="5.67833">
        <ele>569.4</ele>
        <time>2014-05-03T16:42:51.975Z</time>
      </trkpt>
      <trkpt lat="46.39353" lon="5.67841">
        <ele>569.4</ele>
        <time>2014-05-03T16:42:54.949Z</time>
      </trkpt>
      <trkpt lat="46.39358" lon="5.6785">
        <ele>569.8</ele>
        <time>2014-05-03T16:42:58.029Z</time>
      </trkpt>
      <trkpt lat="46.39363" lon="5.67859">
        <ele>569.6</ele>
        <time>2014-05-03T16:43:01.003Z</time>
      </trkpt>
      <trkpt lat="46.39367" lon="5.67868">
        <ele>570</ele>
        <time>2014-05-03T16:43:03.950Z</time>
      </trkpt>
      <trkpt lat="46.39371" lon="5.67877">
        <ele>570.5</ele>
        <time>2014-05-03T16:43:07.001Z</time>
      </trkpt>
      <trkpt lat="46.39375" lon="5.67886">
        <ele>570.8</ele>
        <time>2014-05-03T16:43:09.981Z</time>
      </trkpt>
      <trkpt lat="46.3938" lon="5.67896">
        <ele>571.4</ele>
        <time>2014-05-03T16:43:12.957Z</time>
      </trkpt>
      <trkpt lat="46.39384" lon="5.67905">
        <ele>572.3</ele>
        <time>2014-05-03T16:43:15.973Z</time>
      </trkpt>
      <trkpt lat="46.39388" lon="5.67915">
        <ele>572.6</ele>
        <time>2014-05-03T16:43:18.988Z</time>
      </trkpt>
      <trkpt lat="46.39392" lon="5.67924">
        <ele>573.4</ele>
        <time>2014-05-03T16:43:21.959Z</time>
      </trkpt>
      <trkpt lat="46.39396" lon="5.67934">
        <ele>574.2</ele>
        <time>2014-05-03T16:43:24.948Z</time>
      </trkpt>
      <trkpt lat="46.39401" lon="5.67943">
        <ele>574.4</ele>
        <time>2014-05-03T16:43:28.036Z</time>
      </trkpt>
      <trkpt lat="46.39405" lon="5.67953">
        <ele>574.6</ele>
        <time>2014-05-03T16:43:30.939Z</time>
      </trkpt>
      <trkpt lat="46.3941" lon="5.67962">
        <ele>575.3</ele>
        <time>2014-05-03T16:43:33.942Z</time>
      </trkpt>
      <trkpt lat="46.39415" lon="5.6797">
        <ele>576.1</ele>
        <time>2014-05-03T16:43:36.970Z</time>
      </trkpt>
      <trkpt lat="46.39421" lon="5.67976">
        <ele>576.6</ele>
        <time>2014-05-03T16:43:39.972Z</time>
      </trkpt>
      <trkpt lat="46.39427" lon="5.67982">
        <ele>577.4</ele>
        <time>2014-05-03T16:43:42.948Z</time>
      </trkpt>
      <trkpt lat="46.39434" lon="5.67989">
        <ele>577.5</ele>
        <time>2014-05-03T16:43:46.024Z</time>
      </trkpt>
      <trkpt lat="46.3944" lon="5.67996">
        <ele>577.5</ele>
        <time>2014-05-03T16:43:48.970Z</time>
      </trkpt>
      <trkpt lat="46.39446" lon="5.68003">
        <ele>578.6</ele>
        <time>2014-05-03T16:43:51.948Z</time>
      </trkpt>
      <trkpt lat="46.39452" lon="5.68008">
        <ele>580.6</ele>
        <time>2014-05-03T16:43:55.008Z</time>
      </trkpt>
      <trkpt lat="46.39459" lon="5.68015">
        <ele>581.5</ele>
        <time>2014-05-03T16:43:57.988Z</time>
      </trkpt>
      <trkpt lat="46.39465" lon="5.68022">
        <ele>581.4</ele>
        <time>2014-05-03T16:44:00.949Z</time>
      </trkpt>
      <trkpt lat="46.39472" lon="5.6803">
        <ele>581.7</ele>
        <time>2014-05-03T16:44:03.975Z</time>
      </trkpt>
      <trkpt lat="46.39478" lon="5.68039">
        <ele>581.7</ele>
        <time>2014-05-03T16:44:06.991Z</time>
      </trkpt>
      <trkpt lat="46.39484" lon="5.68049">
        <ele>581.6</ele>
        <time>2014-05-03T16:44:09.956Z</time>
      </trkpt>
      <trkpt lat="46.39491" lon="5.68059">
        <ele>581.7</ele>
        <time>2014-05-03T16:44:12.950Z</time>
      </trkpt>
      <trkpt lat="46.39498" lon="5.68069">
        <ele>581.7</ele>
        <time>2014-05-03T16:44:15.985Z</time>
      </trkpt>
      <trkpt lat="46.39505" lon="5.68078">
        <ele>582</ele>
        <time>2014-05-03T16:44:18.974Z</time>
      </trkpt>
      <trkpt lat="46.39513" lon="5.68088">
        <ele>581.7</ele>
        <time>2014-05-03T16:44:21.941Z</time>
      </trkpt>
      <trkpt lat="46.39522" lon="5.68097">
        <ele>581.5</ele>
        <time>2014-05-03T16:44:25.059Z</time>
      </trkpt>
      <trkpt lat="46.39531" lon="5.68106">
        <ele>580.9</ele>
        <time>2014-05-03T16:44:27.973Z</time>
      </trkpt>
      <trkpt lat="46.39539" lon="5.68114">
        <ele>581.5</ele>
        <time>2014-05-03T16:44:30.948Z</time>
      </trkpt>
      <trkpt lat="46.39547" lon="5.68122">
        <ele>582.1</ele>
        <time>2014-05-03T16:44:34.027Z</time>
      </trkpt>
      <trkpt lat="46.39555" lon="5.68128">
        <ele>582.7</ele>
        <time>2014-05-03T16:44:36.981Z</time>
      </trkpt>
      <trkpt lat="46.39562" lon="5.68134">
        <ele>582.2</ele>
        <time>2014-05-03T16:44:39.951Z</time>
      </trkpt>
      <trkpt lat="46.39568" lon="5.6814">
        <ele>582.4</ele>
        <time>2014-05-03T16:44:42.993Z</time>
      </trkpt>
      <trkpt lat="46.39574" lon="5.68145">
        <ele>582.9</ele>
        <time>2014-05-03T16:44:46.003Z</time>
      </trkpt>
      <trkpt lat="46.3958" lon="5.6815">
        <ele>583.6</ele>
        <time>2014-05-03T16:44:48.951Z</time>
      </trkpt>
      <trkpt lat="46.39585" lon="5.68156">
        <ele>584.4</ele>
        <time>2014-05-03T16:44:51.964Z</time>
      </trkpt>
      <trkpt lat="46.39591" lon="5.68162">
        <ele>585.5</ele>
        <time>2014-05-03T16:44:54.990Z</time>
      </trkpt>
      <trkpt lat="46.39596" lon="5.68168">
        <ele>585.9</ele>
        <time>2014-05-03T16:44:57.959Z</time>
      </trkpt>
      <trkpt lat="46.39601" lon="5.68174">
        <ele>586.5</ele>
        <time>2014-05-03T16:45:00.941Z</time>
      </trkpt>
      <trkpt lat="46.39606" lon="5.68181">
        <ele>586.8</ele>
        <time>2014-05-03T16:45:04.008Z</time>
      </trkpt>
      <trkpt lat="46.3961" lon="5.68189">
        <ele>587.3</ele>
        <time>2014-05-03T16:45:06.969Z</time>
      </trkpt>
      <trkpt lat="46.39614" lon="5.68196">
        <ele>588.1</ele>
        <time>2014-05-03T16:45:09.941Z</time>
      </trkpt>
      <trkpt lat="46.39618" lon="5.68204">
        <ele>588.6</ele>
        <time>2014-05-03T16:45:13.034Z</time>
      </trkpt>
      <trkpt lat="46.39621" lon="5.68212">
        <ele>589</ele>
        <time>2014-05-03T16:45:15.972Z</time>
      </trkpt>
      <trkpt lat="46.39625" lon="5.6822">
        <ele>589.4</ele>
        <time>2014-05-03T16:45:18.948Z</time>
      </trkpt>
      <trkpt lat="46.39628" lon="5.68228">
        <ele>589.5</ele>
        <time>2014-05-03T16:45:22.024Z</time>
      </trkpt>
      <trkpt lat="46.39632" lon="5.68236">
        <ele>589.9</ele>
        <time>2014-05-03T16:45:24.972Z</time>
      </trkpt>
      <trkpt lat="46.39635" lon="5.68244">
        <ele>590.2</ele>
        <time>2014-05-03T16:45:27.947Z</time>
      </trkpt>
      <trkpt lat="46.39639" lon="5.68252">
        <ele>590.5</ele>
        <time>2014-05-03T16:45:30.996Z</time>
      </trkpt>
      <trkpt lat="46.39643" lon="5.68259">
        <ele>591</ele>
        <time>2014-05-03T16:45:33.987Z</time>
      </trkpt>
      <trkpt lat="46.39648" lon="5.68266">
        <ele>591.4</ele>
        <time>2014-05-03T16:45:36.948Z</time>
      </trkpt>
      <trkpt lat="46.39653" lon="5.68272">
        <ele>591.7</ele>
        <time>2014-05-03T16:45:39.964Z</time>
      </trkpt>
      <trkpt lat="46.39659" lon="5.68277">
        <ele>592</ele>
        <time>2014-05-03T16:45:42.985Z</time>
      </trkpt>
      <trkpt lat="46.39665" lon="5.68281">
        <ele>592.6</ele>
        <time>2014-05-03T16:45:45.951Z</time>
      </trkpt>
      <trkpt lat="46.39671" lon="5.68284">
        <ele>592.9</ele>
        <time>2014-05-03T16:45:48.947Z</time>
      </trkpt>
      <trkpt lat="46.39678" lon="5.68287">
        <ele>593.3</ele>
        <time>2014-05-03T16:45:51.949Z</time>
      </trkpt>
      <trkpt lat="46.39684" lon="5.68289">
        <ele>593.3</ele>
        <time>2014-05-03T16:45:54.938Z</time>
      </trkpt>
      <trkpt lat="46.39691" lon="5.68292">
        <ele>593.2</ele>
        <time>2014-05-03T16:45:57.938Z</time>
      </trkpt>
      <trkpt lat="46.39697" lon="5.68294">
        <ele>593.3</ele>
        <time>2014-05-03T16:46:00.938Z</time>
      </trkpt>
      <trkpt lat="46.39703" lon="5.68297">
        <ele>593.7</ele>
        <time>2014-05-03T16:46:03.949Z</time>
      </trkpt>
      <trkpt lat="46.3971" lon="5.68299">
        <ele>594</ele>
        <time>2014-05-03T16:46:06.961Z</time>
      </trkpt>
      <trkpt lat="46.39716" lon="5.68301">
        <ele>594.2</ele>
        <time>2014-05-03T16:46:09.944Z</time>
      </trkpt>
      <trkpt lat="46.39723" lon="5.68304">
        <ele>594.3</ele>
        <time>2014-05-03T16:46:12.942Z</time>
      </trkpt>
      <trkpt lat="46.39729" lon="5.68306">
        <ele>594.9</ele>
        <time>2014-05-03T16:46:15.938Z</time>
      </trkpt>
      <trkpt lat="46.39735" lon="5.68308">
        <ele>595.2</ele>
        <time>2014-05-03T16:46:18.951Z</time>
      </trkpt>
      <trkpt lat="46.39742" lon="5.68311">
        <ele>595.7</ele>
        <time>2014-05-03T16:46:21.957Z</time>
      </trkpt>
      <trkpt lat="46.39749" lon="5.68313">
        <ele>596.2</ele>
        <time>2014-05-03T16:46:24.943Z</time>
      </trkpt>
      <trkpt lat="46.39756" lon="5.68314">
        <ele>596.2</ele>
        <time>2014-05-03T16:46:28.004Z</time>
      </trkpt>
      <trkpt lat="46.39763" lon="5.68316">
        <ele>596.4</ele>
        <time>2014-05-03T16:46:30.958Z</time>
      </trkpt>
      <trkpt lat="46.3977" lon="5.68317">
        <ele>596.5</ele>
        <time>2014-05-03T16:46:33.943Z</time>
      </trkpt>
      <trkpt lat="46.39778" lon="5.68319">
        <ele>596.5</ele>
        <time>2014-05-03T16:46:36.939Z</time>
      </trkpt>
      <trkpt lat="46.39785" lon="5.68321">
        <ele>598</ele>
        <time>2014-05-03T16:46:39.941Z</time>
      </trkpt>
      <trkpt lat="46.39792" lon="5.68323">
        <ele>598.7</ele>
        <time>2014-05-03T16:46:42.928Z</time>
      </trkpt>
      <trkpt lat="46.398" lon="5.68324">
        <ele>599</ele>
        <time>2014-05-03T16:46:45.940Z</time>
      </trkpt>
      <trkpt lat="46.39807" lon="5.68326">
        <ele>599.5</ele>
        <time>2014-05-03T16:46:48.945Z</time>
      </trkpt>
      <trkpt lat="46.39815" lon="5.68327">
        <ele>600.4</ele>
        <time>2014-05-03T16:46:51.963Z</time>
      </trkpt>
      <trkpt lat="46.39822" lon="5.68329">
        <ele>601.8</ele>
        <time>2014-05-03T16:46:54.940Z</time>
      </trkpt>
      <trkpt lat="46.39829" lon="5.6833">
        <ele>602.7</ele>
        <time>2014-05-03T16:46:58.021Z</time>
      </trkpt>
      <trkpt lat="46.39836" lon="5.68332">
        <ele>603</ele>
        <time>2014-05-03T16:47:00.961Z</time>
      </trkpt>
      <trkpt lat="46.39843" lon="5.68334">
        <ele>604.1</ele>
        <time>2014-05-03T16:47:03.941Z</time>
      </trkpt>
      <trkpt lat="46.3985" lon="5.68333">
        <ele>603.9</ele>
        <time>2014-05-03T16:47:06.994Z</time>
      </trkpt>
      <trkpt lat="46.39857" lon="5.68333">
        <ele>603.7</ele>
        <time>2014-05-03T16:47:09.940Z</time>
      </trkpt>
      <trkpt lat="46.39864" lon="5.68333">
        <ele>604.7</ele>
        <time>2014-05-03T16:47:12.942Z</time>
      </trkpt>
      <trkpt lat="46.39871" lon="5.68333">
        <ele>605.3</ele>
        <time>2014-05-03T16:47:15.937Z</time>
      </trkpt>
      <trkpt lat="46.39878" lon="5.68335">
        <ele>606.2</ele>
        <time>2014-05-03T16:47:18.937Z</time>
      </trkpt>
      <trkpt lat="46.39886" lon="5.68336">
        <ele>607.2</ele>
        <time>2014-05-03T16:47:21.937Z</time>
      </trkpt>
      <trkpt lat="46.39893" lon="5.68338">
        <ele>608.1</ele>
        <time>2014-05-03T16:47:24.937Z</time>
      </trkpt>
      <trkpt lat="46.399" lon="5.68339">
        <ele>608.7</ele>
        <time>2014-05-03T16:47:27.938Z</time>
      </trkpt>
      <trkpt lat="46.39907" lon="5.68341">
        <ele>609.6</ele>
        <time>2014-05-03T16:47:30.939Z</time>
      </trkpt>
      <trkpt lat="46.39914" lon="5.68342">
        <ele>609.9</ele>
        <time>2014-05-03T16:47:33.941Z</time>
      </trkpt>
      <trkpt lat="46.39921" lon="5.68344">
        <ele>610.4</ele>
        <time>2014-05-03T16:47:36.958Z</time>
      </trkpt>
      <trkpt lat="46.39929" lon="5.68347">
        <ele>610.6</ele>
        <time>2014-05-03T16:47:39.966Z</time>
      </trkpt>
      <trkpt lat="46.39936" lon="5.6835">
        <ele>610.6</ele>
        <time>2014-05-03T16:47:42.940Z</time>
      </trkpt>
      <trkpt lat="46.39942" lon="5.68353">
        <ele>610.9</ele>
        <time>2014-05-03T16:47:46.027Z</time>
      </trkpt>
      <trkpt lat="46.39949" lon="5.68357">
        <ele>611.3</ele>
        <time>2014-05-03T16:47:48.974Z</time>
      </trkpt>
      <trkpt lat="46.39955" lon="5.6836">
        <ele>611.5</ele>
        <time>2014-05-03T16:47:51.946Z</time>
      </trkpt>
      <trkpt lat="46.39961" lon="5.68363">
        <ele>611.9</ele>
        <time>2014-05-03T16:47:54.992Z</time>
      </trkpt>
      <trkpt lat="46.39967" lon="5.68366">
        <ele>612.4</ele>
        <time>2014-05-03T16:47:57.960Z</time>
      </trkpt>
      <trkpt lat="46.39974" lon="5.68369">
        <ele>613.6</ele>
        <time>2014-05-03T16:48:00.943Z</time>
      </trkpt>
      <trkpt lat="46.3998" lon="5.68372">
        <ele>614</ele>
        <time>2014-05-03T16:48:03.938Z</time>
      </trkpt>
      <trkpt lat="46.39986" lon="5.68376">
        <ele>614.6</ele>
        <time>2014-05-03T16:48:07.002Z</time>
      </trkpt>
      <trkpt lat="46.39993" lon="5.6838">
        <ele>614.8</ele>
        <time>2014-05-03T16:48:09.948Z</time>
      </trkpt>
      <trkpt lat="46.39999" lon="5.68385">
        <ele>615.5</ele>
        <time>2014-05-03T16:48:12.939Z</time>
      </trkpt>
      <trkpt lat="46.40005" lon="5.68389">
        <ele>616.8</ele>
        <time>2014-05-03T16:48:16.035Z</time>
      </trkpt>
      <trkpt lat="46.40011" lon="5.68393">
        <ele>618.7</ele>
        <time>2014-05-03T16:48:18.975Z</time>
      </trkpt>
      <trkpt lat="46.40017" lon="5.68398">
        <ele>619.3</ele>
        <time>2014-05-03T16:48:21.939Z</time>
      </trkpt>
      <trkpt lat="46.40023" lon="5.68403">
        <ele>619.6</ele>
        <time>2014-05-03T16:48:24.963Z</time>
      </trkpt>
      <trkpt lat="46.40029" lon="5.68407">
        <ele>620.3</ele>
        <time>2014-05-03T16:48:27.945Z</time>
      </trkpt>
      <trkpt lat="46.40036" lon="5.68412">
        <ele>620.9</ele>
        <time>2014-05-03T16:48:30.937Z</time>
      </trkpt>
      <trkpt lat="46.40042" lon="5.68416">
        <ele>621.6</ele>
        <time>2014-05-03T16:48:33.943Z</time>
      </trkpt>
      <trkpt lat="46.40048" lon="5.6842">
        <ele>622.4</ele>
        <time>2014-05-03T16:48:36.986Z</time>
      </trkpt>
      <trkpt lat="46.40054" lon="5.68425">
        <ele>623.3</ele>
        <time>2014-05-03T16:48:39.948Z</time>
      </trkpt>
      <trkpt lat="46.4006" lon="5.6843">
        <ele>623.7</ele>
        <time>2014-05-03T16:48:42.999Z</time>
      </trkpt>
      <trkpt lat="46.40066" lon="5.68435">
        <ele>624.2</ele>
        <time>2014-05-03T16:48:46.004Z</time>
      </trkpt>
      <trkpt lat="46.40071" lon="5.68441">
        <ele>624.7</ele>
        <time>2014-05-03T16:48:48.947Z</time>
      </trkpt>
      <trkpt lat="46.40076" lon="5.68448">
        <ele>625.3</ele>
        <time>2014-05-03T16:48:51.978Z</time>
      </trkpt>
      <trkpt lat="46.40081" lon="5.68455">
        <ele>625.1</ele>
        <time>2014-05-03T16:48:55.000Z</time>
      </trkpt>
      <trkpt lat="46.40086" lon="5.68463">
        <ele>625.2</ele>
        <time>2014-05-03T16:48:57.939Z</time>
      </trkpt>
      <trkpt lat="46.40091" lon="5.6847">
        <ele>625.5</ele>
        <time>2014-05-03T16:49:00.951Z</time>
      </trkpt>
      <trkpt lat="46.40096" lon="5.68476">
        <ele>627</ele>
        <time>2014-05-03T16:49:04.032Z</time>
      </trkpt>
      <trkpt lat="46.40102" lon="5.68481">
        <ele>627.8</ele>
        <time>2014-05-03T16:49:06.978Z</time>
      </trkpt>
      <trkpt lat="46.40108" lon="5.68487">
        <ele>627.3</ele>
        <time>2014-05-03T16:49:09.939Z</time>
      </trkpt>
      <trkpt lat="46.40113" lon="5.68494">
        <ele>627</ele>
        <time>2014-05-03T16:49:12.937Z</time>
      </trkpt>
      <trkpt lat="46.40119" lon="5.685">
        <ele>627.1</ele>
        <time>2014-05-03T16:49:15.950Z</time>
      </trkpt>
      <trkpt lat="46.40125" lon="5.68505">
        <ele>627.6</ele>
        <time>2014-05-03T16:49:18.940Z</time>
      </trkpt>
      <trkpt lat="46.40131" lon="5.68511">
        <ele>628</ele>
        <time>2014-05-03T16:49:21.939Z</time>
      </trkpt>
      <trkpt lat="46.40137" lon="5.68517">
        <ele>628.6</ele>
        <time>2014-05-03T16:49:24.938Z</time>
      </trkpt>
      <trkpt lat="46.40141" lon="5.68525">
        <ele>629</ele>
        <time>2014-05-03T16:49:27.938Z</time>
      </trkpt>
      <trkpt lat="46.40145" lon="5.68534">
        <ele>630.2</ele>
        <time>2014-05-03T16:49:30.957Z</time>
      </trkpt>
      <trkpt lat="46.40148" lon="5.68543">
        <ele>631.4</ele>
        <time>2014-05-03T16:49:33.985Z</time>
      </trkpt>
      <trkpt lat="46.4015" lon="5.68554">
        <ele>632.1</ele>
        <time>2014-05-03T16:49:36.951Z</time>
      </trkpt>
      <trkpt lat="46.40151" lon="5.68564">
        <ele>631.5</ele>
        <time>2014-05-03T16:49:39.968Z</time>
      </trkpt>
      <trkpt lat="46.40154" lon="5.68576">
        <ele>631.9</ele>
        <time>2014-05-03T16:49:43.005Z</time>
      </trkpt>
      <trkpt lat="46.40159" lon="5.68586">
        <ele>632.4</ele>
        <time>2014-05-03T16:49:45.951Z</time>
      </trkpt>
      <trkpt lat="46.40165" lon="5.68596">
        <ele>632.6</ele>
        <time>2014-05-03T16:49:48.939Z</time>
      </trkpt>
      <trkpt lat="46.40172" lon="5.68604">
        <ele>632.4</ele>
        <time>2014-05-03T16:49:51.960Z</time>
      </trkpt>
      <trkpt lat="46.40179" lon="5.68611">
        <ele>632.9</ele>
        <time>2014-05-03T16:49:54.966Z</time>
      </trkpt>
      <trkpt lat="46.40186" lon="5.68617">
        <ele>633.5</ele>
        <time>2014-05-03T16:49:57.940Z</time>
      </trkpt>
      <trkpt lat="46.40195" lon="5.68619">
        <ele>633.5</ele>
        <time>2014-05-03T16:50:00.938Z</time>
      </trkpt>
      <trkpt lat="46.40204" lon="5.68621">
        <ele>634.2</ele>
        <time>2014-05-03T16:50:03.937Z</time>
      </trkpt>
      <trkpt lat="46.40213" lon="5.68624">
        <ele>634.8</ele>
        <time>2014-05-03T16:50:06.937Z</time>
      </trkpt>
      <trkpt lat="46.40221" lon="5.68628">
        <ele>635.4</ele>
        <time>2014-05-03T16:50:09.937Z</time>
      </trkpt>
      <trkpt lat="46.40229" lon="5.68633">
        <ele>636.2</ele>
        <time>2014-05-03T16:50:12.936Z</time>
      </trkpt>
      <trkpt lat="46.40236" lon="5.68638">
        <ele>636.7</ele>
        <time>2014-05-03T16:50:15.993Z</time>
      </trkpt>
      <trkpt lat="46.40244" lon="5.68644">
        <ele>637.5</ele>
        <time>2014-05-03T16:50:18.995Z</time>
      </trkpt>
      <trkpt lat="46.40251" lon="5.68649">
        <ele>638.2</ele>
        <time>2014-05-03T16:50:21.991Z</time>
      </trkpt>
      <trkpt lat="46.40259" lon="5.68655">
        <ele>638.9</ele>
        <time>2014-05-03T16:50:24.946Z</time>
      </trkpt>
      <trkpt lat="46.40266" lon="5.6866">
        <ele>639</ele>
        <time>2014-05-03T16:50:27.973Z</time>
      </trkpt>
      <trkpt lat="46.40273" lon="5.68667">
        <ele>639.7</ele>
        <time>2014-05-03T16:50:30.988Z</time>
      </trkpt>
      <trkpt lat="46.4028" lon="5.68673">
        <ele>640.1</ele>
        <time>2014-05-03T16:50:33.957Z</time>
      </trkpt>
      <trkpt lat="46.40286" lon="5.68679">
        <ele>640.9</ele>
        <time>2014-05-03T16:50:36.947Z</time>
      </trkpt>
      <trkpt lat="46.40293" lon="5.68686">
        <ele>641.4</ele>
        <time>2014-05-03T16:50:39.959Z</time>
      </trkpt>
      <trkpt lat="46.40301" lon="5.68693">
        <ele>642</ele>
        <time>2014-05-03T16:50:42.971Z</time>
      </trkpt>
      <trkpt lat="46.40308" lon="5.687">
        <ele>642.1</ele>
        <time>2014-05-03T16:50:45.936Z</time>
      </trkpt>
      <trkpt lat="46.40316" lon="5.68707">
        <ele>642.3</ele>
        <time>2014-05-03T16:50:49.035Z</time>
      </trkpt>
      <trkpt lat="46.40323" lon="5.68714">
        <ele>642.5</ele>
        <time>2014-05-03T16:50:51.965Z</time>
      </trkpt>
      <trkpt lat="46.4033" lon="5.68721">
        <ele>642.8</ele>
        <time>2014-05-03T16:50:54.946Z</time>
      </trkpt>
      <trkpt lat="46.40337" lon="5.68728">
        <ele>643.5</ele>
        <time>2014-05-03T16:50:58.032Z</time>
      </trkpt>
      <trkpt lat="46.40345" lon="5.68735">
        <ele>643.6</ele>
        <time>2014-05-03T16:51:00.986Z</time>
      </trkpt>
      <trkpt lat="46.40352" lon="5.68742">
        <ele>643.6</ele>
        <time>2014-05-03T16:51:03.941Z</time>
      </trkpt>
      <trkpt lat="46.4036" lon="5.68748">
        <ele>644.7</ele>
        <time>2014-05-03T16:51:06.996Z</time>
      </trkpt>
      <trkpt lat="46.4037" lon="5.68752">
        <ele>645.4</ele>
        <time>2014-05-03T16:51:09.964Z</time>
      </trkpt>
      <trkpt lat="46.4038" lon="5.68759">
        <ele>645</ele>
        <time>2014-05-03T16:51:12.948Z</time>
      </trkpt>
      <trkpt lat="46.40389" lon="5.68766">
        <ele>645</ele>
        <time>2014-05-03T16:51:15.968Z</time>
      </trkpt>
      <trkpt lat="46.40397" lon="5.68776">
        <ele>644.5</ele>
        <time>2014-05-03T16:51:18.938Z</time>
      </trkpt>
      <trkpt lat="46.40405" lon="5.68788">
        <ele>644.4</ele>
        <time>2014-05-03T16:51:21.938Z</time>
      </trkpt>
      <trkpt lat="46.40414" lon="5.68796">
        <ele>644.3</ele>
        <time>2014-05-03T16:51:24.943Z</time>
      </trkpt>
      <trkpt lat="46.40425" lon="5.68802">
        <ele>644.6</ele>
        <time>2014-05-03T16:51:28.022Z</time>
      </trkpt>
      <trkpt lat="46.40436" lon="5.68807">
        <ele>644.9</ele>
        <time>2014-05-03T16:51:30.969Z</time>
      </trkpt>
      <trkpt lat="46.40447" lon="5.6881">
        <ele>645.1</ele>
        <time>2014-05-03T16:51:33.938Z</time>
      </trkpt>
      <trkpt lat="46.40458" lon="5.6881">
        <ele>645.2</ele>
        <time>2014-05-03T16:51:36.939Z</time>
      </trkpt>
      <trkpt lat="46.40468" lon="5.68806">
        <ele>645.2</ele>
        <time>2014-05-03T16:51:39.964Z</time>
      </trkpt>
      <trkpt lat="46.40478" lon="5.68801">
        <ele>645.9</ele>
        <time>2014-05-03T16:51:42.943Z</time>
      </trkpt>
      <trkpt lat="46.40487" lon="5.68798">
        <ele>646.8</ele>
        <time>2014-05-03T16:51:45.938Z</time>
      </trkpt>
      <trkpt lat="46.40496" lon="5.68793">
        <ele>646.8</ele>
        <time>2014-05-03T16:51:48.969Z</time>
      </trkpt>
      <trkpt lat="46.40506" lon="5.68788">
        <ele>648.2</ele>
        <time>2014-05-03T16:51:51.940Z</time>
      </trkpt>
      <trkpt lat="46.40515" lon="5.68781">
        <ele>650.4</ele>
        <time>2014-05-03T16:51:54.993Z</time>
      </trkpt>
      <trkpt lat="46.40522" lon="5.68774">
        <ele>654</ele>
        <time>2014-05-03T16:51:57.982Z</time>
      </trkpt>
      <trkpt lat="46.40529" lon="5.68771">
        <ele>658.7</ele>
        <time>2014-05-03T16:52:00.941Z</time>
      </trkpt>
      <trkpt lat="46.40538" lon="5.68768">
        <ele>661.8</ele>
        <time>2014-05-03T16:52:03.967Z</time>
      </trkpt>
      <trkpt lat="46.40548" lon="5.68768">
        <ele>664.4</ele>
        <time>2014-05-03T16:52:06.991Z</time>
      </trkpt>
      <trkpt lat="46.40555" lon="5.68765">
        <ele>664.8</ele>
        <time>2014-05-03T16:52:09.953Z</time>
      </trkpt>
      <trkpt lat="46.4056" lon="5.68758">
        <ele>668.1</ele>
        <time>2014-05-03T16:52:12.944Z</time>
      </trkpt>
      <trkpt lat="46.40569" lon="5.68751">
        <ele>668.2</ele>
        <time>2014-05-03T16:52:16.043Z</time>
      </trkpt>
      <trkpt lat="46.40579" lon="5.68747">
        <ele>667.7</ele>
        <time>2014-05-03T16:52:18.975Z</time>
      </trkpt>
      <trkpt lat="46.40588" lon="5.68744">
        <ele>670.3</ele>
        <time>2014-05-03T16:52:21.941Z</time>
      </trkpt>
      <trkpt lat="46.40595" lon="5.68743">
        <ele>671.6</ele>
        <time>2014-05-03T16:52:24.938Z</time>
      </trkpt>
      <trkpt lat="46.40604" lon="5.68741">
        <ele>675.6</ele>
        <time>2014-05-03T16:52:27.961Z</time>
      </trkpt>
      <trkpt lat="46.40619" lon="5.68735">
        <ele>673.8</ele>
        <time>2014-05-03T16:52:30.942Z</time>
      </trkpt>
      <trkpt lat="46.4064" lon="5.6874">
        <ele>675.1</ele>
        <time>2014-05-03T16:52:34.028Z</time>
      </trkpt>
      <trkpt lat="46.40652" lon="5.68744">
        <ele>673.9</ele>
        <time>2014-05-03T16:52:36.968Z</time>
      </trkpt>
      <trkpt lat="46.40668" lon="5.68748">
        <ele>675.3</ele>
        <time>2014-05-03T16:52:39.940Z</time>
      </trkpt>
      <trkpt lat="46.40684" lon="5.68751">
        <ele>673.1</ele>
        <time>2014-05-03T16:52:42.989Z</time>
      </trkpt>
      <trkpt lat="46.40704" lon="5.68756">
        <ele>672.3</ele>
        <time>2014-05-03T16:52:45.992Z</time>
      </trkpt>
      <trkpt lat="46.40721" lon="5.68771">
        <ele>670</ele>
        <time>2014-05-03T16:52:48.944Z</time>
      </trkpt>
      <trkpt lat="46.4074" lon="5.68777">
        <ele>667.1</ele>
        <time>2014-05-03T16:52:51.956Z</time>
      </trkpt>
      <trkpt lat="46.40753" lon="5.68779">
        <ele>667.5</ele>
        <time>2014-05-03T16:52:54.989Z</time>
      </trkpt>
      <trkpt lat="46.40765" lon="5.68781">
        <ele>668.5</ele>
        <time>2014-05-03T16:52:57.938Z</time>
      </trkpt>
      <trkpt lat="46.40775" lon="5.6879">
        <ele>670</ele>
        <time>2014-05-03T16:53:00.938Z</time>
      </trkpt>
      <trkpt lat="46.40789" lon="5.68799">
        <ele>670.2</ele>
        <time>2014-05-03T16:53:03.969Z</time>
      </trkpt>
      <trkpt lat="46.40808" lon="5.68799">
        <ele>676.7</ele>
        <time>2014-05-03T16:53:06.965Z</time>
      </trkpt>
      <trkpt lat="46.40824" lon="5.688">
        <ele>680.3</ele>
        <time>2014-05-03T16:53:09.938Z</time>
      </trkpt>
      <trkpt lat="46.40841" lon="5.68806">
        <ele>673.7</ele>
        <time>2014-05-03T16:53:12.938Z</time>
      </trkpt>
      <trkpt lat="46.40854" lon="5.68814">
        <ele>671.4</ele>
        <time>2014-05-03T16:53:15.966Z</time>
      </trkpt>
      <trkpt lat="46.40864" lon="5.68822">
        <ele>670.9</ele>
        <time>2014-05-03T16:53:18.943Z</time>
      </trkpt>
      <trkpt lat="46.4087" lon="5.68827">
        <ele>670.6</ele>
        <time>2014-05-03T16:53:22.020Z</time>
      </trkpt>
      <trkpt lat="46.40878" lon="5.68824">
        <ele>673.1</ele>
        <time>2014-05-03T16:53:24.957Z</time>
      </trkpt>
      <trkpt lat="46.40882" lon="5.68829">
        <ele>672.6</ele>
        <time>2014-05-03T16:53:27.940Z</time>
      </trkpt>
      <trkpt lat="46.40885" lon="5.68836">
        <ele>671.5</ele>
        <time>2014-05-03T16:53:30.987Z</time>
      </trkpt>
      <trkpt lat="46.40889" lon="5.68844">
        <ele>667.6</ele>
        <time>2014-05-03T16:53:33.981Z</time>
      </trkpt>
      <trkpt lat="46.40894" lon="5.68853">
        <ele>666.1</ele>
        <time>2014-05-03T16:53:36.939Z</time>
      </trkpt>
      <trkpt lat="46.40899" lon="5.6886">
        <ele>668.6</ele>
        <time>2014-05-03T16:53:39.959Z</time>
      </trkpt>
      <trkpt lat="46.40905" lon="5.68862">
        <ele>671</ele>
        <time>2014-05-03T16:53:42.988Z</time>
      </trkpt>
      <trkpt lat="46.40912" lon="5.68863">
        <ele>673.1</ele>
        <time>2014-05-03T16:53:45.944Z</time>
      </trkpt>
      <trkpt lat="46.40919" lon="5.68866">
        <ele>670.2</ele>
        <time>2014-05-03T16:53:48.939Z</time>
      </trkpt>
      <trkpt lat="46.40924" lon="5.68872">
        <ele>668.6</ele>
        <time>2014-05-03T16:53:51.956Z</time>
      </trkpt>
      <trkpt lat="46.40925" lon="5.68882">
        <ele>672.7</ele>
        <time>2014-05-03T16:53:54.964Z</time>
      </trkpt>
      <trkpt lat="46.40922" lon="5.68891">
        <ele>674.8</ele>
        <time>2014-05-03T16:53:57.939Z</time>
      </trkpt>
      <trkpt lat="46.4092" lon="5.68899">
        <ele>671.7</ele>
        <time>2014-05-03T16:54:00.952Z</time>
      </trkpt>
      <trkpt lat="46.40916" lon="5.68904">
        <ele>670.2</ele>
        <time>2014-05-03T16:54:03.959Z</time>
      </trkpt>
      <trkpt lat="46.40911" lon="5.68906">
        <ele>669.5</ele>
        <time>2014-05-03T16:54:06.941Z</time>
      </trkpt>
      <trkpt lat="46.40906" lon="5.6891">
        <ele>666.9</ele>
        <time>2014-05-03T16:54:09.938Z</time>
      </trkpt>
      <trkpt lat="46.40903" lon="5.68918">
        <ele>666.5</ele>
        <time>2014-05-03T16:54:12.973Z</time>
      </trkpt>
      <trkpt lat="46.40901" lon="5.68926">
        <ele>673.5</ele>
        <time>2014-05-03T16:54:15.939Z</time>
      </trkpt>
      <trkpt lat="46.40901" lon="5.68932">
        <ele>673.8</ele>
        <time>2014-05-03T16:54:18.952Z</time>
      </trkpt>
      <trkpt lat="46.40904" lon="5.68939">
        <ele>676.5</ele>
        <time>2014-05-03T16:54:21.979Z</time>
      </trkpt>
      <trkpt lat="46.40909" lon="5.68944">
        <ele>678.1</ele>
        <time>2014-05-03T16:54:24.943Z</time>
      </trkpt>
      <trkpt lat="46.40915" lon="5.68951">
        <ele>677</ele>
        <time>2014-05-03T16:54:27.959Z</time>
      </trkpt>
      <trkpt lat="46.40919" lon="5.6896">
        <ele>677.2</ele>
        <time>2014-05-03T16:54:30.992Z</time>
      </trkpt>
      <trkpt lat="46.40922" lon="5.68967">
        <ele>681</ele>
        <time>2014-05-03T16:54:33.951Z</time>
      </trkpt>
      <trkpt lat="46.40926" lon="5.68974">
        <ele>680.4</ele>
        <time>2014-05-03T16:54:36.940Z</time>
      </trkpt>
      <trkpt lat="46.4093" lon="5.68983">
        <ele>680.9</ele>
        <time>2014-05-03T16:54:39.949Z</time>
      </trkpt>
      <trkpt lat="46.40935" lon="5.68989">
        <ele>681.9</ele>
        <time>2014-05-03T16:54:42.959Z</time>
      </trkpt>
      <trkpt lat="46.40941" lon="5.68992">
        <ele>687.3</ele>
        <time>2014-05-03T16:54:45.940Z</time>
      </trkpt>
      <trkpt lat="46.40948" lon="5.68994">
        <ele>687.4</ele>
        <time>2014-05-03T16:54:48.947Z</time>
      </trkpt>
      <trkpt lat="46.40954" lon="5.68997">
        <ele>686.5</ele>
        <time>2014-05-03T16:54:51.964Z</time>
      </trkpt>
      <trkpt lat="46.40959" lon="5.69">
        <ele>684.8</ele>
        <time>2014-05-03T16:54:54.941Z</time>
      </trkpt>
      <trkpt lat="46.40963" lon="5.69003">
        <ele>683.8</ele>
        <time>2014-05-03T16:54:58.017Z</time>
      </trkpt>
      <trkpt lat="46.40965" lon="5.69007">
        <ele>685.2</ele>
        <time>2014-05-03T16:55:00.962Z</time>
      </trkpt>
      <trkpt lat="46.40962" lon="5.69011">
        <ele>684.3</ele>
        <time>2014-05-03T16:55:03.941Z</time>
      </trkpt>
      <trkpt lat="46.40959" lon="5.69018">
        <ele>683.2</ele>
        <time>2014-05-03T16:55:06.985Z</time>
      </trkpt>
      <trkpt lat="46.40958" lon="5.69025">
        <ele>685.1</ele>
        <time>2014-05-03T16:55:09.975Z</time>
      </trkpt>
      <trkpt lat="46.40958" lon="5.69031">
        <ele>687.7</ele>
        <time>2014-05-03T16:55:12.940Z</time>
      </trkpt>
      <trkpt lat="46.40958" lon="5.69037">
        <ele>689.2</ele>
        <time>2014-05-03T16:55:15.956Z</time>
      </trkpt>
      <trkpt lat="46.40958" lon="5.69044">
        <ele>691.8</ele>
        <time>2014-05-03T16:55:18.992Z</time>
      </trkpt>
      <trkpt lat="46.40958" lon="5.6905">
        <ele>693.1</ele>
        <time>2014-05-03T16:55:21.949Z</time>
      </trkpt>
      <trkpt lat="46.40958" lon="5.69057">
        <ele>693.6</ele>
        <time>2014-05-03T16:55:24.938Z</time>
      </trkpt>
      <trkpt lat="46.40959" lon="5.69063">
        <ele>695.3</ele>
        <time>2014-05-03T16:55:27.993Z</time>
      </trkpt>
      <trkpt lat="46.4096" lon="5.69068">
        <ele>699.5</ele>
        <time>2014-05-03T16:55:30.963Z</time>
      </trkpt>
      <trkpt lat="46.40962" lon="5.69072">
        <ele>704.1</ele>
        <time>2014-05-03T16:55:33.940Z</time>
      </trkpt>
      <trkpt lat="46.40963" lon="5.69076">
        <ele>706.4</ele>
        <time>2014-05-03T16:55:36.944Z</time>
      </trkpt>
      <trkpt lat="46.40964" lon="5.69081">
        <ele>709.6</ele>
        <time>2014-05-03T16:55:39.965Z</time>
      </trkpt>
      <trkpt lat="46.40964" lon="5.69087">
        <ele>710.8</ele>
        <time>2014-05-03T16:55:42.939Z</time>
      </trkpt>
      <trkpt lat="46.40966" lon="5.69092">
        <ele>714.9</ele>
        <time>2014-05-03T16:55:46.010Z</time>
      </trkpt>
      <trkpt lat="46.40966" lon="5.69095">
        <ele>715.4</ele>
        <time>2014-05-03T16:55:48.963Z</time>
      </trkpt>
      <trkpt lat="46.40965" lon="5.69099">
        <ele>718.6</ele>
        <time>2014-05-03T16:55:51.941Z</time>
      </trkpt>
      <trkpt lat="46.40964" lon="5.69104">
        <ele>723</ele>
        <time>2014-05-03T16:55:54.996Z</time>
      </trkpt>
      <trkpt lat="46.40963" lon="5.69112">
        <ele>722.3</ele>
        <time>2014-05-03T16:55:57.982Z</time>
      </trkpt>
      <trkpt lat="46.40963" lon="5.69123">
        <ele>721.1</ele>
        <time>2014-05-03T16:56:00.942Z</time>
      </trkpt>
      <trkpt lat="46.40963" lon="5.69131">
        <ele>722</ele>
        <time>2014-05-03T16:56:03.964Z</time>
      </trkpt>
      <trkpt lat="46.40965" lon="5.69138">
        <ele>723.2</ele>
        <time>2014-05-03T16:56:06.985Z</time>
      </trkpt>
      <trkpt lat="46.40967" lon="5.69144">
        <ele>723</ele>
        <time>2014-05-03T16:56:09.941Z</time>
      </trkpt>
      <trkpt lat="46.40968" lon="5.69152">
        <ele>723</ele>
        <time>2014-05-03T16:56:12.939Z</time>
      </trkpt>
      <trkpt lat="46.4097" lon="5.69157">
        <ele>725.8</ele>
        <time>2014-05-03T16:56:15.952Z</time>
      </trkpt>
      <trkpt lat="46.40972" lon="5.69162">
        <ele>727</ele>
        <time>2014-05-03T16:56:18.958Z</time>
      </trkpt>
      <trkpt lat="46.40972" lon="5.6917">
        <ele>726.4</ele>
        <time>2014-05-03T16:56:21.939Z</time>
      </trkpt>
      <trkpt lat="46.40972" lon="5.6918">
        <ele>725.1</ele>
        <time>2014-05-03T16:56:25.013Z</time>
      </trkpt>
      <trkpt lat="46.40972" lon="5.69186">
        <ele>728.9</ele>
        <time>2014-05-03T16:56:27.956Z</time>
      </trkpt>
      <trkpt lat="46.40971" lon="5.69191">
        <ele>730.7</ele>
        <time>2014-05-03T16:56:30.940Z</time>
      </trkpt>
      <trkpt lat="46.40972" lon="5.69199">
        <ele>731.1</ele>
        <time>2014-05-03T16:56:34.008Z</time>
      </trkpt>
      <trkpt lat="46.40974" lon="5.69204">
        <ele>734.1</ele>
        <time>2014-05-03T16:56:36.958Z</time>
      </trkpt>
      <trkpt lat="46.40974" lon="5.69208">
        <ele>733.8</ele>
        <time>2014-05-03T16:56:39.942Z</time>
      </trkpt>
      <trkpt lat="46.40975" lon="5.69212">
        <ele>732.9</ele>
        <time>2014-05-03T16:56:42.977Z</time>
      </trkpt>
      <trkpt lat="46.40976" lon="5.69219">
        <ele>736.7</ele>
        <time>2014-05-03T16:56:45.955Z</time>
      </trkpt>
      <trkpt lat="46.40979" lon="5.69227">
        <ele>737.2</ele>
        <time>2014-05-03T16:56:48.939Z</time>
      </trkpt>
      <trkpt lat="46.40981" lon="5.69235">
        <ele>738.7</ele>
        <time>2014-05-03T16:56:51.959Z</time>
      </trkpt>
      <trkpt lat="46.40982" lon="5.69241">
        <ele>739.7</ele>
        <time>2014-05-03T16:56:54.991Z</time>
      </trkpt>
      <trkpt lat="46.40984" lon="5.69248">
        <ele>743</ele>
        <time>2014-05-03T16:56:57.944Z</time>
      </trkpt>
      <trkpt lat="46.40984" lon="5.69256">
        <ele>737.5</ele>
        <time>2014-05-03T16:57:00.940Z</time>
      </trkpt>
      <trkpt lat="46.4098" lon="5.69264">
        <ele>736</ele>
        <time>2014-05-03T16:57:03.957Z</time>
      </trkpt>
      <trkpt lat="46.40978" lon="5.69269">
        <ele>736.5</ele>
        <time>2014-05-03T16:57:06.958Z</time>
      </trkpt>
      <trkpt lat="46.40977" lon="5.69275">
        <ele>736.2</ele>
        <time>2014-05-03T16:57:09.939Z</time>
      </trkpt>
      <trkpt lat="46.40973" lon="5.69281">
        <ele>733.3</ele>
        <time>2014-05-03T16:57:13.001Z</time>
      </trkpt>
      <trkpt lat="46.40969" lon="5.69287">
        <ele>733.4</ele>
        <time>2014-05-03T16:57:15.960Z</time>
      </trkpt>
      <trkpt lat="46.40966" lon="5.69293">
        <ele>731.9</ele>
        <time>2014-05-03T16:57:18.941Z</time>
      </trkpt>
      <trkpt lat="46.40964" lon="5.693">
        <ele>730.6</ele>
        <time>2014-05-03T16:57:22.017Z</time>
      </trkpt>
      <trkpt lat="46.40961" lon="5.69305">
        <ele>731.9</ele>
        <time>2014-05-03T16:57:24.954Z</time>
      </trkpt>
      <trkpt lat="46.40957" lon="5.69309">
        <ele>732</ele>
        <time>2014-05-03T16:57:27.940Z</time>
      </trkpt>
      <trkpt lat="46.40954" lon="5.69312">
        <ele>730.4</ele>
        <time>2014-05-03T16:57:30.998Z</time>
      </trkpt>
      <trkpt lat="46.40949" lon="5.69314">
        <ele>729.9</ele>
        <time>2014-05-03T16:57:33.988Z</time>
      </trkpt>
      <trkpt lat="46.40945" lon="5.69315">
        <ele>729.9</ele>
        <time>2014-05-03T16:57:36.941Z</time>
      </trkpt>
      <trkpt lat="46.40943" lon="5.69318">
        <ele>729.1</ele>
        <time>2014-05-03T16:57:39.964Z</time>
      </trkpt>
      <trkpt lat="46.4094" lon="5.6932">
        <ele>728</ele>
        <time>2014-05-03T16:57:43.031Z</time>
      </trkpt>
      <trkpt lat="46.40936" lon="5.69321">
        <ele>726.1</ele>
        <time>2014-05-03T16:57:45.945Z</time>
      </trkpt>
      <trkpt lat="46.40931" lon="5.69322">
        <ele>727</ele>
        <time>2014-05-03T16:57:48.938Z</time>
      </trkpt>
      <trkpt lat="46.40926" lon="5.69321">
        <ele>726.2</ele>
        <time>2014-05-03T16:57:51.968Z</time>
      </trkpt>
      <trkpt lat="46.40923" lon="5.69319">
        <ele>727.6</ele>
        <time>2014-05-03T16:57:54.938Z</time>
      </trkpt>
      <trkpt lat="46.40919" lon="5.69318">
        <ele>727.5</ele>
        <time>2014-05-03T16:57:57.938Z</time>
      </trkpt>
      <trkpt lat="46.40914" lon="5.69316">
        <ele>725.6</ele>
        <time>2014-05-03T16:58:00.937Z</time>
      </trkpt>
      <trkpt lat="46.4091" lon="5.69313">
        <ele>725.1</ele>
        <time>2014-05-03T16:58:03.939Z</time>
      </trkpt>
      <trkpt lat="46.40906" lon="5.69311">
        <ele>724.1</ele>
        <time>2014-05-03T16:58:06.939Z</time>
      </trkpt>
      <trkpt lat="46.40902" lon="5.69308">
        <ele>725.6</ele>
        <time>2014-05-03T16:58:09.939Z</time>
      </trkpt>
      <trkpt lat="46.40898" lon="5.69308">
        <ele>728.4</ele>
        <time>2014-05-03T16:58:12.940Z</time>
      </trkpt>
      <trkpt lat="46.40892" lon="5.69304">
        <ele>725.4</ele>
        <time>2014-05-03T16:58:15.940Z</time>
      </trkpt>
      <trkpt lat="46.40886" lon="5.69302">
        <ele>721.8</ele>
        <time>2014-05-03T16:58:18.939Z</time>
      </trkpt>
      <trkpt lat="46.40882" lon="5.69306">
        <ele>719.2</ele>
        <time>2014-05-03T16:58:21.940Z</time>
      </trkpt>
      <trkpt lat="46.40879" lon="5.69313">
        <ele>716.5</ele>
        <time>2014-05-03T16:58:24.926Z</time>
      </trkpt>
      <trkpt lat="46.40876" lon="5.6932">
        <ele>716.3</ele>
        <time>2014-05-03T16:58:27.967Z</time>
      </trkpt>
      <trkpt lat="46.40875" lon="5.69327">
        <ele>716.6</ele>
        <time>2014-05-03T16:58:30.935Z</time>
      </trkpt>
      <trkpt lat="46.40873" lon="5.69334">
        <ele>715.2</ele>
        <time>2014-05-03T16:58:33.935Z</time>
      </trkpt>
      <trkpt lat="46.40872" lon="5.69342">
        <ele>715.1</ele>
        <time>2014-05-03T16:58:36.937Z</time>
      </trkpt>
      <trkpt lat="46.40871" lon="5.6935">
        <ele>714.6</ele>
        <time>2014-05-03T16:58:39.937Z</time>
      </trkpt>
      <trkpt lat="46.40871" lon="5.69358">
        <ele>715</ele>
        <time>2014-05-03T16:58:42.937Z</time>
      </trkpt>
      <trkpt lat="46.40871" lon="5.69366">
        <ele>713.5</ele>
        <time>2014-05-03T16:58:45.938Z</time>
      </trkpt>
      <trkpt lat="46.40872" lon="5.69373">
        <ele>714.4</ele>
        <time>2014-05-03T16:58:48.948Z</time>
      </trkpt>
      <trkpt lat="46.40874" lon="5.6938">
        <ele>716.4</ele>
        <time>2014-05-03T16:58:51.946Z</time>
      </trkpt>
      <trkpt lat="46.40877" lon="5.69384">
        <ele>716.4</ele>
        <time>2014-05-03T16:58:54.981Z</time>
      </trkpt>
      <trkpt lat="46.40879" lon="5.69389">
        <ele>714.3</ele>
        <time>2014-05-03T16:58:57.966Z</time>
      </trkpt>
      <trkpt lat="46.40882" lon="5.69394">
        <ele>713.6</ele>
        <time>2014-05-03T16:59:00.940Z</time>
      </trkpt>
      <trkpt lat="46.40885" lon="5.69398">
        <ele>713.3</ele>
        <time>2014-05-03T16:59:03.941Z</time>
      </trkpt>
      <trkpt lat="46.4089" lon="5.69404">
        <ele>714.1</ele>
        <time>2014-05-03T16:59:06.958Z</time>
      </trkpt>
      <trkpt lat="46.40894" lon="5.6941">
        <ele>715</ele>
        <time>2014-05-03T16:59:09.940Z</time>
      </trkpt>
      <trkpt lat="46.409" lon="5.69417">
        <ele>713.9</ele>
        <time>2014-05-03T16:59:12.938Z</time>
      </trkpt>
      <trkpt lat="46.40904" lon="5.69427">
        <ele>713.7</ele>
        <time>2014-05-03T16:59:15.938Z</time>
      </trkpt>
      <trkpt lat="46.40905" lon="5.69438">
        <ele>713.8</ele>
        <time>2014-05-03T16:59:18.937Z</time>
      </trkpt>
      <trkpt lat="46.40905" lon="5.69449">
        <ele>714.7</ele>
        <time>2014-05-03T16:59:21.937Z</time>
      </trkpt>
      <trkpt lat="46.40905" lon="5.69461">
        <ele>714.2</ele>
        <time>2014-05-03T16:59:24.995Z</time>
      </trkpt>
      <trkpt lat="46.40905" lon="5.69472">
        <ele>714.1</ele>
        <time>2014-05-03T16:59:27.941Z</time>
      </trkpt>
      <trkpt lat="46.40905" lon="5.69483">
        <ele>713.6</ele>
        <time>2014-05-03T16:59:30.984Z</time>
      </trkpt>
      <trkpt lat="46.40906" lon="5.69495">
        <ele>714.3</ele>
        <time>2014-05-03T16:59:33.946Z</time>
      </trkpt>
      <trkpt lat="46.40906" lon="5.69506">
        <ele>715.3</ele>
        <time>2014-05-03T16:59:36.950Z</time>
      </trkpt>
      <trkpt lat="46.40907" lon="5.69517">
        <ele>716.8</ele>
        <time>2014-05-03T16:59:39.951Z</time>
      </trkpt>
      <trkpt lat="46.40909" lon="5.69529">
        <ele>716.9</ele>
        <time>2014-05-03T16:59:42.939Z</time>
      </trkpt>
      <trkpt lat="46.4091" lon="5.69542">
        <ele>717.2</ele>
        <time>2014-05-03T16:59:45.937Z</time>
      </trkpt>
      <trkpt lat="46.40913" lon="5.69554">
        <ele>717</ele>
        <time>2014-05-03T16:59:48.942Z</time>
      </trkpt>
      <trkpt lat="46.40916" lon="5.69565">
        <ele>718.5</ele>
        <time>2014-05-03T16:59:51.938Z</time>
      </trkpt>
      <trkpt lat="46.40921" lon="5.69575">
        <ele>718.2</ele>
        <time>2014-05-03T16:59:54.997Z</time>
      </trkpt>
      <trkpt lat="46.40925" lon="5.69587">
        <ele>718.8</ele>
        <time>2014-05-03T16:59:57.997Z</time>
      </trkpt>
      <trkpt lat="46.40928" lon="5.69599">
        <ele>718.3</ele>
        <time>2014-05-03T17:00:00.940Z</time>
      </trkpt>
      <trkpt lat="46.40932" lon="5.69612">
        <ele>719.1</ele>
        <time>2014-05-03T17:00:03.972Z</time>
      </trkpt>
      <trkpt lat="46.40934" lon="5.69625">
        <ele>718.6</ele>
        <time>2014-05-03T17:00:06.995Z</time>
      </trkpt>
      <trkpt lat="46.40938" lon="5.69637">
        <ele>718.4</ele>
        <time>2014-05-03T17:00:09.960Z</time>
      </trkpt>
      <trkpt lat="46.4094" lon="5.69649">
        <ele>718.3</ele>
        <time>2014-05-03T17:00:12.943Z</time>
      </trkpt>
      <trkpt lat="46.40944" lon="5.69659">
        <ele>718.5</ele>
        <time>2014-05-03T17:00:15.974Z</time>
      </trkpt>
      <trkpt lat="46.40951" lon="5.69668">
        <ele>719.4</ele>
        <time>2014-05-03T17:00:18.963Z</time>
      </trkpt>
      <trkpt lat="46.40958" lon="5.69677">
        <ele>719.2</ele>
        <time>2014-05-03T17:00:21.942Z</time>
      </trkpt>
      <trkpt lat="46.40966" lon="5.69687">
        <ele>718.4</ele>
        <time>2014-05-03T17:00:24.938Z</time>
      </trkpt>
      <trkpt lat="46.40974" lon="5.69697">
        <ele>719</ele>
        <time>2014-05-03T17:00:27.938Z</time>
      </trkpt>
      <trkpt lat="46.40981" lon="5.69707">
        <ele>720.5</ele>
        <time>2014-05-03T17:00:30.937Z</time>
      </trkpt>
      <trkpt lat="46.40986" lon="5.69717">
        <ele>720.7</ele>
        <time>2014-05-03T17:00:33.937Z</time>
      </trkpt>
      <trkpt lat="46.4099" lon="5.69726">
        <ele>721.8</ele>
        <time>2014-05-03T17:00:36.938Z</time>
      </trkpt>
      <trkpt lat="46.40994" lon="5.69736">
        <ele>722.1</ele>
        <time>2014-05-03T17:00:39.941Z</time>
      </trkpt>
      <trkpt lat="46.40998" lon="5.69745">
        <ele>723.9</ele>
        <time>2014-05-03T17:00:42.986Z</time>
      </trkpt>
      <trkpt lat="46.41003" lon="5.69753">
        <ele>725.8</ele>
        <time>2014-05-03T17:00:45.976Z</time>
      </trkpt>
      <trkpt lat="46.41007" lon="5.6976">
        <ele>729.4</ele>
        <time>2014-05-03T17:00:48.942Z</time>
      </trkpt>
      <trkpt lat="46.41012" lon="5.69764">
        <ele>735.8</ele>
        <time>2014-05-03T17:00:51.960Z</time>
      </trkpt>
      <trkpt lat="46.41017" lon="5.6977">
        <ele>737</ele>
        <time>2014-05-03T17:00:54.984Z</time>
      </trkpt>
      <trkpt lat="46.41021" lon="5.69781">
        <ele>735.4</ele>
        <time>2014-05-03T17:00:57.947Z</time>
      </trkpt>
      <trkpt lat="46.41026" lon="5.69791">
        <ele>735.9</ele>
        <time>2014-05-03T17:01:00.938Z</time>
      </trkpt>
      <trkpt lat="46.41031" lon="5.69802">
        <ele>736.2</ele>
        <time>2014-05-03T17:01:03.968Z</time>
      </trkpt>
      <trkpt lat="46.41036" lon="5.69811">
        <ele>736.7</ele>
        <time>2014-05-03T17:01:06.948Z</time>
      </trkpt>
      <trkpt lat="46.41043" lon="5.69817">
        <ele>741</ele>
        <time>2014-05-03T17:01:09.939Z</time>
      </trkpt>
      <trkpt lat="46.4105" lon="5.69823">
        <ele>742.3</ele>
        <time>2014-05-03T17:01:12.966Z</time>
      </trkpt>
      <trkpt lat="46.41056" lon="5.6983">
        <ele>742.2</ele>
        <time>2014-05-03T17:01:15.949Z</time>
      </trkpt>
      <trkpt lat="46.41064" lon="5.69836">
        <ele>742.1</ele>
        <time>2014-05-03T17:01:18.941Z</time>
      </trkpt>
      <trkpt lat="46.41072" lon="5.6984">
        <ele>741.8</ele>
        <time>2014-05-03T17:01:21.982Z</time>
      </trkpt>
      <trkpt lat="46.4108" lon="5.69843">
        <ele>741.3</ele>
        <time>2014-05-03T17:01:24.945Z</time>
      </trkpt>
      <trkpt lat="46.41088" lon="5.69844">
        <ele>741.3</ele>
        <time>2014-05-03T17:01:27.941Z</time>
      </trkpt>
      <trkpt lat="46.41096" lon="5.69846">
        <ele>742.9</ele>
        <time>2014-05-03T17:01:30.939Z</time>
      </trkpt>
      <trkpt lat="46.41104" lon="5.69848">
        <ele>745.8</ele>
        <time>2014-05-03T17:01:33.945Z</time>
      </trkpt>
      <trkpt lat="46.41111" lon="5.69852">
        <ele>745.2</ele>
        <time>2014-05-03T17:01:36.938Z</time>
      </trkpt>
      <trkpt lat="46.41119" lon="5.69858">
        <ele>747.3</ele>
        <time>2014-05-03T17:01:39.939Z</time>
      </trkpt>
      <trkpt lat="46.41125" lon="5.69866">
        <ele>747.6</ele>
        <time>2014-05-03T17:01:42.940Z</time>
      </trkpt>
      <trkpt lat="46.41128" lon="5.69877">
        <ele>746.4</ele>
        <time>2014-05-03T17:01:45.938Z</time>
      </trkpt>
      <trkpt lat="46.41129" lon="5.69891">
        <ele>745.7</ele>
        <time>2014-05-03T17:01:48.941Z</time>
      </trkpt>
      <trkpt lat="46.41129" lon="5.69905">
        <ele>745.1</ele>
        <time>2014-05-03T17:01:51.940Z</time>
      </trkpt>
      <trkpt lat="46.41129" lon="5.69921">
        <ele>743.7</ele>
        <time>2014-05-03T17:01:54.945Z</time>
      </trkpt>
      <trkpt lat="46.4113" lon="5.69938">
        <ele>744.9</ele>
        <time>2014-05-03T17:01:57.940Z</time>
      </trkpt>
      <trkpt lat="46.41129" lon="5.69954">
        <ele>744.9</ele>
        <time>2014-05-03T17:02:00.938Z</time>
      </trkpt>
      <trkpt lat="46.41129" lon="5.69969">
        <ele>743</ele>
        <time>2014-05-03T17:02:03.939Z</time>
      </trkpt>
      <trkpt lat="46.4113" lon="5.69985">
        <ele>739.9</ele>
        <time>2014-05-03T17:02:06.957Z</time>
      </trkpt>
      <trkpt lat="46.41132" lon="5.70002">
        <ele>739.7</ele>
        <time>2014-05-03T17:02:09.938Z</time>
      </trkpt>
      <trkpt lat="46.41133" lon="5.70015">
        <ele>741</ele>
        <time>2014-05-03T17:02:12.943Z</time>
      </trkpt>
      <trkpt lat="46.41133" lon="5.7002">
        <ele>743.1</ele>
        <time>2014-05-03T17:02:15.940Z</time>
      </trkpt>
      <trkpt lat="46.41134" lon="5.70022">
        <ele>745.6</ele>
        <time>2014-05-03T17:02:18.935Z</time>
      </trkpt>
      <trkpt lat="46.41134" lon="5.70028">
        <ele>747.5</ele>
        <time>2014-05-03T17:02:21.939Z</time>
      </trkpt>
      <trkpt lat="46.41137" lon="5.70052">
        <ele>753.3</ele>
        <time>2014-05-03T17:02:24.947Z</time>
      </trkpt>
      <trkpt lat="46.41139" lon="5.70081">
        <ele>754.7</ele>
        <time>2014-05-03T17:02:27.938Z</time>
      </trkpt>
      <trkpt lat="46.4114" lon="5.70105">
        <ele>757.7</ele>
        <time>2014-05-03T17:02:30.938Z</time>
      </trkpt>
      <trkpt lat="46.41144" lon="5.7013">
        <ele>759.6</ele>
        <time>2014-05-03T17:02:33.938Z</time>
      </trkpt>
      <trkpt lat="46.41149" lon="5.70166">
        <ele>760.6</ele>
        <time>2014-05-03T17:02:36.937Z</time>
      </trkpt>
      <trkpt lat="46.41152" lon="5.70189">
        <ele>761.4</ele>
        <time>2014-05-03T17:02:39.937Z</time>
      </trkpt>
      <trkpt lat="46.41157" lon="5.70208">
        <ele>759.4</ele>
        <time>2014-05-03T17:02:42.937Z</time>
      </trkpt>
      <trkpt lat="46.41166" lon="5.70228">
        <ele>755.3</ele>
        <time>2014-05-03T17:02:45.958Z</time>
      </trkpt>
      <trkpt lat="46.41177" lon="5.70242">
        <ele>752.3</ele>
        <time>2014-05-03T17:02:48.939Z</time>
      </trkpt>
      <trkpt lat="46.41184" lon="5.70254">
        <ele>752.2</ele>
        <time>2014-05-03T17:02:51.939Z</time>
      </trkpt>
      <trkpt lat="46.41187" lon="5.70282">
        <ele>754.3</ele>
        <time>2014-05-03T17:02:54.945Z</time>
      </trkpt>
      <trkpt lat="46.41187" lon="5.70288">
        <ele>755.5</ele>
        <time>2014-05-03T17:02:57.940Z</time>
      </trkpt>
      <trkpt lat="46.41193" lon="5.703">
        <ele>759</ele>
        <time>2014-05-03T17:03:00.926Z</time>
      </trkpt>
      <trkpt lat="46.41201" lon="5.70317">
        <ele>762.4</ele>
        <time>2014-05-03T17:03:03.938Z</time>
      </trkpt>
      <trkpt lat="46.41209" lon="5.70334">
        <ele>767.6</ele>
        <time>2014-05-03T17:03:06.930Z</time>
      </trkpt>
      <trkpt lat="46.41217" lon="5.70356">
        <ele>762.8</ele>
        <time>2014-05-03T17:03:09.947Z</time>
      </trkpt>
      <trkpt lat="46.41225" lon="5.70379">
        <ele>760.1</ele>
        <time>2014-05-03T17:03:12.988Z</time>
      </trkpt>
      <trkpt lat="46.41228" lon="5.704">
        <ele>762.3</ele>
        <time>2014-05-03T17:03:15.932Z</time>
      </trkpt>
      <trkpt lat="46.41229" lon="5.70423">
        <ele>760.6</ele>
        <time>2014-05-03T17:03:18.934Z</time>
      </trkpt>
      <trkpt lat="46.41229" lon="5.70445">
        <ele>760.7</ele>
        <time>2014-05-03T17:03:21.939Z</time>
      </trkpt>
      <trkpt lat="46.4123" lon="5.70468">
        <ele>758</ele>
        <time>2014-05-03T17:03:24.938Z</time>
      </trkpt>
      <trkpt lat="46.41229" lon="5.70493">
        <ele>750.3</ele>
        <time>2014-05-03T17:03:27.937Z</time>
      </trkpt>
      <trkpt lat="46.41226" lon="5.70531">
        <ele>745.4</ele>
        <time>2014-05-03T17:03:30.938Z</time>
      </trkpt>
      <trkpt lat="46.41226" lon="5.70555">
        <ele>744.9</ele>
        <time>2014-05-03T17:03:33.956Z</time>
      </trkpt>
      <trkpt lat="46.41225" lon="5.7058">
        <ele>744.4</ele>
        <time>2014-05-03T17:03:36.941Z</time>
      </trkpt>
      <trkpt lat="46.41223" lon="5.70604">
        <ele>745.9</ele>
        <time>2014-05-03T17:03:39.942Z</time>
      </trkpt>
      <trkpt lat="46.41223" lon="5.70628">
        <ele>746.9</ele>
        <time>2014-05-03T17:03:42.966Z</time>
      </trkpt>
      <trkpt lat="46.41221" lon="5.70652">
        <ele>746.7</ele>
        <time>2014-05-03T17:03:45.951Z</time>
      </trkpt>
      <trkpt lat="46.4122" lon="5.70679">
        <ele>745.5</ele>
        <time>2014-05-03T17:03:48.938Z</time>
      </trkpt>
      <trkpt lat="46.41214" lon="5.70702">
        <ele>744.6</ele>
        <time>2014-05-03T17:03:51.938Z</time>
      </trkpt>
      <trkpt lat="46.41208" lon="5.70728">
        <ele>744.5</ele>
        <time>2014-05-03T17:03:54.937Z</time>
      </trkpt>
      <trkpt lat="46.41197" lon="5.70748">
        <ele>745.6</ele>
        <time>2014-05-03T17:03:57.937Z</time>
      </trkpt>
      <trkpt lat="46.41189" lon="5.70768">
        <ele>745.6</ele>
        <time>2014-05-03T17:04:00.991Z</time>
      </trkpt>
      <trkpt lat="46.41181" lon="5.70784">
        <ele>749.2</ele>
        <time>2014-05-03T17:04:03.949Z</time>
      </trkpt>
      <trkpt lat="46.41176" lon="5.70801">
        <ele>752.8</ele>
        <time>2014-05-03T17:04:06.940Z</time>
      </trkpt>
      <trkpt lat="46.41174" lon="5.70813">
        <ele>755.6</ele>
        <time>2014-05-03T17:04:09.938Z</time>
      </trkpt>
      <trkpt lat="46.41164" lon="5.7083">
        <ele>757.7</ele>
        <time>2014-05-03T17:04:12.980Z</time>
      </trkpt>
      <trkpt lat="46.41158" lon="5.70852">
        <ele>754.1</ele>
        <time>2014-05-03T17:04:15.940Z</time>
      </trkpt>
      <trkpt lat="46.4115" lon="5.70873">
        <ele>752.2</ele>
        <time>2014-05-03T17:04:18.976Z</time>
      </trkpt>
      <trkpt lat="46.41142" lon="5.70891">
        <ele>753.6</ele>
        <time>2014-05-03T17:04:21.986Z</time>
      </trkpt>
      <trkpt lat="46.41134" lon="5.70908">
        <ele>752.1</ele>
        <time>2014-05-03T17:04:24.942Z</time>
      </trkpt>
      <trkpt lat="46.41128" lon="5.70924">
        <ele>753</ele>
        <time>2014-05-03T17:04:27.944Z</time>
      </trkpt>
      <trkpt lat="46.41122" lon="5.70936">
        <ele>755.9</ele>
        <time>2014-05-03T17:04:30.969Z</time>
      </trkpt>
      <trkpt lat="46.41116" lon="5.70951">
        <ele>756.3</ele>
        <time>2014-05-03T17:04:33.951Z</time>
      </trkpt>
      <trkpt lat="46.4111" lon="5.70968">
        <ele>756</ele>
        <time>2014-05-03T17:04:36.939Z</time>
      </trkpt>
      <trkpt lat="46.41104" lon="5.70985">
        <ele>754.4</ele>
        <time>2014-05-03T17:04:39.938Z</time>
      </trkpt>
      <trkpt lat="46.41098" lon="5.71002">
        <ele>753.9</ele>
        <time>2014-05-03T17:04:42.959Z</time>
      </trkpt>
      <trkpt lat="46.41092" lon="5.71017">
        <ele>752.9</ele>
        <time>2014-05-03T17:04:45.939Z</time>
      </trkpt>
      <trkpt lat="46.41086" lon="5.71036">
        <ele>744.1</ele>
        <time>2014-05-03T17:04:48.944Z</time>
      </trkpt>
      <trkpt lat="46.4108" lon="5.71061">
        <ele>740.8</ele>
        <time>2014-05-03T17:04:51.952Z</time>
      </trkpt>
      <trkpt lat="46.41073" lon="5.71087">
        <ele>737.3</ele>
        <time>2014-05-03T17:04:54.940Z</time>
      </trkpt>
      <trkpt lat="46.41063" lon="5.71118">
        <ele>734.1</ele>
        <time>2014-05-03T17:04:58.002Z</time>
      </trkpt>
      <trkpt lat="46.41048" lon="5.7115">
        <ele>731.9</ele>
        <time>2014-05-03T17:05:00.973Z</time>
      </trkpt>
      <trkpt lat="46.41029" lon="5.7118">
        <ele>730.9</ele>
        <time>2014-05-03T17:05:03.941Z</time>
      </trkpt>
      <trkpt lat="46.41007" lon="5.71211">
        <ele>724.8</ele>
        <time>2014-05-03T17:05:06.971Z</time>
      </trkpt>
      <trkpt lat="46.40978" lon="5.71236">
        <ele>718.2</ele>
        <time>2014-05-03T17:05:09.966Z</time>
      </trkpt>
      <trkpt lat="46.40944" lon="5.71254">
        <ele>713.8</ele>
        <time>2014-05-03T17:05:12.941Z</time>
      </trkpt>
      <trkpt lat="46.40908" lon="5.71249">
        <ele>709.5</ele>
        <time>2014-05-03T17:05:15.951Z</time>
      </trkpt>
      <trkpt lat="46.40871" lon="5.71253">
        <ele>707.1</ele>
        <time>2014-05-03T17:05:18.974Z</time>
      </trkpt>
      <trkpt lat="46.40837" lon="5.71261">
        <ele>707.1</ele>
        <time>2014-05-03T17:05:21.959Z</time>
      </trkpt>
      <trkpt lat="46.4081" lon="5.71266">
        <ele>708.7</ele>
        <time>2014-05-03T17:05:24.940Z</time>
      </trkpt>
      <trkpt lat="46.4079" lon="5.71276">
        <ele>709.9</ele>
        <time>2014-05-03T17:05:27.957Z</time>
      </trkpt>
      <trkpt lat="46.40772" lon="5.71284">
        <ele>711.2</ele>
        <time>2014-05-03T17:05:30.971Z</time>
      </trkpt>
      <trkpt lat="46.40757" lon="5.71291">
        <ele>712.6</ele>
        <time>2014-05-03T17:05:33.942Z</time>
      </trkpt>
      <trkpt lat="46.40742" lon="5.71293">
        <ele>713.2</ele>
        <time>2014-05-03T17:05:36.939Z</time>
      </trkpt>
      <trkpt lat="46.40728" lon="5.71295">
        <ele>712.8</ele>
        <time>2014-05-03T17:05:39.964Z</time>
      </trkpt>
      <trkpt lat="46.40714" lon="5.71296">
        <ele>712.3</ele>
        <time>2014-05-03T17:05:42.939Z</time>
      </trkpt>
      <trkpt lat="46.40699" lon="5.71296">
        <ele>712</ele>
        <time>2014-05-03T17:05:45.996Z</time>
      </trkpt>
      <trkpt lat="46.40684" lon="5.71291">
        <ele>711.4</ele>
        <time>2014-05-03T17:05:48.967Z</time>
      </trkpt>
      <trkpt lat="46.40669" lon="5.71284">
        <ele>711.7</ele>
        <time>2014-05-03T17:05:51.944Z</time>
      </trkpt>
      <trkpt lat="46.40655" lon="5.71274">
        <ele>710.8</ele>
        <time>2014-05-03T17:05:54.983Z</time>
      </trkpt>
      <trkpt lat="46.40641" lon="5.71262">
        <ele>710.5</ele>
        <time>2014-05-03T17:05:57.990Z</time>
      </trkpt>
      <trkpt lat="46.40625" lon="5.71248">
        <ele>709.7</ele>
        <time>2014-05-03T17:06:00.939Z</time>
      </trkpt>
      <trkpt lat="46.40611" lon="5.71231">
        <ele>709.2</ele>
        <time>2014-05-03T17:06:03.946Z</time>
      </trkpt>
      <trkpt lat="46.40596" lon="5.71213">
        <ele>708.1</ele>
        <time>2014-05-03T17:06:06.973Z</time>
      </trkpt>
      <trkpt lat="46.40582" lon="5.71196">
        <ele>707.3</ele>
        <time>2014-05-03T17:06:09.963Z</time>
      </trkpt>
      <trkpt lat="46.40565" lon="5.71179">
        <ele>706.2</ele>
        <time>2014-05-03T17:06:12.941Z</time>
      </trkpt>
      <trkpt lat="46.4055" lon="5.71162">
        <ele>705.8</ele>
        <time>2014-05-03T17:06:16.023Z</time>
      </trkpt>
      <trkpt lat="46.40535" lon="5.71148">
        <ele>705.2</ele>
        <time>2014-05-03T17:06:18.967Z</time>
      </trkpt>
      <trkpt lat="46.40521" lon="5.71134">
        <ele>705.2</ele>
        <time>2014-05-03T17:06:21.941Z</time>
      </trkpt>
      <trkpt lat="46.40507" lon="5.7112">
        <ele>705.2</ele>
        <time>2014-05-03T17:06:24.940Z</time>
      </trkpt>
      <trkpt lat="46.40495" lon="5.71108">
        <ele>705.7</ele>
        <time>2014-05-03T17:06:27.962Z</time>
      </trkpt>
      <trkpt lat="46.40482" lon="5.71096">
        <ele>705.6</ele>
        <time>2014-05-03T17:06:30.943Z</time>
      </trkpt>
      <trkpt lat="46.40471" lon="5.71085">
        <ele>707.1</ele>
        <time>2014-05-03T17:06:34.006Z</time>
      </trkpt>
      <trkpt lat="46.40459" lon="5.71074">
        <ele>708.2</ele>
        <time>2014-05-03T17:06:36.978Z</time>
      </trkpt>
      <trkpt lat="46.40449" lon="5.71063">
        <ele>708.6</ele>
        <time>2014-05-03T17:06:39.941Z</time>
      </trkpt>
      <trkpt lat="46.40438" lon="5.71052">
        <ele>710.4</ele>
        <time>2014-05-03T17:06:42.976Z</time>
      </trkpt>
      <trkpt lat="46.40429" lon="5.7104">
        <ele>710.9</ele>
        <time>2014-05-03T17:06:45.987Z</time>
      </trkpt>
      <trkpt lat="46.40419" lon="5.71031">
        <ele>710.6</ele>
        <time>2014-05-03T17:06:48.944Z</time>
      </trkpt>
      <trkpt lat="46.40408" lon="5.71021">
        <ele>709.3</ele>
        <time>2014-05-03T17:06:51.946Z</time>
      </trkpt>
      <trkpt lat="46.40394" lon="5.71011">
        <ele>709.4</ele>
        <time>2014-05-03T17:06:54.970Z</time>
      </trkpt>
      <trkpt lat="46.40376" lon="5.71002">
        <ele>709.4</ele>
        <time>2014-05-03T17:06:57.954Z</time>
      </trkpt>
      <trkpt lat="46.40355" lon="5.70989">
        <ele>708.1</ele>
        <time>2014-05-03T17:07:00.938Z</time>
      </trkpt>
      <trkpt lat="46.40333" lon="5.70976">
        <ele>706.1</ele>
        <time>2014-05-03T17:07:04.008Z</time>
      </trkpt>
      <trkpt lat="46.40309" lon="5.7096">
        <ele>703.6</ele>
        <time>2014-05-03T17:07:06.956Z</time>
      </trkpt>
      <trkpt lat="46.40284" lon="5.70939">
        <ele>700.9</ele>
        <time>2014-05-03T17:07:09.942Z</time>
      </trkpt>
      <trkpt lat="46.40259" lon="5.70916">
        <ele>700.4</ele>
        <time>2014-05-03T17:07:13.015Z</time>
      </trkpt>
      <trkpt lat="46.40236" lon="5.70891">
        <ele>697.5</ele>
        <time>2014-05-03T17:07:15.961Z</time>
      </trkpt>
      <trkpt lat="46.40215" lon="5.70856">
        <ele>693.3</ele>
        <time>2014-05-03T17:07:18.942Z</time>
      </trkpt>
      <trkpt lat="46.40194" lon="5.70814">
        <ele>691</ele>
        <time>2014-05-03T17:07:21.998Z</time>
      </trkpt>
      <trkpt lat="46.40172" lon="5.70776">
        <ele>689.5</ele>
        <time>2014-05-03T17:07:24.977Z</time>
      </trkpt>
      <trkpt lat="46.40148" lon="5.70746">
        <ele>689.1</ele>
        <time>2014-05-03T17:07:27.941Z</time>
      </trkpt>
      <trkpt lat="46.40124" lon="5.70724">
        <ele>689.9</ele>
        <time>2014-05-03T17:07:30.981Z</time>
      </trkpt>
      <trkpt lat="46.40101" lon="5.70706">
        <ele>690.9</ele>
        <time>2014-05-03T17:07:33.977Z</time>
      </trkpt>
      <trkpt lat="46.40079" lon="5.7069">
        <ele>691.3</ele>
        <time>2014-05-03T17:07:36.943Z</time>
      </trkpt>
      <trkpt lat="46.40057" lon="5.70679">
        <ele>692.1</ele>
        <time>2014-05-03T17:07:39.940Z</time>
      </trkpt>
      <trkpt lat="46.40038" lon="5.7067">
        <ele>692.5</ele>
        <time>2014-05-03T17:07:42.984Z</time>
      </trkpt>
      <trkpt lat="46.40017" lon="5.70659">
        <ele>691.8</ele>
        <time>2014-05-03T17:07:45.967Z</time>
      </trkpt>
      <trkpt lat="46.39994" lon="5.70647">
        <ele>690.8</ele>
        <time>2014-05-03T17:07:48.940Z</time>
      </trkpt>
      <trkpt lat="46.39969" lon="5.70635">
        <ele>689.6</ele>
        <time>2014-05-03T17:07:51.963Z</time>
      </trkpt>
      <trkpt lat="46.39944" lon="5.70623">
        <ele>688</ele>
        <time>2014-05-03T17:07:54.964Z</time>
      </trkpt>
      <trkpt lat="46.39917" lon="5.70609">
        <ele>687</ele>
        <time>2014-05-03T17:07:57.942Z</time>
      </trkpt>
      <trkpt lat="46.3989" lon="5.70597">
        <ele>685.8</ele>
        <time>2014-05-03T17:08:01.011Z</time>
      </trkpt>
      <trkpt lat="46.39862" lon="5.70595">
        <ele>685.2</ele>
        <time>2014-05-03T17:08:03.973Z</time>
      </trkpt>
      <trkpt lat="46.39835" lon="5.70595">
        <ele>685.6</ele>
        <time>2014-05-03T17:08:06.947Z</time>
      </trkpt>
      <trkpt lat="46.39812" lon="5.70594">
        <ele>685.2</ele>
        <time>2014-05-03T17:08:09.964Z</time>
      </trkpt>
      <trkpt lat="46.39801" lon="5.70574">
        <ele>684.6</ele>
        <time>2014-05-03T17:08:12.980Z</time>
      </trkpt>
      <trkpt lat="46.39802" lon="5.70555">
        <ele>685</ele>
        <time>2014-05-03T17:08:15.940Z</time>
      </trkpt>
      <trkpt lat="46.39803" lon="5.70543">
        <ele>684.9</ele>
        <time>2014-05-03T17:08:18.975Z</time>
      </trkpt>
      <trkpt lat="46.39804" lon="5.70531">
        <ele>684.9</ele>
        <time>2014-05-03T17:08:21.981Z</time>
      </trkpt>
      <trkpt lat="46.39806" lon="5.70519">
        <ele>685.6</ele>
        <time>2014-05-03T17:08:24.949Z</time>
      </trkpt>
      <trkpt lat="46.39809" lon="5.70508">
        <ele>686.6</ele>
        <time>2014-05-03T17:08:27.942Z</time>
      </trkpt>
      <trkpt lat="46.3981" lon="5.70498">
        <ele>686.8</ele>
        <time>2014-05-03T17:08:30.978Z</time>
      </trkpt>
      <trkpt lat="46.39813" lon="5.70489">
        <ele>687.8</ele>
        <time>2014-05-03T17:08:33.941Z</time>
      </trkpt>
      <trkpt lat="46.39814" lon="5.70481">
        <ele>694.7</ele>
        <time>2014-05-03T17:08:36.940Z</time>
      </trkpt>
      <trkpt lat="46.39814" lon="5.70475">
        <ele>700.9</ele>
        <time>2014-05-03T17:08:39.944Z</time>
      </trkpt>
      <trkpt lat="46.39814" lon="5.70467">
        <ele>705.3</ele>
        <time>2014-05-03T17:08:42.968Z</time>
      </trkpt>
      <trkpt lat="46.39814" lon="5.70462">
        <ele>708.4</ele>
        <time>2014-05-03T17:08:45.940Z</time>
      </trkpt>
      <trkpt lat="46.39813" lon="5.70454">
        <ele>715.6</ele>
        <time>2014-05-03T17:08:49.013Z</time>
      </trkpt>
      <trkpt lat="46.39813" lon="5.70445">
        <ele>717.3</ele>
        <time>2014-05-03T17:08:51.954Z</time>
      </trkpt>
      <trkpt lat="46.39814" lon="5.70435">
        <ele>720.3</ele>
        <time>2014-05-03T17:08:54.941Z</time>
      </trkpt>
      <trkpt lat="46.39816" lon="5.70426">
        <ele>724</ele>
        <time>2014-05-03T17:08:57.940Z</time>
      </trkpt>
      <trkpt lat="46.39818" lon="5.70418">
        <ele>728.7</ele>
        <time>2014-05-03T17:09:00.938Z</time>
      </trkpt>
      <trkpt lat="46.39822" lon="5.7041">
        <ele>729</ele>
        <time>2014-05-03T17:09:03.941Z</time>
      </trkpt>
      <trkpt lat="46.39826" lon="5.70401">
        <ele>730.6</ele>
        <time>2014-05-03T17:09:06.984Z</time>
      </trkpt>
      <trkpt lat="46.39829" lon="5.70395">
        <ele>730.6</ele>
        <time>2014-05-03T17:09:09.973Z</time>
      </trkpt>
      <trkpt lat="46.39834" lon="5.70388">
        <ele>733.3</ele>
        <time>2014-05-03T17:09:12.944Z</time>
      </trkpt>
      <trkpt lat="46.39837" lon="5.70383">
        <ele>736.4</ele>
        <time>2014-05-03T17:09:15.938Z</time>
      </trkpt>
      <trkpt lat="46.3984" lon="5.70377">
        <ele>738.1</ele>
        <time>2014-05-03T17:09:18.938Z</time>
      </trkpt>
      <trkpt lat="46.39844" lon="5.7037">
        <ele>741.9</ele>
        <time>2014-05-03T17:09:21.938Z</time>
      </trkpt>
      <trkpt lat="46.39846" lon="5.70364">
        <ele>747.7</ele>
        <time>2014-05-03T17:09:24.938Z</time>
      </trkpt>
      <trkpt lat="46.39849" lon="5.70359">
        <ele>752.2</ele>
        <time>2014-05-03T17:09:27.938Z</time>
      </trkpt>
      <trkpt lat="46.3985" lon="5.70353">
        <ele>755.9</ele>
        <time>2014-05-03T17:09:30.937Z</time>
      </trkpt>
      <trkpt lat="46.39851" lon="5.70347">
        <ele>760.7</ele>
        <time>2014-05-03T17:09:33.938Z</time>
      </trkpt>
      <trkpt lat="46.39853" lon="5.70342">
        <ele>762.7</ele>
        <time>2014-05-03T17:09:36.938Z</time>
      </trkpt>
      <trkpt lat="46.39855" lon="5.70338">
        <ele>765.1</ele>
        <time>2014-05-03T17:09:39.937Z</time>
      </trkpt>
      <trkpt lat="46.39857" lon="5.70333">
        <ele>765.3</ele>
        <time>2014-05-03T17:09:42.938Z</time>
      </trkpt>
      <trkpt lat="46.39861" lon="5.70326">
        <ele>763.8</ele>
        <time>2014-05-03T17:09:45.938Z</time>
      </trkpt>
      <trkpt lat="46.39863" lon="5.7032">
        <ele>766.1</ele>
        <time>2014-05-03T17:09:48.938Z</time>
      </trkpt>
      <trkpt lat="46.39865" lon="5.70313">
        <ele>766.1</ele>
        <time>2014-05-03T17:09:51.939Z</time>
      </trkpt>
      <trkpt lat="46.39869" lon="5.70305">
        <ele>765.7</ele>
        <time>2014-05-03T17:09:54.939Z</time>
      </trkpt>
      <trkpt lat="46.39871" lon="5.70298">
        <ele>768.9</ele>
        <time>2014-05-03T17:09:57.940Z</time>
      </trkpt>
      <trkpt lat="46.39875" lon="5.70292">
        <ele>770</ele>
        <time>2014-05-03T17:10:00.945Z</time>
      </trkpt>
      <trkpt lat="46.39879" lon="5.70286">
        <ele>768.5</ele>
        <time>2014-05-03T17:10:03.946Z</time>
      </trkpt>
      <trkpt lat="46.39881" lon="5.70281">
        <ele>769.2</ele>
        <time>2014-05-03T17:10:06.940Z</time>
      </trkpt>
      <trkpt lat="46.39882" lon="5.70275">
        <ele>769</ele>
        <time>2014-05-03T17:10:09.941Z</time>
      </trkpt>
      <trkpt lat="46.39883" lon="5.70265">
        <ele>762.6</ele>
        <time>2014-05-03T17:10:12.939Z</time>
      </trkpt>
      <trkpt lat="46.39882" lon="5.70254">
        <ele>751.2</ele>
        <time>2014-05-03T17:10:15.940Z</time>
      </trkpt>
      <trkpt lat="46.3988" lon="5.70243">
        <ele>738</ele>
        <time>2014-05-03T17:10:18.948Z</time>
      </trkpt>
      <trkpt lat="46.39876" lon="5.70232">
        <ele>731.4</ele>
        <time>2014-05-03T17:10:21.944Z</time>
      </trkpt>
      <trkpt lat="46.3987" lon="5.70227">
        <ele>726.9</ele>
        <time>2014-05-03T17:10:24.939Z</time>
      </trkpt>
      <trkpt lat="46.39862" lon="5.70223">
        <ele>723.7</ele>
        <time>2014-05-03T17:10:27.992Z</time>
      </trkpt>
      <trkpt lat="46.39855" lon="5.70219">
        <ele>720.4</ele>
        <time>2014-05-03T17:10:30.946Z</time>
      </trkpt>
      <trkpt lat="46.39849" lon="5.70216">
        <ele>718.6</ele>
        <time>2014-05-03T17:10:33.938Z</time>
      </trkpt>
      <trkpt lat="46.39843" lon="5.70213">
        <ele>717.8</ele>
        <time>2014-05-03T17:10:36.952Z</time>
      </trkpt>
      <trkpt lat="46.39837" lon="5.70211">
        <ele>716.3</ele>
        <time>2014-05-03T17:10:39.954Z</time>
      </trkpt>
      <trkpt lat="46.39831" lon="5.70209">
        <ele>715</ele>
        <time>2014-05-03T17:10:42.940Z</time>
      </trkpt>
      <trkpt lat="46.39824" lon="5.70208">
        <ele>714.4</ele>
        <time>2014-05-03T17:10:45.944Z</time>
      </trkpt>
      <trkpt lat="46.39817" lon="5.7021">
        <ele>713.3</ele>
        <time>2014-05-03T17:10:48.945Z</time>
      </trkpt>
      <trkpt lat="46.3981" lon="5.70214">
        <ele>713.1</ele>
        <time>2014-05-03T17:10:51.943Z</time>
      </trkpt>
      <trkpt lat="46.39805" lon="5.7022">
        <ele>713</ele>
        <time>2014-05-03T17:10:54.941Z</time>
      </trkpt>
      <trkpt lat="46.39799" lon="5.70226">
        <ele>714.8</ele>
        <time>2014-05-03T17:10:57.940Z</time>
      </trkpt>
      <trkpt lat="46.39794" lon="5.70232">
        <ele>715.7</ele>
        <time>2014-05-03T17:11:00.941Z</time>
      </trkpt>
      <trkpt lat="46.39789" lon="5.70238">
        <ele>715.1</ele>
        <time>2014-05-03T17:11:03.941Z</time>
      </trkpt>
      <trkpt lat="46.39782" lon="5.70244">
        <ele>715.3</ele>
        <time>2014-05-03T17:11:06.957Z</time>
      </trkpt>
      <trkpt lat="46.39776" lon="5.70248">
        <ele>715.5</ele>
        <time>2014-05-03T17:11:09.965Z</time>
      </trkpt>
      <trkpt lat="46.39769" lon="5.70255">
        <ele>716</ele>
        <time>2014-05-03T17:11:12.945Z</time>
      </trkpt>
      <trkpt lat="46.39764" lon="5.70262">
        <ele>718</ele>
        <time>2014-05-03T17:11:15.946Z</time>
      </trkpt>
      <trkpt lat="46.39761" lon="5.70268">
        <ele>721.6</ele>
        <time>2014-05-03T17:11:18.940Z</time>
      </trkpt>
      <trkpt lat="46.39757" lon="5.70273">
        <ele>724.3</ele>
        <time>2014-05-03T17:11:21.959Z</time>
      </trkpt>
      <trkpt lat="46.39751" lon="5.70278">
        <ele>725.8</ele>
        <time>2014-05-03T17:11:24.960Z</time>
      </trkpt>
      <trkpt lat="46.39743" lon="5.70284">
        <ele>724.9</ele>
        <time>2014-05-03T17:11:27.940Z</time>
      </trkpt>
      <trkpt lat="46.39736" lon="5.7029">
        <ele>725.8</ele>
        <time>2014-05-03T17:11:30.940Z</time>
      </trkpt>
      <trkpt lat="46.3973" lon="5.70297">
        <ele>729.6</ele>
        <time>2014-05-03T17:11:33.943Z</time>
      </trkpt>
      <trkpt lat="46.39724" lon="5.70303">
        <ele>732</ele>
        <time>2014-05-03T17:11:36.940Z</time>
      </trkpt>
      <trkpt lat="46.39717" lon="5.70308">
        <ele>729.6</ele>
        <time>2014-05-03T17:11:39.946Z</time>
      </trkpt>
      <trkpt lat="46.3971" lon="5.70315">
        <ele>728.7</ele>
        <time>2014-05-03T17:11:42.941Z</time>
      </trkpt>
      <trkpt lat="46.39701" lon="5.70323">
        <ele>725</ele>
        <time>2014-05-03T17:11:45.940Z</time>
      </trkpt>
      <trkpt lat="46.39692" lon="5.7033">
        <ele>721.9</ele>
        <time>2014-05-03T17:11:48.978Z</time>
      </trkpt>
      <trkpt lat="46.39678" lon="5.70341">
        <ele>720.1</ele>
        <time>2014-05-03T17:11:51.942Z</time>
      </trkpt>
      <trkpt lat="46.39663" lon="5.7035">
        <ele>718.2</ele>
        <time>2014-05-03T17:11:54.979Z</time>
      </trkpt>
      <trkpt lat="46.39647" lon="5.70355">
        <ele>716.6</ele>
        <time>2014-05-03T17:11:57.982Z</time>
      </trkpt>
      <trkpt lat="46.39631" lon="5.70351">
        <ele>715.3</ele>
        <time>2014-05-03T17:12:00.952Z</time>
      </trkpt>
      <trkpt lat="46.39615" lon="5.7034">
        <ele>712.6</ele>
        <time>2014-05-03T17:12:03.970Z</time>
      </trkpt>
      <trkpt lat="46.39598" lon="5.70326">
        <ele>710.5</ele>
        <time>2014-05-03T17:12:06.987Z</time>
      </trkpt>
      <trkpt lat="46.39579" lon="5.70317">
        <ele>708.3</ele>
        <time>2014-05-03T17:12:09.948Z</time>
      </trkpt>
      <trkpt lat="46.39561" lon="5.70313">
        <ele>707.3</ele>
        <time>2014-05-03T17:12:12.999Z</time>
      </trkpt>
      <trkpt lat="46.39545" lon="5.70311">
        <ele>706.3</ele>
        <time>2014-05-03T17:12:15.985Z</time>
      </trkpt>
      <trkpt lat="46.3953" lon="5.70309">
        <ele>704.9</ele>
        <time>2014-05-03T17:12:18.940Z</time>
      </trkpt>
      <trkpt lat="46.39514" lon="5.70308">
        <ele>703.4</ele>
        <time>2014-05-03T17:12:21.938Z</time>
      </trkpt>
      <trkpt lat="46.395" lon="5.70304">
        <ele>702</ele>
        <time>2014-05-03T17:12:24.939Z</time>
      </trkpt>
      <trkpt lat="46.39486" lon="5.703">
        <ele>701</ele>
        <time>2014-05-03T17:12:27.939Z</time>
      </trkpt>
      <trkpt lat="46.39472" lon="5.70295">
        <ele>700.3</ele>
        <time>2014-05-03T17:12:30.939Z</time>
      </trkpt>
      <trkpt lat="46.39457" lon="5.7029">
        <ele>699.4</ele>
        <time>2014-05-03T17:12:33.954Z</time>
      </trkpt>
      <trkpt lat="46.39441" lon="5.70287">
        <ele>697.7</ele>
        <time>2014-05-03T17:12:36.983Z</time>
      </trkpt>
      <trkpt lat="46.39426" lon="5.70283">
        <ele>697.4</ele>
        <time>2014-05-03T17:12:39.941Z</time>
      </trkpt>
      <trkpt lat="46.39412" lon="5.7028">
        <ele>696.4</ele>
        <time>2014-05-03T17:12:43.043Z</time>
      </trkpt>
      <trkpt lat="46.394" lon="5.70278">
        <ele>697.1</ele>
        <time>2014-05-03T17:12:45.972Z</time>
      </trkpt>
      <trkpt lat="46.39386" lon="5.70275">
        <ele>696.2</ele>
        <time>2014-05-03T17:12:48.938Z</time>
      </trkpt>
      <trkpt lat="46.39371" lon="5.70274">
        <ele>695.8</ele>
        <time>2014-05-03T17:12:51.947Z</time>
      </trkpt>
      <trkpt lat="46.39356" lon="5.70272">
        <ele>695.6</ele>
        <time>2014-05-03T17:12:54.942Z</time>
      </trkpt>
      <trkpt lat="46.39339" lon="5.70271">
        <ele>694.2</ele>
        <time>2014-05-03T17:12:57.939Z</time>
      </trkpt>
      <trkpt lat="46.39327" lon="5.70267">
        <ele>692.3</ele>
        <time>2014-05-03T17:13:00.939Z</time>
      </trkpt>
      <trkpt lat="46.39323" lon="5.70276">
        <ele>692.3</ele>
        <time>2014-05-03T17:13:03.939Z</time>
      </trkpt>
      <trkpt lat="46.39323" lon="5.70277">
        <ele>691.3</ele>
        <time>2014-05-03T17:13:06.941Z</time>
      </trkpt>
      <trkpt lat="46.39323" lon="5.70277">
        <ele>691.4</ele>
        <time>2014-05-03T17:13:09.940Z</time>
      </trkpt>
      <trkpt lat="46.39323" lon="5.70277">
        <ele>692</ele>
        <time>2014-05-03T17:13:12.991Z</time>
      </trkpt>
      <trkpt lat="46.39323" lon="5.70278">
        <ele>691.3</ele>
        <time>2014-05-03T17:13:15.954Z</time>
      </trkpt>
      <trkpt lat="46.39323" lon="5.70277">
        <ele>692.2</ele>
        <time>2014-05-03T17:13:18.992Z</time>
      </trkpt>
      <trkpt lat="46.39323" lon="5.7028">
        <ele>689.3</ele>
        <time>2014-05-03T17:13:22.077Z</time>
      </trkpt>
      <trkpt lat="46.39323" lon="5.70281">
        <ele>688.2</ele>
        <time>2014-05-03T17:13:25.047Z</time>
      </trkpt>
      <trkpt lat="46.39323" lon="5.70281">
        <ele>689.1</ele>
        <time>2014-05-03T17:13:27.994Z</time>
      </trkpt>
      <trkpt lat="46.39323" lon="5.7028">
        <ele>692.4</ele>
        <time>2014-05-03T17:13:30.939Z</time>
      </trkpt>
      <trkpt lat="46.39323" lon="5.70279">
        <ele>692.2</ele>
        <time>2014-05-03T17:13:33.981Z</time>
      </trkpt>
      <trkpt lat="46.39323" lon="5.70279">
        <ele>691.9</ele>
        <time>2014-05-03T17:13:36.938Z</time>
      </trkpt>
      <trkpt lat="46.39323" lon="5.70279">
        <ele>691.3</ele>
        <time>2014-05-03T17:13:40.074Z</time>
      </trkpt>
      <trkpt lat="46.39323" lon="5.70279">
        <ele>692.5</ele>
        <time>2014-05-03T17:13:42.944Z</time>
      </trkpt>
      <trkpt lat="46.39323" lon="5.70279">
        <ele>692.5</ele>
        <time>2014-05-03T17:13:46.050Z</time>
      </trkpt>
      <trkpt lat="46.39323" lon="5.70279">
        <ele>692.5</ele>
        <time>2014-05-03T17:13:48.961Z</time>
      </trkpt>
      <trkpt lat="46.39323" lon="5.70279">
        <ele>692.5</ele>
        <time>2014-05-03T17:13:52.083Z</time>
      </trkpt>
      <trkpt lat="46.39323" lon="5.70279">
        <ele>692.5</ele>
        <time>2014-05-03T17:13:54.965Z</time>
      </trkpt>
      <trkpt lat="46.39323" lon="5.70279">
        <ele>692.5</ele>
        <time>2014-05-03T17:13:57.938Z</time>
      </trkpt>
      <trkpt lat="46.39323" lon="5.70279">
        <ele>692.5</ele>
        <time>2014-05-03T17:14:00.945Z</time>
      </trkpt>
      <trkpt lat="46.39323" lon="5.70279">
        <ele>692.5</ele>
        <time>2014-05-03T17:14:03.938Z</time>
      </trkpt>
      <trkpt lat="46.39323" lon="5.70279">
        <ele>692.5</ele>
        <time>2014-05-03T17:14:06.941Z</time>
      </trkpt>
      <trkpt lat="46.39323" lon="5.70279">
        <ele>692.5</ele>
        <time>2014-05-03T17:14:09.938Z</time>
      </trkpt>
      <trkpt lat="46.39323" lon="5.70279">
        <ele>692.5</ele>
        <time>2014-05-03T17:14:12.940Z</time>
      </trkpt>
      <trkpt lat="46.39323" lon="5.70279">
        <ele>692.5</ele>
        <time>2014-05-03T17:14:15.941Z</time>
      </trkpt>
      <trkpt lat="46.39323" lon="5.70279">
        <ele>692.5</ele>
        <time>2014-05-03T17:14:18.936Z</time>
      </trkpt>
      <trkpt lat="46.39323" lon="5.70279">
        <ele>692.5</ele>
        <time>2014-05-03T17:14:21.938Z</time>
      </trkpt>
      <trkpt lat="46.39323" lon="5.70279">
        <ele>692.5</ele>
        <time>2014-05-03T17:14:24.937Z</time>
      </trkpt>
      <trkpt lat="46.39323" lon="5.70279">
        <ele>692.5</ele>
        <time>2014-05-03T17:14:27.937Z</time>
      </trkpt>
      <trkpt lat="46.39323" lon="5.70279">
        <ele>692.5</ele>
        <time>2014-05-03T17:14:30.936Z</time>
      </trkpt>
      <trkpt lat="46.39323" lon="5.70279">
        <ele>692.5</ele>
        <time>2014-05-03T17:14:33.937Z</time>
      </trkpt>
      <trkpt lat="46.39323" lon="5.70279">
        <ele>692.5</ele>
        <time>2014-05-03T17:14:36.938Z</time>
      </trkpt>
      <trkpt lat="46.39323" lon="5.70279">
        <ele>692.5</ele>
        <time>2014-05-03T17:14:48.939Z</time>
      </trkpt>
      <trkpt lat="46.39323" lon="5.70279">
        <ele>692.5</ele>
        <time>2014-05-03T17:14:52.038Z</time>
      </trkpt>
      <trkpt lat="46.39323" lon="5.70279">
        <ele>692.5</ele>
        <time>2014-05-03T17:14:54.939Z</time>
      </trkpt>
      <trkpt lat="46.39323" lon="5.70279">
        <ele>692.5</ele>
        <time>2014-05-03T17:14:57.938Z</time>
      </trkpt>
      <trkpt lat="46.39323" lon="5.70279">
        <ele>692.5</ele>
        <time>2014-05-03T17:15:00.995Z</time>
      </trkpt>
      <trkpt lat="46.39323" lon="5.70279">
        <ele>692.5</ele>
        <time>2014-05-03T17:15:03.939Z</time>
      </trkpt>
      <trkpt lat="46.39323" lon="5.70279">
        <ele>692.5</ele>
        <time>2014-05-03T17:15:07.018Z</time>
      </trkpt>
      <trkpt lat="46.39323" lon="5.70279">
        <ele>692.5</ele>
        <time>2014-05-03T17:15:09.931Z</time>
      </trkpt>
      <trkpt lat="46.39323" lon="5.70279">
        <ele>692.5</ele>
        <time>2014-05-03T17:15:12.995Z</time>
      </trkpt>
    </trkseg>
  </trk>
</gpx>